GFSMW_sfc_wetblb_000.txt.gz
Wetbulb
54.26 56.18 56.75 56.52 55.10 55.58 54.26 53.67 53.12 53.55 52.49 51.84 50.93 50.69 50.55 51.85 52.49 52.90 53.34 53.15 52.66 52.32 51.15 50.42 49.82 50.19 49.08 48.37 48.11 47.42 46.51 45.93 47.34 45.27 43.80 44.66 46.07 46.68 50.47 55.27 59.14 59.56 59.70
53.00 54.52 55.57 55.76 55.15 54.36 54.17 53.38 53.18 53.29 52.64 51.78 51.59 51.58 51.80 51.74 51.89 52.38 52.23 52.45 52.85 51.80 51.37 50.61 49.07 49.19 47.80 48.02 48.22 47.48 45.29 45.88 46.16 44.09 42.70 39.82 41.82 45.95 47.70 49.46 53.84 56.25 58.57
51.35 52.69 54.81 54.88 55.22 54.00 53.86 53.86 53.21 52.99 52.90 51.90 51.65 51.58 51.32 50.28 49.29 49.62 50.30 51.60 52.03 52.42 51.80 50.94 49.76 48.84 48.49 47.40 47.00 46.42 45.88 43.53 45.10 45.23 42.99 39.37 37.77 40.99 44.13 45.12 46.24 47.73 53.20
52.84 53.06 54.25 53.84 54.86 54.06 55.26 54.44 54.00 53.07 52.99 53.02 50.52 49.74 48.04 46.78 47.95 48.37 49.39 50.08 51.86 51.30 51.09 50.93 50.43 48.94 48.51 47.50 47.70 47.84 46.83 45.26 42.59 44.66 46.75 44.41 43.22 40.10 39.10 42.69 43.96 44.80 45.55
52.73 52.24 52.40 53.26 54.13 54.43 54.67 54.34 54.11 53.54 53.28 52.98 51.55 49.79 48.67 48.60 49.11 49.13 49.72 49.09 49.54 50.14 50.21 49.85 49.33 48.08 48.01 47.47 46.57 46.28 46.25 45.75 44.26 43.77 43.45 43.27 43.71 43.73 41.57 39.18 41.40 43.37 44.29
51.86 52.28 53.10 53.75 53.06 55.00 54.53 54.93 53.95 53.34 53.42 52.70 51.89 50.26 48.14 48.63 48.00 48.18 46.44 47.55 47.69 47.35 48.23 47.43 46.03 45.93 45.50 44.78 44.20 43.91 43.94 43.73 43.60 43.48 43.61 42.79 41.28 41.04 40.68 39.80 40.62 40.70 42.23
51.43 52.10 52.08 52.48 53.04 53.34 54.29 54.87 53.97 52.60 53.02 52.81 52.05 50.57 49.65 48.96 48.22 47.89 46.29 45.89 43.94 44.25 44.05 44.23 43.80 43.21 43.00 43.24 43.01 42.13 41.78 41.96 41.68 41.37 41.18 42.15 41.89 42.57 41.58 39.71 38.53 38.55 41.47
52.53 52.24 53.21 53.83 53.54 54.04 54.13 53.96 52.98 52.27 52.58 52.23 51.85 51.02 50.26 48.63 47.97 47.25 45.16 43.38 42.83 43.00 44.03 43.01 42.93 42.86 42.93 42.02 41.70 41.20 40.98 40.86 40.76 40.44 41.39 41.66 41.76 42.14 41.82 40.76 39.27 37.27 38.88
52.09 52.65 53.00 53.27 53.42 53.54 53.12 52.83 52.76 53.04 52.53 51.98 51.52 50.31 49.30 47.76 45.93 45.86 44.22 43.09 43.40 43.13 43.40 42.79 42.22 42.05 41.74 41.26 40.67 39.59 39.65 40.27 40.14 40.32 40.63 40.73 41.50 42.24 42.11 41.87 40.96 38.38 34.83
52.09 52.56 52.54 52.36 52.92 53.29 53.64 53.49 53.26 51.31 50.49 50.46 49.04 46.67 45.86 45.36 43.96 43.48 42.61 42.36 41.96 42.16 41.90 41.33 41.03 40.60 40.24 39.97 39.18 38.09 38.69 38.83 39.10 39.83 39.32 39.53 40.08 40.40 40.94 41.16 41.56 41.79 39.37
51.71 52.04 52.50 52.68 52.47 52.73 51.83 51.22 49.99 49.00 48.28 47.66 45.62 44.07 43.84 43.65 42.63 41.86 41.31 41.13 41.60 41.04 40.77 40.22 39.44 39.28 38.81 38.61 37.51 37.30 37.78 37.39 37.30 37.84 37.93 38.00 38.85 38.57 39.11 39.63 39.90 39.45 39.65
50.95 50.74 51.05 51.47 51.32 50.94 50.64 50.65 48.78 47.71 46.66 45.79 43.79 42.74 42.29 41.80 40.79 40.56 41.01 41.80 40.38 40.70 40.10 39.60 39.20 38.65 38.07 37.65 36.86 36.17 36.71 36.08 35.57 36.09 36.09 36.16 38.54 36.73 37.54 37.90 37.59 38.09 38.87
49.57 49.96 50.33 50.02 49.79 49.56 49.45 49.99 47.50 46.64 45.43 43.51 42.28 41.26 40.72 40.42 40.02 40.51 40.94 40.29 40.30 39.50 39.28 38.98 37.97 37.51 36.97 36.39 36.20 36.03 35.62 35.16 35.16 35.00 34.75 35.02 35.44 34.82 35.76 36.34 36.37 37.14 38.64
49.49 49.48 48.94 49.05 49.22 48.95 48.70 47.90 46.05 46.36 44.27 42.82 41.63 40.66 39.90 41.03 40.63 40.48 40.32 40.04 39.60 38.82 37.88 37.64 36.97 36.30 35.88 35.97 35.75 35.48 34.38 33.90 34.47 34.46 34.40 34.17 33.64 32.95 33.07 33.80 33.83 35.10 34.60
48.17 47.89 47.36 47.78 47.82 48.00 48.16 46.29 45.53 45.07 44.02 42.35 41.32 41.73 41.91 41.81 40.92 40.37 39.56 39.20 38.72 38.02 37.17 35.87 35.19 35.18 35.49 35.69 34.08 33.53 31.94 31.35 31.22 31.82 31.93 31.58 32.28 34.23 33.58 32.44 31.53 31.84 31.89
46.33 46.76 46.97 46.21 46.72 47.34 47.17 43.99 43.92 43.88 43.17 41.61 42.22 42.78 41.67 41.33 39.61 39.00 38.32 37.80 37.01 35.58 34.93 33.87 33.74 33.33 34.95 34.91 34.82 33.30 30.23 30.18 29.69 28.99 29.82 29.92 31.29 31.44 32.40 32.82 33.03 32.32 29.90
45.84 46.37 45.39 45.76 46.90 46.38 44.22 42.52 43.39 44.18 43.23 42.69 41.23 40.70 40.86 39.57 38.31 38.13 37.20 35.56 33.56 33.65 32.28 32.35 32.49 32.00 32.27 34.44 34.18 33.06 29.83 28.84 28.75 28.21 28.22 28.58 30.28 31.01 30.76 31.68 32.49 32.47 33.01
45.44 45.54 45.87 46.40 46.37 44.25 42.26 43.25 44.03 43.33 41.33 40.52 40.68 41.10 39.53 37.77 37.25 36.48 34.97 33.01 32.32 31.49 31.12 31.11 31.42 30.59 31.76 32.57 32.21 31.46 28.81 28.12 28.27 28.40 28.77 28.58 28.66 29.70 30.23 29.94 30.10 31.27 32.27
45.77 45.49 46.50 45.50 43.29 42.55 42.55 42.10 42.26 41.30 40.75 40.27 39.24 38.43 37.37 36.32 35.78 33.92 31.91 31.50 30.75 30.55 30.50 30.48 29.73 29.05 28.98 31.40 31.08 30.32 28.61 29.02 28.69 29.32 29.66 29.58 28.99 30.56 31.87 30.43 29.88 29.30 30.08
45.93 45.28 44.66 43.51 42.30 41.74 42.78 41.65 41.31 40.83 38.72 38.59 37.50 37.08 36.79 35.52 33.71 31.90 30.50 30.54 30.78 29.58 29.65 28.95 29.75 30.33 28.10 30.39 31.45 31.24 30.01 29.57 28.86 30.55 31.11 31.82 31.56 31.49 31.32 29.69 29.22 28.13 28.83
44.66 45.01 43.18 41.02 41.59 42.91 42.44 39.98 38.91 38.34 37.33 36.92 36.73 36.27 35.95 34.03 32.82 31.44 30.84 30.03 29.27 28.67 27.87 26.23 27.47 28.07 28.83 28.65 31.33 31.94 29.35 29.29 28.11 28.40 27.82 29.08 30.67 31.08 31.49 32.20 29.80 29.27 30.30
43.78 42.27 41.10 41.27 41.74 41.79 40.68 38.13 35.74 35.89 36.45 36.10 35.45 34.73 33.86 33.40 33.03 30.50 29.28 29.12 28.09 26.96 25.46 25.00 25.31 26.79 26.99 29.88 29.64 29.99 30.00 29.91 28.20 27.57 29.09 29.47 30.97 30.99 31.37 30.89 30.91 30.86 30.37
40.49 40.87 40.81 40.50 40.99 40.43 37.88 36.11 34.72 35.76 35.14 34.27 33.44 32.56 32.79 32.04 31.18 28.49 28.20 27.68 27.09 26.19 25.35 25.99 24.08 24.34 26.79 27.32 28.83 28.69 29.35 29.91 27.68 28.22 28.80 30.23 30.58 30.54 30.04 30.43 30.28 29.31 28.24
38.88 40.37 39.66 38.51 37.99 38.66 36.49 35.09 35.32 35.25 34.11 32.18 31.59 31.13 29.94 29.43 28.95 28.85 28.83 27.14 25.79 25.04 25.15 23.71 23.61 24.19 25.28 25.35 26.17 27.07 28.69 29.80 28.99 29.02 28.60 28.03 27.97 28.61 28.93 29.43 30.60 30.52 29.97
39.17 39.58 38.44 38.01 37.15 36.09 35.02 35.23 33.82 33.66 31.62 30.44 30.13 30.06 29.43 28.07 27.82 28.18 27.48 26.49 26.51 26.33 24.48 24.50 25.20 24.48 22.98 24.57 28.47 29.57 28.91 28.85 29.18 28.54 28.54 27.84 26.87 26.18 26.70 27.94 31.02 28.90 28.10
39.12 38.50 38.34 37.20 36.06 35.26 34.41 34.34 33.91 31.62 29.55 28.71 29.14 28.48 27.61 27.20 27.98 27.14 26.85 29.46 28.64 29.15 29.26 28.55 27.29 26.42 27.09 28.60 29.83 30.39 31.36 30.19 29.51 27.52 25.40 23.85 24.09 24.87 25.23 25.83 28.67 29.26 26.95

GFSMW_sfc_wetblb_003.txt.gz
Wetbulb
48.52 50.43 50.11 48.76 48.57 48.28 48.12 48.50 47.89 48.14 47.75 46.39 45.97 45.52 45.43 46.88 47.18 47.69 50.16 50.08 49.48 49.16 47.67 46.61 47.49 47.33 46.03 45.46 45.14 45.08 43.98 43.17 44.09 42.33 42.47 42.31 43.30 43.47 44.91 47.61 53.17 56.36 59.22
47.84 49.38 49.79 48.13 47.84 47.78 47.92 47.54 47.94 47.75 47.24 46.99 46.51 46.03 45.42 46.03 46.91 47.81 48.37 49.32 48.97 48.65 48.04 47.14 45.44 45.95 45.06 44.63 44.66 44.96 43.00 43.45 43.81 41.80 40.43 37.81 40.85 42.27 44.54 45.14 47.76 49.52 53.50
46.32 47.79 48.97 47.97 47.63 47.51 47.91 48.70 48.01 47.87 47.75 47.31 46.67 46.03 45.64 45.91 44.97 45.57 46.68 47.38 48.65 48.73 48.24 47.20 46.28 45.51 44.94 44.14 44.57 43.69 42.54 41.19 43.39 43.05 41.36 38.95 36.86 39.88 42.55 43.06 44.10 44.78 47.49
47.46 47.97 46.90 46.01 47.61 48.22 48.48 49.15 49.46 49.13 48.87 47.76 45.62 45.05 44.40 44.12 44.45 45.10 45.18 46.55 48.17 48.72 48.99 48.34 47.27 46.24 45.20 44.53 44.79 46.08 44.26 42.91 40.92 42.83 45.07 42.96 42.23 39.91 39.05 41.66 43.08 44.81 44.74
46.45 47.03 46.11 46.72 46.64 48.69 48.49 48.92 49.22 49.57 49.95 48.40 46.67 45.40 43.98 45.36 45.67 46.05 45.59 45.34 46.99 47.92 47.91 46.38 46.39 45.51 44.66 44.25 42.72 42.19 42.45 43.14 42.84 42.15 41.62 41.88 42.41 42.29 40.79 38.56 41.31 42.61 44.43
46.10 47.36 47.34 48.70 48.25 49.01 48.59 48.22 48.13 49.03 49.39 49.11 48.20 46.68 45.80 46.24 45.33 44.90 43.96 44.90 44.69 44.53 44.08 43.86 42.36 41.97 41.70 41.96 41.73 41.45 40.27 39.94 40.56 41.37 41.21 40.21 39.69 39.59 39.74 38.66 39.49 39.54 40.22
45.31 46.93 45.53 47.54 47.94 48.07 48.44 48.31 48.65 48.95 49.15 48.40 48.05 47.83 47.36 46.36 45.50 44.82 42.88 42.12 41.18 41.70 41.09 41.73 41.68 41.51 41.66 41.83 41.90 41.08 40.12 39.59 39.23 38.78 39.92 40.50 40.38 40.41 39.64 38.13 36.74 36.29 38.98
47.13 46.53 46.23 47.61 47.63 48.13 48.09 48.40 49.26 49.51 49.47 47.97 47.70 48.03 47.71 47.23 47.07 45.70 42.99 40.23 39.70 40.83 41.29 41.04 41.25 41.01 40.99 40.83 41.03 40.34 39.51 38.78 39.00 37.99 38.11 39.59 40.38 41.60 40.61 38.71 37.42 35.20 36.63
47.57 45.94 47.19 47.81 47.42 47.62 47.85 46.90 46.97 48.26 48.44 46.32 45.80 44.57 44.38 42.91 41.00 39.45 39.89 40.22 40.92 41.22 40.38 39.86 39.64 40.07 40.48 40.70 40.00 38.69 38.22 37.96 38.49 38.81 39.08 39.22 39.96 40.02 40.73 40.53 39.71 37.10 33.12
46.48 47.19 46.89 47.44 47.50 47.32 46.34 46.30 46.57 45.80 45.35 43.05 41.83 41.13 39.99 39.39 40.05 41.08 39.81 39.58 39.70 39.82 39.63 39.38 39.76 40.16 39.85 39.42 38.77 37.86 37.94 37.29 37.55 38.47 37.23 37.45 38.89 39.32 39.38 39.71 39.90 39.38 37.15
45.32 45.89 46.84 48.07 46.82 46.35 46.13 45.80 46.34 45.90 42.23 41.15 39.73 39.37 38.95 38.57 38.06 38.70 38.70 38.70 38.71 39.09 39.28 39.69 39.44 39.17 38.34 38.61 37.95 37.04 36.86 36.05 36.11 35.60 35.72 35.94 36.68 36.76 37.33 37.79 38.01 37.61 37.47
45.67 46.26 46.15 46.20 46.05 46.07 46.07 46.45 46.60 42.60 41.00 39.71 38.53 38.04 37.62 36.71 36.30 37.22 38.27 38.48 37.82 39.06 38.63 38.73 38.74 38.44 38.39 37.61 36.29 35.33 35.08 34.49 34.06 34.24 33.50 33.93 36.68 33.89 33.94 34.59 34.46 35.24 36.03
45.78 46.01 46.10 46.24 46.14 45.42 45.94 45.76 45.65 40.51 40.21 38.25 37.19 36.48 36.22 35.76 35.74 36.74 36.83 37.81 38.05 37.98 37.69 38.06 37.69 37.38 36.85 36.15 35.07 34.57 34.26 33.57 33.30 32.97 32.55 33.16 32.80 31.88 32.31 32.34 32.78 33.89 36.07
45.24 45.29 45.19 45.53 44.48 45.24 45.94 44.96 41.27 41.35 41.09 38.13 36.75 35.89 35.76 35.69 36.14 35.85 36.25 36.84 37.56 36.47 36.77 36.81 36.91 36.37 35.35 34.82 34.44 34.37 32.73 31.73 31.81 31.65 31.51 31.08 30.47 29.64 29.18 30.46 30.62 31.99 31.70
44.34 44.72 44.92 44.53 43.28 45.25 45.27 41.99 40.67 41.47 41.98 39.68 37.04 37.20 37.49 37.76 37.54 36.93 36.20 36.47 35.98 36.54 36.05 35.28 33.88 33.28 33.50 34.16 32.20 31.11 29.97 28.86 28.72 29.44 29.77 29.92 31.12 33.86 33.08 31.20 29.83 29.62 29.14
44.30 44.68 45.08 44.79 44.81 45.19 42.22 41.80 41.31 42.27 42.71 41.20 40.56 40.85 40.14 39.28 38.46 37.72 37.55 36.01 34.87 34.12 32.85 31.60 31.24 30.51 32.98 34.30 34.31 31.97 28.32 28.18 27.51 26.82 28.04 28.56 31.09 30.52 32.02 32.08 32.19 31.03 28.03
44.17 43.94 44.03 44.11 44.58 42.87 41.28 39.66 41.17 42.20 42.48 41.68 40.88 40.68 40.60 40.08 39.19 38.16 35.59 33.81 31.71 30.41 29.08 28.90 29.05 28.78 29.10 33.58 33.39 32.62 28.75 27.41 26.88 26.48 26.82 27.32 29.10 30.02 28.87 30.04 31.07 31.13 32.03
43.86 42.71 43.50 43.53 41.27 39.69 39.92 40.63 41.57 43.02 41.44 40.45 40.39 40.56 40.14 38.52 35.30 34.54 33.25 30.46 29.02 27.93 27.30 27.50 27.78 27.37 29.16 32.32 32.41 31.65 28.39 26.61 26.26 26.78 26.99 26.86 26.83 27.92 28.26 27.85 27.36 28.00 29.04
42.98 43.13 42.56 40.77 39.41 39.32 39.82 40.43 39.95 41.19 41.25 39.46 38.93 36.09 35.19 33.91 33.22 31.51 28.73 28.08 26.88 26.22 26.06 27.33 27.11 26.63 27.18 30.96 31.42 30.25 27.36 26.65 26.82 28.17 28.69 28.75 28.22 29.88 31.33 29.53 28.48 27.98 28.21
43.37 41.46 41.45 39.32 38.46 38.82 40.32 39.77 39.81 39.36 33.69 34.01 34.29 34.68 34.21 32.86 30.65 28.38 27.09 26.42 26.00 26.10 26.96 26.74 27.61 28.80 24.98 28.83 30.10 29.12 28.14 27.27 26.91 27.45 28.76 30.09 29.26 30.94 31.66 30.07 29.02 27.43 27.86
41.03 39.96 38.69 39.98 40.00 40.40 39.04 36.15 31.22 31.54 33.91 34.62 34.80 34.21 33.16 30.94 29.51 27.20 26.41 25.40 24.87 25.25 19.94 19.45 22.03 24.08 25.39 25.51 28.88 29.44 27.09 26.86 26.46 26.40 26.84 27.91 29.69 30.25 30.99 31.40 29.99 28.90 30.04
38.09 38.33 38.29 37.96 38.49 38.73 36.38 31.13 31.23 33.82 34.60 33.99 32.95 31.67 30.96 30.61 29.91 25.52 24.74 25.05 24.00 20.12 18.32 15.43 18.51 22.14 21.53 27.09 28.07 28.52 28.27 28.15 26.33 26.28 27.45 27.52 29.01 29.48 30.15 30.54 31.01 31.02 30.08
36.59 37.94 37.41 38.90 38.89 35.43 33.65 32.60 32.68 33.94 32.80 31.36 30.24 29.58 29.77 29.23 26.94 24.79 24.09 23.86 22.18 18.76 17.56 21.45 20.38 21.89 24.87 25.59 27.51 27.29 27.87 28.72 28.05 28.79 29.15 30.46 30.83 30.70 29.51 29.90 30.30 29.60 28.90
35.74 37.29 37.02 36.62 35.20 34.04 33.40 32.62 33.16 32.73 31.32 29.18 28.43 28.76 26.79 26.21 24.77 25.15 25.10 23.10 18.09 16.73 21.71 19.75 21.40 23.17 24.22 23.73 24.78 26.52 28.50 29.57 28.54 27.88 27.81 27.35 27.85 27.24 27.10 26.66 28.53 28.83 29.27
35.96 37.15 35.59 35.45 33.18 32.88 31.68 32.52 31.78 31.05 28.87 28.09 27.71 26.93 25.76 24.54 24.90 25.39 24.06 22.89 21.46 20.50 23.47 23.66 24.43 23.14 21.84 23.71 27.74 28.61 28.69 28.39 28.30 26.36 24.73 23.16 22.67 23.25 24.44 24.89 25.57 27.55 25.25
36.40 37.10 37.24 33.20 32.40 31.63 30.77 31.22 30.58 28.74 27.41 27.24 26.48 23.98 22.19 22.08 23.88 23.66 23.95 27.51 27.60 28.85 27.96 28.17 26.71 25.11 26.06 27.99 28.94 28.94 29.97 29.92 28.80 25.19 21.94 20.92 20.81 20.50 21.98 22.35 23.37 25.67 26.82

GFSMW_sfc_wetblb_006.txt.gz
Wetbulb
45.69 46.80 47.09 46.98 46.37 46.48 46.98 47.40 46.90 46.86 46.04 45.14 44.61 43.90 44.19 45.38 45.55 46.85 50.94 50.51 50.04 49.50 46.73 46.03 47.18 46.81 45.02 45.09 44.11 43.40 42.97 41.80 42.07 40.74 41.29 41.05 41.60 42.06 43.41 44.40 45.87 49.72 53.74
45.98 47.19 46.58 44.55 46.18 46.04 46.21 46.35 46.52 46.46 46.18 44.96 44.74 44.98 43.90 44.51 45.74 46.19 46.54 49.62 49.22 47.96 47.04 45.61 45.75 45.42 44.68 43.75 44.15 43.90 42.25 42.06 42.22 40.45 38.82 36.90 39.99 41.06 42.69 43.99 43.86 44.28 46.71
45.35 46.26 47.26 45.57 44.71 45.57 46.08 46.91 46.67 46.60 46.50 46.36 44.92 44.18 43.85 43.74 43.82 44.19 44.75 46.71 48.38 48.56 47.44 46.04 45.25 44.07 43.95 43.07 42.65 42.74 41.63 40.19 41.69 41.49 40.25 36.50 34.64 39.86 42.03 42.22 43.59 43.51 44.09
45.92 45.84 45.39 44.81 45.67 46.32 45.82 46.26 47.29 47.02 46.95 46.43 44.20 43.71 45.59 44.87 46.51 46.87 44.26 45.73 47.94 47.80 47.43 46.53 45.53 44.15 43.96 43.54 43.57 43.62 42.06 41.53 39.21 41.13 43.44 41.43 39.78 36.84 35.93 40.57 42.69 44.40 44.78
44.61 44.45 44.14 45.02 46.16 47.03 46.63 46.91 47.04 47.45 48.41 47.67 46.04 44.57 44.15 45.64 46.43 43.09 43.07 43.31 44.66 46.27 46.79 46.26 45.24 44.30 43.91 42.33 40.60 40.54 38.67 40.26 38.79 38.70 38.66 38.45 38.76 38.59 36.43 34.12 37.39 41.43 43.65
43.51 45.47 45.95 45.71 46.16 46.81 46.75 47.70 47.27 47.76 48.09 47.68 47.12 44.92 43.91 45.23 43.87 44.21 43.42 43.14 41.95 41.86 42.95 43.01 41.91 41.24 41.02 40.60 39.98 39.88 37.98 38.26 38.89 38.17 38.42 37.68 35.71 35.78 35.25 34.37 34.65 35.65 38.82
44.95 44.43 44.93 45.24 45.93 45.41 45.88 46.86 46.81 47.88 49.34 47.19 46.82 46.62 45.78 45.61 44.67 44.77 44.61 43.53 41.80 40.67 40.37 40.80 40.92 40.15 40.03 40.18 39.34 40.74 40.54 39.27 38.42 36.26 36.80 38.31 38.33 38.80 37.95 36.37 35.47 34.97 38.39
44.93 44.55 45.45 45.49 46.02 46.27 46.11 46.79 47.64 46.78 46.91 46.41 46.39 45.29 45.29 44.69 44.47 43.44 42.20 40.13 40.88 39.72 40.14 39.71 39.94 40.78 41.15 40.26 40.94 41.32 40.68 39.69 37.14 37.01 37.39 37.86 38.66 38.99 38.36 36.91 35.45 33.56 34.32
44.61 44.83 46.23 45.86 44.96 44.78 45.21 45.34 44.98 46.38 46.39 45.02 42.76 40.75 40.20 40.59 38.42 37.88 38.57 39.34 39.21 39.98 39.37 40.47 41.07 42.12 42.61 42.21 40.11 38.14 37.63 38.05 37.56 36.74 36.66 37.07 38.25 38.67 39.02 38.33 36.96 34.31 30.80
44.51 45.11 45.21 45.48 45.39 44.93 45.45 45.86 45.62 45.63 45.03 41.43 40.35 38.89 37.91 38.17 38.11 37.76 37.19 37.43 38.80 40.81 41.53 42.32 42.25 42.40 40.80 39.77 38.81 37.52 36.62 36.01 36.08 36.56 35.68 36.47 37.32 37.67 38.29 38.07 37.19 36.33 34.10
43.12 44.04 45.91 47.18 47.56 47.42 46.88 45.57 44.46 43.86 40.23 39.74 39.08 38.02 36.99 37.43 36.70 36.31 36.51 37.25 38.39 39.40 40.19 39.85 39.18 39.42 38.92 38.55 36.78 35.67 35.55 34.90 34.76 34.61 34.67 34.80 35.46 35.24 35.28 35.54 35.92 35.01 34.60
43.29 44.00 44.89 45.42 44.97 44.57 44.01 44.13 44.03 40.29 39.33 39.45 38.22 37.36 36.12 35.31 35.09 35.56 36.31 36.89 37.20 38.71 38.11 37.92 38.01 37.58 37.27 36.67 35.42 34.35 34.13 32.57 32.06 32.51 32.61 33.20 34.95 33.02 32.68 32.73 32.62 33.10 33.09
43.07 43.91 44.26 44.69 44.69 43.97 43.66 44.41 43.05 39.44 39.93 38.57 36.94 35.32 34.46 34.06 34.47 35.00 35.58 36.53 36.89 36.85 36.54 36.66 36.16 36.66 36.35 35.39 34.50 33.63 32.99 32.59 32.28 32.13 31.52 31.62 31.48 30.02 30.05 29.99 29.85 30.79 32.74
43.89 43.82 43.20 43.37 43.98 43.57 43.54 43.51 39.58 40.00 40.29 39.30 35.29 34.43 33.98 33.75 34.36 34.36 35.22 36.26 36.29 35.70 35.21 35.92 36.35 35.98 35.08 33.81 33.19 32.69 30.88 29.67 29.66 29.64 29.45 29.62 29.41 28.52 28.08 28.37 27.87 29.17 28.64
43.27 43.09 42.66 42.73 42.93 42.84 43.08 40.68 40.35 40.82 40.05 37.29 35.84 35.46 36.58 36.40 35.97 35.36 35.21 37.50 36.86 35.92 35.28 34.49 33.02 32.10 31.90 32.63 30.92 29.75 28.33 27.65 27.48 28.28 28.38 28.96 30.05 32.60 32.12 30.59 29.11 28.27 27.09
43.17 43.47 43.98 43.71 43.35 43.15 41.83 40.58 40.24 40.40 40.99 40.35 40.68 40.42 39.88 39.32 38.73 38.98 38.92 37.75 35.33 34.21 32.23 30.40 29.87 29.04 31.08 33.48 33.63 31.70 27.99 27.70 27.16 26.17 27.08 27.51 29.65 29.30 31.03 31.82 31.94 30.44 26.83
42.31 42.44 43.27 43.06 42.11 40.91 40.29 39.13 39.49 40.50 41.70 41.60 40.98 41.05 40.95 40.15 38.93 38.59 37.14 33.60 30.86 29.33 28.19 27.73 27.48 27.03 27.67 32.60 32.81 32.51 28.20 27.25 26.96 26.18 26.05 26.40 27.91 28.89 28.00 29.38 30.57 30.71 31.42
42.87 43.17 42.77 41.42 40.47 39.60 39.14 39.10 39.52 40.05 39.90 39.87 39.92 38.79 38.61 36.80 34.60 32.45 30.81 28.48 28.06 27.09 26.13 26.18 26.75 26.54 27.80 31.47 31.21 31.02 27.63 26.52 26.68 26.79 26.79 26.44 26.29 27.33 27.92 27.31 26.68 27.32 27.71
43.40 42.96 40.77 39.82 38.84 37.78 37.95 38.00 37.80 38.18 36.58 32.70 32.36 32.66 32.51 32.28 31.75 28.92 26.96 26.47 25.37 24.90 24.93 26.05 25.86 26.35 26.39 29.87 29.86 28.76 24.56 25.13 25.84 27.71 28.05 28.31 28.34 29.74 31.18 29.25 28.19 27.56 27.99
41.46 39.27 38.91 38.18 37.22 37.80 36.89 31.75 31.31 31.87 32.17 33.27 33.74 34.04 33.43 31.53 29.02 27.51 26.61 25.44 24.39 24.77 25.70 26.31 25.78 26.73 23.90 27.50 28.47 27.74 26.31 24.96 24.68 25.74 26.61 28.49 28.03 29.28 29.93 27.83 27.37 26.63 27.32
38.16 38.63 38.05 37.18 37.64 38.88 36.18 31.43 31.12 31.09 33.72 33.92 33.51 32.26 31.60 30.17 28.64 26.37 25.31 24.10 23.88 23.43 18.16 17.25 20.22 22.55 24.27 24.04 27.92 28.66 26.59 25.42 25.03 25.26 25.63 26.53 28.75 29.39 30.12 29.79 28.07 27.66 28.69
37.34 37.63 36.98 36.71 38.69 34.45 32.50 30.70 29.63 33.03 33.31 32.39 31.34 30.58 30.09 29.47 28.29 25.37 24.45 24.13 22.80 19.46 17.90 14.30 16.38 20.05 19.60 25.49 27.31 28.15 27.82 27.76 26.50 25.76 27.05 27.90 29.70 30.01 30.61 30.29 29.68 30.04 29.40
35.51 36.44 36.13 36.97 36.31 32.87 32.51 31.14 30.93 32.08 31.15 30.06 29.07 28.55 28.67 27.33 26.12 24.26 23.30 22.79 21.30 17.75 16.83 20.49 17.84 20.99 23.14 23.72 27.08 26.87 27.32 28.81 27.94 28.26 28.25 28.78 27.81 27.59 27.78 28.65 29.22 28.03 28.14
34.39 35.78 36.87 35.31 33.74 31.91 31.24 30.68 31.13 30.66 29.02 27.74 27.65 27.90 26.36 25.90 24.56 24.71 24.37 22.63 17.16 16.08 21.69 19.76 20.61 22.34 22.12 22.75 23.90 25.80 27.21 28.74 28.74 26.10 25.14 24.11 24.52 22.79 23.08 25.13 25.71 26.43 27.48
34.74 36.20 36.87 35.84 33.22 31.13 30.37 31.08 30.25 29.13 28.14 27.54 27.34 26.65 25.58 23.65 24.23 24.89 23.59 22.65 21.49 19.80 19.68 18.68 23.92 20.82 19.62 22.82 27.79 27.14 27.25 28.47 27.08 25.04 21.94 21.22 20.86 21.07 21.87 22.59 23.78 25.06 26.84
36.82 36.14 36.20 32.83 32.11 30.94 30.12 30.37 30.05 28.42 27.41 27.27 26.40 23.21 21.94 20.85 23.02 22.94 23.52 27.19 26.41 27.39 27.10 27.34 24.51 23.30 25.47 27.77 27.08 27.45 28.42 27.90 27.57 24.52 19.69 18.84 19.30 19.30 20.60 20.28 20.79 22.82 23.36

GFSMW_sfc_wetblb_009.txt.gz
Wetbulb
43.77 44.72 45.09 44.69 45.04 45.43 45.94 45.21 44.80 44.87 45.01 44.44 44.04 43.44 43.87 44.57 44.87 45.43 48.34 50.61 50.42 49.77 47.27 46.33 47.15 45.95 44.51 44.12 43.68 42.44 41.59 41.16 40.90 39.80 39.60 40.20 40.78 40.84 41.28 42.23 43.24 44.08 45.99
44.02 44.92 44.46 43.40 44.64 44.79 45.22 45.32 45.86 45.57 44.93 44.14 43.91 43.96 43.15 43.54 44.25 45.00 46.12 49.37 50.37 49.88 48.22 45.97 46.29 46.43 44.88 43.60 43.25 42.45 41.24 41.15 41.25 39.23 37.65 35.69 37.90 38.72 41.84 41.63 42.56 43.03 43.94
44.09 44.77 45.24 43.83 43.31 43.76 44.45 45.30 45.59 45.32 45.29 45.26 43.92 43.38 42.89 43.00 42.67 43.69 43.37 45.85 49.43 50.60 48.72 46.61 45.84 45.44 45.72 44.55 43.01 42.30 41.42 39.80 40.59 40.52 39.12 34.89 33.32 36.73 39.32 39.61 40.84 41.11 41.61
43.93 44.68 45.07 44.77 44.48 45.02 44.52 45.03 45.51 45.42 45.99 45.47 44.26 42.84 43.67 44.02 46.53 46.15 45.70 45.81 46.12 48.02 49.53 48.41 45.89 44.95 43.39 41.61 41.25 42.34 41.15 40.36 38.07 38.33 42.23 39.78 38.57 32.34 30.85 36.23 36.99 37.74 40.04
43.20 44.22 44.89 44.42 43.59 44.52 44.48 44.77 45.85 47.04 47.04 46.71 45.78 44.80 43.55 45.14 46.22 45.61 42.87 43.62 43.68 45.84 47.25 47.78 46.08 44.11 44.26 43.14 41.31 39.74 38.08 38.39 37.88 37.33 36.26 35.72 36.27 36.54 34.44 30.35 33.03 36.11 37.17
43.68 43.61 45.06 44.71 45.30 45.16 44.92 45.39 46.36 46.75 47.60 47.08 46.50 44.80 43.33 44.15 43.53 43.84 42.95 43.87 42.01 42.03 44.07 43.99 43.55 41.87 41.06 40.37 39.17 39.60 39.39 38.54 38.12 38.97 38.72 37.59 35.23 33.53 32.06 31.12 32.17 33.30 35.84
42.39 42.90 42.17 44.52 44.85 44.26 44.20 45.07 45.03 45.28 45.32 44.88 44.85 44.90 44.16 43.32 42.95 43.26 43.38 41.84 39.19 38.07 38.72 40.07 39.18 39.18 39.75 40.32 41.42 40.99 41.73 41.53 40.59 39.32 39.67 38.86 37.73 37.07 35.27 33.88 33.61 32.47 34.06
43.71 43.31 44.46 43.87 43.52 43.65 44.41 44.38 44.76 44.96 45.31 44.60 43.77 42.73 41.92 41.98 42.98 42.56 41.23 40.08 37.83 37.28 38.47 39.54 41.43 42.23 42.30 42.78 43.10 42.81 41.38 40.92 39.91 39.18 37.83 36.84 36.27 36.36 36.20 34.72 32.34 31.69 33.00
42.85 43.26 43.79 44.11 43.80 43.90 44.25 44.15 44.43 44.77 44.59 42.65 40.41 40.35 39.11 39.39 39.68 37.58 37.46 36.86 37.20 38.79 39.04 40.66 41.53 42.26 41.89 41.89 41.89 40.68 39.40 39.13 38.53 37.55 36.32 35.03 35.49 36.09 36.72 37.48 36.24 33.57 29.29
42.69 43.21 43.61 44.20 44.94 44.61 44.25 44.24 44.32 43.80 42.98 39.41 39.63 40.01 37.90 37.32 37.11 36.37 36.15 36.35 37.47 39.35 41.31 41.87 41.75 42.32 42.13 41.07 40.22 37.92 37.52 36.44 36.14 36.18 34.43 34.40 35.43 35.58 36.08 36.46 36.31 35.55 32.88
41.86 43.03 43.89 44.47 44.42 44.39 44.14 43.60 43.53 42.95 39.86 38.40 38.71 38.32 37.31 36.04 35.11 35.10 35.38 36.43 38.23 39.45 39.11 39.41 39.79 39.59 38.68 38.26 36.86 35.46 34.97 34.44 33.79 33.78 33.62 33.20 33.90 33.53 33.43 33.95 34.37 34.07 33.69
42.75 43.73 43.98 44.53 43.85 43.65 43.53 43.00 42.64 40.77 38.96 39.24 38.57 38.11 36.64 35.10 34.06 34.68 36.00 36.93 37.52 38.25 37.46 36.89 37.07 36.81 36.44 35.89 34.79 33.45 33.47 32.23 31.28 31.71 31.48 31.53 33.63 31.70 31.94 31.58 30.81 30.81 31.26
43.39 44.33 43.94 44.86 44.31 43.97 43.45 42.75 42.75 39.00 39.35 39.75 39.35 37.56 34.53 32.75 33.30 34.95 36.50 37.39 36.97 37.01 36.49 36.37 35.46 35.35 35.15 34.14 33.20 32.61 32.34 31.56 31.21 30.97 30.38 30.33 30.20 29.23 29.32 29.43 28.99 29.17 30.76
44.06 43.88 43.97 43.28 43.38 43.75 43.13 42.37 40.85 39.88 40.26 40.12 38.58 34.40 32.62 32.63 33.13 34.52 35.53 36.17 36.99 35.81 35.93 35.45 35.33 35.00 33.10 32.34 31.80 30.95 29.45 28.56 28.65 28.87 28.57 27.74 27.52 27.46 27.55 27.99 27.42 28.02 27.33
43.53 43.16 43.62 42.93 42.99 42.56 41.93 41.50 39.97 39.83 39.77 39.70 35.79 34.03 35.99 36.66 35.29 36.93 38.25 38.29 37.97 37.55 35.26 33.18 31.46 30.81 30.38 31.02 29.94 29.09 28.34 27.94 27.42 27.78 27.66 27.74 28.87 31.54 30.65 29.42 28.31 27.71 27.08
42.90 42.97 42.81 42.95 42.67 42.34 41.13 40.06 39.56 39.21 39.87 38.99 39.64 40.27 40.63 40.93 40.56 40.24 39.20 37.83 36.88 33.73 31.40 29.58 29.01 28.00 29.67 32.39 33.28 31.80 28.50 27.78 26.74 25.61 26.48 26.90 28.97 28.20 29.82 30.14 30.90 30.07 26.67
42.75 41.72 41.68 42.24 42.20 40.95 40.43 38.68 38.56 39.32 39.11 39.19 39.64 39.67 39.90 39.96 39.27 38.94 37.30 32.80 30.15 29.23 28.05 27.77 27.50 27.20 27.70 31.08 32.01 31.73 27.86 26.79 26.27 25.94 26.11 26.50 27.73 28.48 27.53 28.62 29.54 29.94 30.63
42.32 42.24 42.72 41.46 40.69 39.99 38.64 37.38 37.89 37.91 37.77 35.10 32.90 34.72 34.45 33.65 31.70 30.41 29.19 27.74 26.99 26.38 25.61 25.82 26.64 26.43 27.50 30.16 30.13 29.92 26.66 25.09 25.61 26.13 26.38 26.30 26.26 27.15 27.53 27.37 27.05 27.49 27.93
41.76 42.08 40.77 39.53 38.42 37.06 36.27 33.11 31.57 31.52 32.20 32.79 32.61 33.05 33.74 32.21 29.74 27.99 26.55 25.80 24.66 24.95 25.04 26.25 26.27 24.94 25.09 28.17 28.39 27.61 22.36 23.20 23.72 26.28 26.75 26.49 26.28 28.13 30.11 27.51 26.53 26.57 27.22
41.50 39.31 38.78 37.80 36.38 37.02 32.00 32.54 31.69 32.48 30.82 33.68 33.06 31.66 30.73 29.45 27.75 26.59 25.43 25.69 24.92 25.07 26.00 25.21 24.84 25.18 22.63 25.99 27.92 27.47 24.71 24.51 24.53 25.73 26.31 27.73 27.10 28.52 28.93 27.43 26.93 25.40 25.92
39.03 38.80 36.85 36.19 36.68 36.15 32.68 30.67 30.19 30.26 31.67 31.91 31.74 30.72 30.59 29.22 27.31 25.90 25.37 24.31 23.70 23.39 18.05 16.82 19.12 21.30 23.32 23.06 27.33 28.13 26.51 24.90 24.65 24.61 25.56 26.88 28.66 29.13 30.04 30.31 28.69 28.43 28.11
36.48 36.02 35.35 35.58 36.12 32.09 30.95 29.07 27.97 29.95 30.54 30.37 29.78 28.95 28.35 27.62 26.73 24.67 23.85 23.47 22.42 19.82 17.76 13.66 16.29 19.49 19.26 24.85 26.40 27.48 27.50 27.46 25.51 25.44 27.61 27.51 28.31 28.39 27.63 27.37 28.80 29.24 29.34
34.92 35.16 34.74 35.83 36.92 32.83 31.05 29.99 29.71 30.64 29.68 28.38 27.62 27.57 27.62 26.64 25.31 23.90 22.89 22.59 20.97 18.26 16.63 20.69 19.50 20.54 22.67 21.63 25.40 26.08 27.13 28.18 26.83 28.45 27.18 26.95 26.52 26.08 24.82 25.83 26.97 25.72 25.90
33.17 33.94 34.58 34.88 34.28 33.61 31.78 31.87 31.07 30.18 28.30 27.46 27.11 27.33 25.76 25.02 23.98 24.44 24.46 22.64 18.73 17.12 20.86 19.62 19.49 21.46 19.87 20.61 22.02 26.23 26.34 27.72 28.59 25.79 25.05 23.36 23.81 22.13 22.54 23.89 24.85 25.36 25.49
33.39 34.95 34.88 33.80 33.48 32.41 29.84 30.76 30.37 29.42 28.35 27.73 27.02 25.75 25.19 24.04 24.44 24.38 23.54 23.38 22.13 19.03 19.33 17.46 21.40 20.05 18.88 21.17 26.63 26.35 25.96 27.14 26.76 24.46 21.54 21.19 19.44 18.77 19.94 20.79 21.36 22.28 22.82
34.23 35.17 34.31 33.13 31.00 29.98 29.07 29.38 29.84 28.72 27.58 27.42 26.24 22.83 21.50 21.03 23.18 22.31 22.78 26.65 25.69 26.96 26.34 26.55 23.47 23.37 24.54 26.24 26.45 26.58 27.09 27.04 25.43 23.15 20.37 18.47 17.31 16.25 18.47 17.96 18.08 19.07 20.38

GFSMW_sfc_wetblb_012.txt.gz
Wetbulb
42.45 42.87 43.30 44.01 45.01 45.47 45.41 45.14 45.98 46.25 44.85 43.97 43.93 43.40 44.08 44.00 44.60 45.30 46.47 48.06 49.81 50.43 49.80 48.51 47.59 47.11 45.34 45.13 43.71 42.36 41.57 40.79 41.24 40.14 39.52 40.20 41.10 40.92 41.11 42.31 43.22 44.52 45.60
42.22 44.15 43.49 42.36 44.28 45.11 45.26 44.65 44.55 44.17 43.49 43.22 42.81 42.87 42.20 42.83 43.11 44.12 44.95 45.92 47.38 49.29 49.83 48.50 47.14 46.56 46.37 43.40 42.91 41.90 40.53 40.91 40.41 38.97 37.57 36.15 37.95 38.68 41.08 41.54 42.17 42.36 44.07
43.48 42.88 43.49 42.77 42.57 43.42 43.70 44.14 44.05 43.91 43.86 44.51 43.81 43.26 42.89 43.06 42.92 44.02 43.42 45.05 45.74 47.52 48.84 49.24 48.12 46.27 46.10 45.82 44.22 42.99 41.12 41.05 39.91 40.60 38.80 34.80 33.56 35.13 38.02 39.52 39.18 41.10 39.51
42.38 43.53 43.57 42.18 42.05 43.03 43.15 43.84 44.91 45.02 45.97 45.40 44.07 42.96 41.95 41.97 44.13 44.09 44.55 45.49 44.83 44.93 47.01 48.83 47.93 46.15 45.04 44.50 41.62 42.39 41.42 39.83 38.47 39.23 41.80 38.94 38.19 31.96 31.10 35.99 39.33 38.06 38.91
42.02 41.88 41.83 42.96 43.33 43.07 43.62 44.01 45.26 45.82 45.91 45.22 44.59 43.67 44.00 45.05 44.52 44.36 43.26 43.97 44.05 43.20 44.22 45.25 45.99 43.83 42.63 42.14 43.02 39.28 38.99 39.78 38.19 37.90 36.98 36.08 36.83 36.89 33.69 30.62 33.42 36.52 37.90
41.70 43.75 42.79 44.11 43.48 43.44 43.34 43.82 44.49 45.13 45.73 45.12 45.25 43.40 41.76 41.77 41.93 42.27 42.26 42.83 42.34 41.07 40.79 42.68 41.32 39.56 38.81 38.44 39.10 40.51 40.50 40.09 40.07 39.03 38.52 37.50 35.35 35.08 34.41 33.57 33.48 32.57 36.19
41.34 41.44 41.96 42.85 43.22 43.28 43.66 44.65 44.21 44.59 45.26 46.19 43.26 41.14 40.40 39.99 39.88 40.68 41.68 41.31 40.25 36.74 36.69 37.96 38.74 39.10 39.41 40.57 41.28 41.07 41.80 41.30 40.32 40.08 39.54 40.47 38.53 38.34 36.67 35.09 33.03 32.11 33.77
42.07 42.06 42.66 42.31 42.90 43.54 43.68 43.98 44.60 44.69 44.69 43.13 40.58 40.31 40.85 39.78 39.73 39.88 39.39 38.40 36.76 36.17 38.46 39.69 40.26 40.50 40.66 41.01 42.21 42.02 41.34 40.42 38.66 37.06 37.83 38.20 38.55 38.58 37.77 36.03 33.95 31.09 31.93
41.50 42.37 43.49 43.56 43.08 43.63 44.10 43.50 43.29 43.55 43.71 41.82 39.17 39.18 39.38 39.07 38.50 37.52 36.56 35.99 36.32 38.95 39.23 39.59 39.91 40.48 42.30 42.24 41.57 40.57 38.55 38.54 38.14 37.62 37.83 37.53 37.91 37.79 37.69 37.33 36.25 33.09 28.86
42.47 42.90 43.33 43.88 44.78 44.31 43.80 43.42 43.09 42.91 43.05 39.39 39.39 40.44 39.49 39.86 37.42 35.76 35.59 35.19 37.08 39.09 39.25 39.50 39.17 39.06 39.42 40.82 40.91 40.00 39.49 38.18 37.72 37.20 36.13 35.42 35.88 35.87 36.04 36.12 36.16 35.02 33.00
41.93 42.63 43.41 43.92 43.92 43.50 43.72 43.40 42.97 42.46 42.55 38.93 38.80 38.64 40.30 39.47 36.23 33.95 34.49 35.74 37.40 38.62 38.02 38.35 38.25 38.68 38.02 38.23 37.02 36.03 35.45 34.55 34.20 34.06 33.31 32.69 33.10 32.76 32.99 33.06 33.29 32.87 32.74
42.12 42.45 43.09 43.55 43.39 43.57 43.49 43.18 42.32 42.35 40.80 38.82 39.61 39.54 39.04 35.75 33.42 33.29 34.33 35.39 36.30 36.97 36.84 37.27 36.62 36.00 35.47 35.28 34.63 33.40 33.08 32.16 31.03 30.96 30.65 30.67 32.88 31.23 31.75 31.29 30.36 30.71 31.04
42.26 42.85 43.88 43.39 43.44 43.15 42.98 43.10 42.67 41.55 39.59 39.72 39.21 38.31 34.87 32.02 31.91 33.16 34.38 35.92 36.05 36.85 36.77 36.77 36.49 35.66 35.55 34.28 32.96 31.47 30.91 30.26 29.97 29.59 29.10 29.03 29.14 28.06 28.62 28.99 28.73 28.93 30.61
42.63 43.69 42.90 42.98 43.09 42.91 42.78 42.61 41.81 40.38 39.72 39.29 38.21 34.57 32.73 31.62 32.28 34.32 36.48 37.14 37.41 37.44 37.13 35.97 34.80 33.23 31.45 31.16 30.85 30.75 29.69 28.72 28.77 28.80 28.14 27.58 27.21 26.68 26.56 27.01 27.02 27.70 27.39
42.46 42.01 41.74 43.45 43.05 43.55 43.56 41.88 40.88 39.50 39.22 38.99 37.31 35.83 36.71 36.56 37.25 37.34 37.54 38.31 37.56 37.76 35.47 32.52 31.29 30.64 30.09 30.50 29.98 29.37 28.51 27.85 27.78 28.21 27.96 27.88 28.67 30.81 30.07 28.30 27.46 27.14 26.96
41.14 41.74 41.75 41.03 41.45 42.78 40.70 40.15 39.69 38.92 39.65 38.86 38.13 40.80 40.96 40.07 38.49 38.97 38.66 38.14 38.12 37.78 32.75 28.72 27.94 27.36 29.10 31.72 32.49 32.28 28.96 28.72 27.85 26.30 26.39 26.61 28.55 28.09 29.47 29.84 30.23 29.60 26.72
41.09 39.07 39.81 41.03 42.61 41.01 39.99 39.03 38.08 38.07 38.23 36.55 36.30 37.40 37.64 36.14 35.40 36.31 34.54 30.46 28.45 27.64 26.70 26.68 26.92 27.02 27.44 30.42 30.81 30.64 27.94 27.15 26.55 25.48 25.51 26.02 27.36 28.15 27.56 28.36 28.81 28.80 29.42
39.76 40.12 40.21 41.34 39.33 38.75 37.65 36.11 33.26 33.41 32.94 32.57 33.30 34.51 34.19 34.02 32.18 29.52 27.75 27.03 27.03 26.32 25.66 25.77 26.64 26.00 26.13 28.96 28.96 28.98 25.98 24.84 24.93 25.39 25.56 25.54 25.74 27.12 27.25 27.42 27.29 27.38 27.81
40.09 40.08 39.61 38.77 37.62 36.20 32.78 30.29 30.69 30.89 32.01 33.09 33.47 32.19 29.96 29.17 28.78 27.38 26.39 26.03 25.36 25.07 25.23 26.77 25.77 24.47 24.24 27.33 28.11 27.69 22.94 22.73 23.36 25.53 26.29 26.41 26.49 28.14 29.39 27.40 26.53 26.79 27.31
40.86 39.26 37.87 36.99 36.21 36.46 31.57 33.99 32.35 31.19 30.10 30.83 29.84 29.62 28.96 27.72 25.99 24.97 24.35 24.96 24.57 25.26 26.31 24.57 24.06 24.35 22.29 25.52 27.84 27.26 24.42 23.52 24.71 24.92 26.40 27.38 27.21 28.65 29.56 28.14 27.06 25.56 26.84
38.83 38.22 36.08 35.03 35.98 36.48 33.24 30.90 29.15 28.75 30.10 30.31 29.94 28.58 28.10 26.65 25.01 24.33 24.18 23.57 23.05 23.62 18.55 16.53 18.75 21.08 23.00 22.57 27.04 27.46 25.81 25.07 24.85 25.31 25.18 26.45 28.68 28.46 28.44 28.15 25.77 25.61 27.67
36.82 36.38 34.54 34.47 36.34 36.74 31.53 29.09 26.95 30.26 30.91 29.71 27.57 27.00 27.04 26.55 25.70 23.92 23.72 23.46 22.05 19.80 17.86 13.88 16.47 19.26 18.09 24.62 25.43 26.40 26.86 27.39 26.21 25.26 26.75 27.06 27.26 27.12 26.63 25.71 26.44 26.93 26.93
34.66 34.74 33.73 34.43 35.41 34.27 31.28 32.62 33.59 32.41 29.59 27.63 26.43 26.49 26.92 26.26 25.20 23.72 22.69 22.67 20.98 17.67 17.37 20.60 19.73 20.36 22.07 20.93 24.26 25.00 26.70 27.27 25.88 27.76 28.48 26.27 25.35 24.75 23.64 25.02 25.79 24.95 24.71
33.28 33.19 33.17 33.86 33.30 34.19 32.65 30.01 29.56 29.38 27.12 26.91 26.47 26.30 25.12 25.20 24.20 24.82 24.25 22.89 18.76 17.26 20.35 19.52 19.08 20.83 19.99 20.03 21.44 25.00 24.98 26.58 27.89 26.54 26.11 24.31 24.02 20.93 21.03 22.28 22.88 22.90 23.97
32.86 33.37 33.82 32.70 32.71 32.85 31.39 29.15 29.22 28.76 27.45 27.20 26.69 26.01 25.20 24.11 24.82 24.90 23.01 22.89 22.05 19.20 20.47 17.53 17.75 19.50 18.80 21.08 25.75 25.32 24.63 25.76 25.36 25.35 22.99 20.93 19.67 18.51 19.63 20.00 20.07 20.73 21.50
32.83 32.98 33.37 32.26 32.53 30.39 28.84 28.62 28.52 27.93 26.71 27.07 26.31 21.85 21.20 20.34 22.31 22.07 22.33 26.06 25.22 26.28 25.72 25.55 22.10 22.62 23.90 25.42 25.70 25.50 25.70 25.47 24.26 21.73 18.88 17.91 16.81 15.79 17.93 17.81 17.27 17.78 18.44

GFSMW_sfc_wetblb_015.txt.gz
Wetbulb
49.40 49.79 50.00 51.06 52.32 54.04 55.44 56.58 55.70 55.31 55.29 54.26 53.09 53.37 53.02 53.31 53.74 54.00 53.73 53.88 54.17 54.76 55.54 55.64 56.12 56.10 54.94 54.86 54.63 53.64 52.50 50.96 50.69 48.98 49.37 49.77 50.60 50.58 50.57 50.74 50.15 50.34 51.23
49.11 48.92 49.95 50.90 51.31 52.87 53.56 52.37 51.17 51.01 50.90 51.62 52.01 51.97 51.59 52.18 51.77 52.55 53.36 53.67 53.26 53.37 53.24 54.19 54.12 54.57 53.69 54.40 53.86 52.41 51.20 50.43 50.96 48.38 48.18 45.27 47.78 48.40 49.34 49.65 49.37 49.17 50.32
49.42 49.35 49.86 50.72 50.83 50.61 50.15 50.02 50.37 50.88 51.60 51.52 51.99 52.38 52.44 52.76 52.26 52.58 52.34 52.94 53.01 52.68 52.47 52.61 52.78 53.18 53.31 52.18 53.73 53.14 51.25 50.32 50.25 49.83 48.04 44.84 43.21 46.76 47.76 47.82 48.08 47.94 46.73
49.24 49.43 49.66 49.79 49.86 49.71 51.37 51.82 51.96 52.22 51.79 52.20 51.51 50.39 49.17 48.19 49.91 50.23 50.83 51.14 51.95 51.69 51.46 51.10 51.31 51.92 52.38 51.62 51.61 51.91 50.82 49.82 48.38 47.75 47.46 47.17 45.53 43.49 42.85 44.22 45.25 46.34 44.73
47.75 48.06 48.42 49.03 49.11 50.27 50.63 51.34 51.73 51.56 51.31 51.11 49.92 49.25 48.74 49.03 49.27 49.27 48.83 49.49 50.34 50.66 49.71 49.05 49.27 49.84 50.51 50.40 49.52 49.63 48.35 48.32 48.09 46.05 45.28 43.99 43.81 43.99 40.87 40.42 42.13 42.10 43.82
47.37 47.39 48.96 49.60 49.75 51.01 51.13 51.44 51.18 51.12 51.58 51.34 49.41 48.56 48.00 47.67 47.68 47.97 47.66 48.04 48.00 48.11 46.74 46.86 46.97 46.74 46.04 45.70 46.00 45.79 45.09 44.56 44.29 44.23 43.17 42.46 40.32 39.97 39.81 37.29 37.04 38.25 42.43
47.47 47.70 48.07 48.93 49.66 50.08 50.62 50.72 50.67 50.20 50.60 50.27 48.05 47.77 47.72 47.87 47.15 47.16 46.85 46.21 45.61 45.84 44.41 45.14 45.45 45.45 45.78 45.74 45.56 43.91 42.18 40.76 39.42 38.54 38.23 37.78 36.82 37.15 36.78 36.19 36.58 36.61 40.56
47.30 47.66 47.82 48.72 49.25 49.52 49.83 50.37 49.73 49.47 50.00 49.62 48.34 47.20 48.27 47.43 46.71 46.19 45.58 44.30 43.76 43.88 45.01 45.30 45.62 45.72 46.11 45.95 44.15 41.76 40.84 39.62 38.68 37.63 37.82 37.46 37.74 38.23 37.98 36.93 35.60 34.09 36.32
47.02 47.83 48.59 49.23 49.81 49.62 49.51 49.36 49.11 48.95 49.07 48.99 47.38 46.74 46.80 46.62 45.76 45.60 44.51 42.99 43.12 43.94 45.12 46.11 45.92 45.08 44.60 43.68 42.68 41.67 39.11 38.96 38.89 39.10 39.28 38.65 38.62 40.01 40.24 39.40 38.12 34.89 31.28
47.49 48.68 49.48 49.77 49.81 50.00 49.47 49.20 50.21 48.62 48.73 48.69 46.52 45.94 45.98 45.85 45.27 43.64 41.84 41.82 43.04 44.68 44.99 44.77 43.66 43.52 43.28 43.18 42.78 42.81 42.36 41.09 40.68 40.17 39.74 39.33 39.21 39.82 39.21 38.33 38.09 37.78 34.88
47.91 48.66 49.04 49.57 49.54 49.23 49.73 49.47 49.06 48.23 47.99 47.18 45.40 45.50 45.12 44.19 41.60 40.25 40.66 41.57 43.64 43.43 42.15 41.48 41.26 40.97 40.23 40.60 40.66 40.53 39.96 39.58 39.44 39.46 38.65 37.96 38.29 37.54 37.51 37.71 37.43 36.19 35.64
47.78 48.26 48.50 48.66 48.79 48.99 49.01 48.62 48.81 47.77 46.40 44.91 44.94 44.44 42.77 39.98 39.06 39.46 40.46 41.06 40.53 41.02 41.11 41.39 40.46 39.10 40.09 39.46 38.09 37.06 37.35 36.58 35.97 36.32 36.24 35.51 35.65 35.94 36.36 36.06 35.33 35.40 35.97
47.60 47.95 48.01 47.70 47.76 47.40 47.34 47.60 47.34 46.08 45.21 44.72 43.97 41.63 39.48 38.49 38.50 40.56 41.56 41.91 41.69 41.76 41.23 40.18 38.89 37.58 36.54 35.93 35.87 35.43 35.23 35.24 35.15 34.84 34.34 33.82 33.68 32.90 33.34 33.46 33.02 33.42 33.57
46.52 46.96 46.78 46.22 45.49 45.49 45.39 45.22 45.04 45.04 44.18 43.26 42.44 40.44 39.44 38.62 40.69 41.62 41.68 41.70 41.55 40.95 40.58 39.34 37.12 35.53 34.60 34.13 34.18 34.19 34.16 34.29 33.92 33.75 33.19 32.76 32.03 31.61 31.54 31.35 31.53 31.74 31.55
45.63 44.72 43.14 43.01 43.59 44.05 44.44 43.95 43.88 43.42 43.16 42.84 42.06 41.33 41.26 41.27 40.85 40.60 39.88 40.61 40.42 40.28 40.64 37.87 34.27 33.52 32.99 33.00 33.57 33.49 33.22 32.75 32.38 32.80 32.23 32.04 31.73 30.99 30.99 30.72 31.18 31.42 30.31
42.32 42.07 41.83 42.10 42.50 43.16 41.89 41.55 41.72 41.77 41.61 40.51 39.59 38.40 38.22 38.56 38.79 39.37 39.97 39.63 37.82 34.96 33.64 32.62 31.87 31.83 31.53 31.02 31.38 31.38 31.39 31.00 30.27 29.70 30.19 30.43 30.32 30.34 29.65 29.71 30.04 30.50 28.81
40.00 39.50 40.03 41.50 42.68 41.71 40.81 40.43 40.03 40.23 38.62 37.91 37.60 37.79 38.75 38.06 37.28 36.04 35.01 33.77 33.08 32.92 32.30 31.93 31.82 31.36 31.37 29.51 29.85 29.56 29.96 29.65 29.21 28.86 28.92 29.03 29.65 30.05 30.40 29.61 28.89 28.94 29.29
38.13 39.82 40.91 42.25 41.65 40.70 40.83 38.65 37.63 37.60 36.90 36.86 37.54 37.87 35.66 34.05 33.85 33.67 32.81 32.31 32.20 31.45 31.17 31.23 31.30 30.37 29.99 28.35 28.40 28.51 29.89 29.49 29.10 29.09 29.37 28.93 28.95 29.35 27.99 28.18 28.75 29.36 30.15
40.57 41.22 43.00 41.54 40.18 40.11 39.79 35.78 35.80 36.04 36.19 35.66 34.75 34.11 33.73 32.90 32.69 31.70 31.08 31.33 30.83 30.66 30.51 30.45 29.43 28.94 29.07 27.82 27.60 28.27 28.87 28.30 27.99 28.89 29.15 29.46 28.47 28.95 29.78 28.73 28.35 29.09 29.67
41.34 41.90 41.99 40.12 39.26 40.62 40.38 37.72 36.99 36.30 33.96 34.32 34.10 33.74 33.03 32.15 31.18 30.72 30.47 30.57 30.59 29.74 29.71 28.26 29.02 27.96 27.80 27.22 27.19 27.86 27.85 26.82 26.92 28.45 29.07 28.73 28.87 28.78 29.20 29.37 28.21 26.89 27.79
40.52 42.28 40.13 38.53 39.10 40.29 39.90 37.03 34.45 33.11 34.58 34.37 33.27 32.53 32.20 31.59 31.34 30.48 30.77 30.15 29.62 28.80 27.95 27.34 27.90 27.58 27.13 27.24 26.65 26.65 27.34 26.55 26.74 27.24 28.06 29.48 29.37 28.43 27.87 27.42 27.27 26.55 27.74
40.03 40.81 38.37 37.94 39.31 39.91 37.21 35.03 34.66 36.50 36.55 34.00 32.44 31.82 31.84 31.23 30.25 30.11 30.13 29.37 29.07 28.00 27.23 26.79 27.31 27.72 27.35 26.25 25.83 25.97 26.63 27.04 27.15 26.95 28.50 30.01 26.95 26.43 25.63 25.82 26.04 26.55 26.58
39.80 39.36 37.64 37.30 38.74 39.10 38.03 35.32 37.34 37.67 36.47 33.20 32.16 31.81 31.44 30.78 30.58 29.76 29.75 28.51 28.55 27.40 26.49 25.86 25.45 25.35 26.35 26.58 25.46 25.87 26.38 26.29 27.09 28.71 28.01 26.54 25.59 24.74 24.65 24.11 24.49 25.16 26.12
38.04 38.24 37.07 36.75 37.66 38.94 37.39 37.54 36.73 34.71 33.29 32.11 31.86 31.78 30.75 30.45 31.01 30.42 29.93 28.32 27.82 26.97 25.53 24.80 23.69 23.91 24.10 24.79 25.89 26.60 26.82 26.30 27.57 27.04 27.20 25.19 24.18 23.75 24.10 24.79 24.99 25.43 25.43
37.24 37.20 36.55 36.73 37.52 37.87 36.68 36.17 34.26 33.38 31.98 31.50 31.12 30.92 30.46 29.36 29.07 28.89 28.51 28.03 28.42 26.56 25.58 24.65 24.13 22.80 22.17 23.52 25.85 25.45 24.94 25.85 25.20 25.85 24.78 22.70 22.00 22.33 22.69 23.47 23.36 23.99 24.51
36.23 35.87 36.11 35.27 33.80 33.57 32.45 32.72 32.71 32.31 31.65 30.52 30.48 30.23 29.43 29.36 28.06 27.30 27.02 27.34 25.94 25.89 25.54 24.85 24.34 24.24 23.73 24.58 24.63 24.16 24.20 24.00 23.24 22.57 20.30 19.68 20.23 20.42 20.81 21.04 21.09 22.72 22.28

GFSMW_sfc_wetblb_021.txt.gz
Wetbulb
60.15 59.48 59.47 60.11 61.37 62.94 63.73 64.45 64.17 62.41 61.80 61.16 59.12 58.85 58.63 59.23 59.40 59.81 60.18 60.04 59.50 58.99 58.65 57.85 58.01 58.36 56.83 58.21 59.21 58.65 58.21 57.93 59.42 57.76 57.53 58.06 58.53 58.12 56.90 57.47 56.57 55.92 55.77
56.26 57.48 58.68 59.70 59.98 59.74 60.07 59.66 59.23 58.72 58.83 59.30 58.53 58.85 58.68 58.85 59.17 59.74 59.13 58.78 57.61 56.99 56.27 56.50 55.59 56.99 55.55 57.05 57.41 57.55 55.84 56.71 58.12 55.65 55.24 52.21 54.12 57.01 57.24 56.78 56.52 56.94 56.35
54.70 55.73 56.92 58.20 59.12 58.58 58.54 58.33 58.46 58.54 58.56 58.70 58.92 58.50 58.67 58.66 57.34 57.07 57.05 57.52 57.38 56.21 55.34 55.32 54.72 55.19 55.69 54.57 56.04 55.93 54.99 53.39 55.28 56.91 53.95 49.87 48.78 52.56 55.98 56.17 55.52 56.01 56.32
55.16 55.84 56.17 56.80 57.72 58.02 58.77 58.37 58.06 57.83 57.91 58.04 56.75 56.25 55.33 54.50 56.18 56.63 57.05 56.35 56.53 55.52 54.63 53.90 53.64 53.68 53.95 54.19 54.32 53.59 53.61 53.35 51.18 53.39 53.33 53.24 52.51 47.21 47.17 53.64 53.17 53.85 53.00
55.01 55.18 55.80 56.62 57.35 58.25 58.51 58.49 57.79 57.26 57.38 57.04 56.43 55.93 55.09 55.49 55.83 54.78 54.04 54.16 53.87 53.66 52.76 52.84 53.14 52.36 52.40 52.77 52.54 51.92 50.89 50.57 49.13 47.59 46.28 47.22 49.15 49.24 43.34 43.03 48.11 49.91 51.49
54.79 55.16 55.79 56.38 57.04 58.19 58.08 57.83 57.18 56.88 57.09 57.12 56.58 55.21 53.90 53.22 52.41 52.49 51.70 51.45 51.58 51.57 51.98 51.37 51.80 51.77 51.84 51.35 49.84 48.14 46.21 45.17 44.80 43.58 41.53 39.61 38.15 37.91 36.66 36.89 38.27 37.16 44.42
54.68 54.80 54.96 55.46 55.81 56.18 56.85 57.16 56.77 55.91 56.45 55.60 55.06 54.62 53.73 53.28 52.35 51.74 50.86 49.97 49.28 49.26 49.61 50.34 50.66 50.58 50.09 48.19 47.40 46.23 45.65 44.00 41.59 41.45 41.26 40.80 39.33 38.53 37.64 36.44 36.74 36.75 39.25
53.76 53.85 54.41 55.01 55.70 56.04 56.70 56.55 56.15 55.72 55.83 55.86 55.18 54.80 54.74 53.07 52.25 51.41 50.20 48.63 48.06 48.44 49.70 49.92 50.03 48.41 48.01 47.02 46.19 45.64 44.51 44.52 43.70 42.01 42.08 41.79 42.07 41.61 40.11 37.95 36.46 34.88 36.78
52.77 53.70 54.56 55.32 55.58 55.60 55.79 55.99 55.64 54.92 54.81 54.84 54.81 53.89 53.03 52.09 50.74 49.83 48.38 47.64 48.18 47.90 48.80 49.01 47.64 47.22 45.68 45.10 44.44 44.02 43.74 43.61 43.36 43.13 42.69 41.45 41.79 41.91 41.09 39.45 37.90 35.15 31.89
52.86 53.72 54.12 54.63 54.94 54.99 55.42 55.80 54.92 53.88 53.35 52.69 52.58 51.93 51.10 51.04 49.39 47.95 47.06 47.00 47.55 48.11 47.19 46.84 46.12 44.49 44.37 43.92 43.62 43.17 43.29 42.37 42.60 42.45 41.79 41.67 42.22 41.63 41.49 40.63 40.04 38.13 34.88
52.60 52.93 53.01 53.20 54.19 54.27 53.90 53.51 53.07 52.50 51.61 51.57 51.13 50.14 49.25 48.72 47.68 46.79 46.58 46.64 46.79 45.97 45.29 44.99 43.91 43.89 42.80 42.58 41.98 41.43 41.19 40.85 41.18 41.61 40.71 40.57 41.29 40.76 40.54 40.23 39.73 39.08 38.99
52.32 51.80 52.01 52.39 52.22 52.15 52.42 51.78 51.46 50.52 50.36 49.79 48.80 47.92 48.16 47.69 47.00 46.26 45.98 45.82 44.46 45.10 44.93 44.16 42.52 42.10 41.67 41.68 40.73 40.04 39.83 39.01 38.75 39.10 39.15 39.05 39.06 38.98 39.03 38.59 37.61 37.94 38.49
51.20 51.20 51.08 50.89 50.54 50.88 50.99 49.82 49.77 49.02 48.35 47.52 47.09 47.08 47.03 46.66 45.45 45.19 45.19 45.04 44.69 44.51 44.28 43.79 42.44 41.66 41.34 39.98 39.56 39.00 38.19 37.79 37.66 37.64 37.36 37.30 37.14 36.50 37.16 37.12 36.80 36.85 36.50
49.08 49.54 50.31 50.10 50.15 49.32 48.59 48.52 48.19 47.53 46.89 46.65 46.09 45.44 45.22 43.37 43.97 44.49 44.11 43.15 43.31 42.30 41.81 41.45 40.53 40.03 39.27 38.77 38.52 37.80 36.64 36.51 36.68 37.02 36.98 36.80 36.43 35.93 35.65 35.39 35.32 35.09 34.51
48.64 49.26 48.28 48.33 47.67 46.86 47.61 47.86 46.90 46.71 46.18 45.20 44.84 44.57 43.96 43.25 42.62 42.73 42.18 41.72 41.52 40.51 40.02 39.46 39.23 39.01 38.49 37.52 36.13 35.10 34.16 34.11 34.59 35.41 36.00 36.55 36.69 34.43 33.96 33.03 32.53 32.31 32.07
47.85 46.27 45.31 46.14 45.55 45.95 46.92 46.18 45.86 45.37 45.31 44.31 43.84 44.15 43.22 41.85 41.50 41.05 40.63 40.27 39.23 39.04 38.97 38.32 38.09 37.75 37.45 30.86 30.43 30.84 32.25 32.25 32.80 33.12 34.56 35.61 35.64 35.33 34.13 33.36 32.75 31.93 29.63
44.34 42.94 44.17 45.29 45.61 46.48 46.55 45.20 45.38 45.55 44.33 43.54 43.64 42.67 41.30 40.41 40.05 39.84 38.93 38.16 38.07 38.28 37.56 37.50 37.38 36.55 36.74 30.41 30.30 30.07 31.76 30.98 32.02 33.06 33.54 33.56 34.77 34.20 34.04 33.40 32.14 31.73 31.75
43.86 45.20 45.47 45.40 45.82 46.62 46.79 46.07 45.23 44.65 43.90 43.41 42.78 41.86 40.84 39.42 39.50 38.63 37.91 37.63 37.68 37.07 36.76 36.60 36.41 35.71 35.27 31.14 29.98 29.43 30.90 31.17 31.64 32.16 32.24 32.05 31.97 32.81 31.47 30.84 30.74 31.15 31.93
45.85 45.79 45.80 45.29 45.37 45.91 46.41 45.39 44.36 44.04 42.92 42.08 41.43 41.23 39.97 39.64 38.85 37.35 37.23 37.42 37.03 36.61 36.32 36.10 35.09 33.54 33.80 32.54 30.20 29.47 29.45 29.21 29.09 29.91 30.99 30.81 30.32 31.33 31.43 30.21 29.64 29.76 30.91
46.21 45.28 45.53 45.06 45.01 44.95 45.05 44.35 43.37 43.13 41.82 41.49 41.25 40.74 40.08 39.05 38.10 37.49 37.16 37.35 36.98 36.12 35.69 34.43 33.63 31.99 31.51 32.13 30.33 29.51 29.28 27.51 27.96 29.09 29.43 29.94 30.36 30.35 30.60 30.46 29.88 28.30 28.38
45.26 45.55 45.24 44.34 44.27 44.48 44.11 42.60 42.30 41.53 42.26 42.37 41.72 41.08 40.45 39.11 38.36 37.45 37.70 36.83 36.36 36.03 34.69 33.48 33.43 32.65 32.72 31.61 30.61 29.28 28.67 27.85 27.85 27.61 28.62 30.50 29.20 28.46 28.34 28.32 28.02 27.37 28.77
44.13 44.64 43.78 43.34 43.65 43.55 42.50 41.34 41.03 42.30 43.14 42.74 41.49 40.66 39.50 38.24 37.68 37.02 36.90 36.33 35.44 34.03 32.84 32.26 31.75 31.84 32.61 30.61 30.15 28.01 27.51 28.06 27.25 26.97 29.22 30.48 28.47 27.71 27.33 27.12 27.48 26.69 26.63
43.14 43.39 42.30 41.73 41.90 41.80 41.43 39.73 40.63 41.67 40.85 40.67 39.60 39.22 38.83 37.57 37.66 36.43 35.59 34.49 34.11 32.51 30.02 28.52 28.80 28.64 30.63 30.52 29.36 27.38 27.04 26.78 27.10 28.88 27.87 27.80 27.97 27.48 27.40 28.67 26.95 26.86 28.28
40.74 41.34 40.82 39.90 39.41 40.48 40.34 39.88 40.16 39.34 38.10 36.84 37.24 38.00 37.02 36.28 36.95 36.16 35.51 33.80 32.35 29.69 28.13 27.34 26.61 27.10 27.28 28.08 27.49 26.82 26.96 25.96 26.42 26.08 26.53 28.49 27.40 27.58 28.77 28.89 28.76 29.23 29.13
40.24 40.21 39.51 39.12 39.15 39.75 39.40 39.91 38.54 37.93 35.84 35.92 35.96 35.98 36.24 35.77 34.76 34.39 34.36 32.41 32.17 29.47 27.61 26.77 25.87 24.57 23.70 24.79 24.89 24.89 24.74 24.81 24.17 24.33 27.40 25.95 24.52 24.33 25.67 27.13 27.33 27.89 27.37
39.61 39.52 39.40 39.19 39.17 39.20 38.61 37.46 37.67 36.63 35.05 33.44 33.98 34.71 35.13 34.34 32.63 32.21 31.48 29.25 28.05 26.51 25.72 24.28 24.58 25.36 24.10 23.77 23.94 23.86 23.82 23.69 23.56 24.70 23.53 22.72 22.68 22.86 23.49 23.81 24.55 25.60 25.32

GFSMW_sfc_wetblb_024.txt.gz
Wetbulb
57.64 58.55 59.90 60.70 61.50 63.25 62.42 62.58 60.77 61.14 60.22 59.63 57.49 57.37 56.98 57.75 57.72 58.30 59.12 58.02 57.92 56.54 55.54 54.79 54.36 54.26 53.40 53.45 53.70 52.67 51.46 51.84 52.91 52.64 52.31 53.02 54.35 54.81 55.03 53.68 51.95 51.96 52.53
55.85 57.35 57.97 58.46 58.58 58.61 58.98 58.93 58.53 58.47 58.01 57.60 57.13 57.17 56.85 57.43 57.42 57.98 56.78 57.69 56.57 55.77 54.73 53.45 52.49 52.40 51.64 51.15 51.10 50.79 50.67 50.65 51.27 50.27 49.55 46.67 49.28 51.58 53.07 54.39 53.44 51.89 53.00
54.19 55.62 56.68 57.26 57.72 57.44 57.82 57.57 57.77 57.74 57.64 57.43 57.13 56.53 56.46 56.74 55.43 55.40 55.23 56.57 55.84 54.79 54.75 53.86 52.87 51.50 50.87 49.52 49.40 49.55 48.81 48.02 49.24 50.10 48.05 44.41 43.04 46.44 49.67 50.68 51.33 52.66 52.52
54.67 55.25 55.85 56.22 56.75 57.26 58.29 57.80 57.71 57.35 57.15 56.85 55.47 55.24 54.12 53.00 53.89 54.26 53.69 54.25 54.81 53.54 52.09 51.39 50.94 50.46 50.30 48.82 49.16 50.51 48.61 47.28 45.13 46.70 46.05 44.38 44.06 42.51 42.24 45.82 48.21 49.39 49.06
54.72 54.61 55.08 55.93 56.71 57.84 57.78 57.82 57.41 56.90 57.10 56.54 56.36 54.64 53.13 52.83 52.81 52.50 52.01 51.20 51.76 51.14 50.72 49.92 48.91 49.23 49.09 48.92 48.21 46.33 44.84 44.24 42.69 41.90 41.26 40.52 40.75 40.71 39.45 37.66 39.71 41.64 42.53
54.32 54.72 55.75 56.67 56.45 58.11 57.61 57.64 56.70 56.49 57.03 55.72 55.16 53.58 52.17 51.79 50.53 50.61 49.63 49.36 49.01 48.59 48.53 48.97 48.23 48.33 48.47 48.24 47.17 46.31 43.67 44.09 42.66 41.66 40.08 38.16 37.09 36.60 35.12 34.71 34.09 35.10 38.84
54.35 54.36 54.31 54.61 55.65 56.01 56.71 56.63 56.15 55.15 55.83 55.60 55.22 54.47 53.18 52.99 51.22 49.48 48.30 46.91 46.06 45.92 45.92 47.07 47.35 47.34 47.64 46.48 45.53 44.30 43.77 43.30 39.61 38.86 38.28 39.01 38.71 37.16 36.28 36.41 35.69 35.38 36.52
54.40 54.71 54.94 54.94 55.18 55.90 55.68 55.70 55.27 54.27 54.18 54.38 52.90 52.90 52.43 50.96 49.45 48.50 46.88 45.45 45.15 45.24 46.44 47.31 47.19 47.19 46.87 45.58 44.69 44.14 43.68 42.61 41.98 40.15 41.15 39.99 40.91 39.55 38.41 36.53 34.73 32.49 32.10
53.42 53.57 54.44 55.01 54.91 54.82 54.56 54.55 54.07 53.39 53.24 52.62 52.37 51.79 50.71 49.88 48.26 47.25 45.99 45.10 45.17 45.75 45.80 45.90 46.04 44.49 43.30 44.33 43.56 42.38 41.85 41.39 42.67 41.94 41.64 40.70 40.47 40.49 39.97 38.02 36.20 33.94 28.84
52.96 53.07 53.17 53.38 53.78 53.83 53.97 54.16 52.72 51.58 51.61 51.02 50.19 49.42 48.84 48.34 47.07 45.83 45.16 44.78 44.93 44.96 44.45 44.18 43.49 43.41 43.99 42.76 42.36 41.64 41.06 41.59 40.66 40.53 39.92 40.13 40.62 41.10 40.58 39.77 38.88 37.49 33.83
51.83 52.27 52.50 52.73 53.09 53.45 53.24 51.74 50.70 50.36 49.63 48.81 48.23 47.04 46.83 47.06 46.31 45.53 44.88 44.86 44.39 43.79 43.58 43.62 43.25 42.72 41.93 41.45 40.62 40.32 39.73 38.68 37.51 38.49 38.56 38.35 38.83 38.31 38.76 38.50 37.84 36.55 36.06
51.69 51.20 51.41 51.87 51.35 51.50 51.08 50.24 49.57 49.07 47.95 47.32 46.61 45.99 46.35 45.87 44.44 43.83 43.59 43.89 43.65 44.26 43.33 42.65 41.94 41.62 41.02 40.61 39.61 37.98 37.57 36.97 35.97 36.15 36.56 36.53 37.89 36.04 35.78 35.30 34.26 33.88 33.57
50.41 50.42 50.70 50.41 49.74 49.87 49.50 48.95 48.54 47.79 47.01 46.17 45.13 44.78 44.65 43.66 42.14 42.38 43.19 42.94 42.52 41.84 41.24 40.58 39.20 38.86 38.54 37.76 36.41 35.94 35.39 33.93 33.51 33.72 33.55 34.20 34.39 33.13 33.46 33.78 33.33 33.13 34.49
49.57 49.55 48.89 48.65 48.68 48.59 47.52 47.35 47.51 47.00 46.22 45.05 44.17 43.66 43.57 42.30 41.71 42.15 42.12 41.70 41.32 40.06 38.65 38.19 38.05 37.86 37.09 36.79 36.38 35.47 33.02 32.02 31.96 32.49 32.54 32.80 32.85 32.15 31.93 31.83 30.54 31.28 29.34
48.68 47.42 46.74 46.73 46.59 46.28 46.30 46.67 46.95 45.78 45.80 43.96 43.46 42.77 43.34 42.49 41.66 41.26 41.26 40.72 40.27 38.72 37.93 37.13 36.89 36.74 36.36 34.43 32.28 32.07 30.97 30.11 29.88 30.30 31.63 32.45 34.15 36.23 33.73 31.51 28.97 28.32 27.28
46.45 45.84 45.17 45.75 45.67 45.80 45.43 46.42 45.74 45.14 45.27 43.69 42.82 43.39 42.91 41.87 41.05 40.70 40.37 39.11 37.65 36.94 36.65 35.86 35.69 34.89 36.24 31.49 31.28 30.06 28.33 29.73 29.18 27.89 29.46 31.42 33.84 33.62 34.67 34.35 34.14 31.37 27.24
44.53 44.80 45.08 45.76 45.24 45.01 45.23 44.36 45.27 45.42 44.28 43.45 43.51 43.40 42.64 41.24 40.21 39.81 39.00 36.65 35.67 35.57 34.88 34.63 34.62 33.78 33.53 31.73 31.23 30.49 28.49 28.17 28.00 27.94 28.49 29.50 32.09 31.48 30.93 30.46 31.79 31.56 32.39
44.70 45.32 45.47 45.00 44.86 44.43 44.30 45.04 45.37 44.59 43.94 43.06 42.27 42.57 41.93 40.33 39.50 38.93 37.32 35.85 35.18 34.18 33.68 33.68 33.89 32.27 32.85 33.38 32.14 30.45 27.45 26.56 26.75 27.35 26.89 26.72 27.48 28.51 29.27 28.46 27.83 28.62 29.26
45.23 44.87 45.18 44.96 44.80 44.39 44.16 43.20 42.57 42.49 42.55 42.37 41.49 40.56 40.98 39.67 39.09 37.85 35.71 34.97 34.35 33.64 33.41 34.06 32.39 31.02 30.36 32.75 32.74 30.76 27.05 26.77 26.03 26.71 27.10 27.44 26.75 29.36 30.88 28.87 27.59 27.72 28.25
44.82 44.27 44.86 44.67 44.30 43.71 43.24 41.71 40.83 40.69 40.68 40.92 41.35 41.20 40.95 39.57 38.14 37.36 35.78 35.07 34.91 34.30 33.76 32.04 31.81 32.35 29.63 32.97 32.47 31.14 27.64 24.51 25.54 25.79 27.02 29.05 28.82 29.07 28.77 27.69 27.36 26.16 26.18
43.63 43.76 43.23 42.38 42.27 42.59 41.70 39.60 39.30 38.61 39.98 40.97 41.25 40.90 41.09 39.08 37.97 36.96 36.09 35.24 33.34 31.39 30.87 30.26 30.12 30.22 30.36 29.88 31.69 29.28 26.61 25.52 24.73 24.44 24.78 26.55 29.15 29.84 29.07 28.22 25.96 25.66 27.29
41.45 41.57 40.45 40.27 41.42 41.24 40.21 38.58 37.64 39.18 39.94 39.52 38.98 38.82 39.58 38.70 37.77 35.81 34.85 34.20 31.69 30.11 29.03 25.96 27.15 28.81 29.54 30.74 29.81 28.77 26.89 26.27 23.84 23.79 25.31 27.22 27.20 28.76 28.03 27.50 28.01 28.53 27.03
39.99 40.36 39.46 39.13 39.94 40.47 39.98 38.00 38.47 39.07 38.47 37.36 36.90 36.80 38.06 38.01 37.32 35.14 33.75 30.55 30.35 28.11 26.85 26.68 25.79 26.40 26.83 26.32 27.72 25.76 25.80 25.66 23.48 24.97 25.61 26.46 27.81 28.03 27.34 28.18 29.28 28.04 26.31
39.34 39.61 38.90 38.37 38.70 39.93 39.95 38.99 38.73 38.19 37.04 35.34 34.88 35.44 35.15 35.40 35.36 34.08 32.82 30.08 28.28 26.98 28.13 26.01 23.85 23.13 23.60 23.22 22.64 23.02 23.18 24.28 23.99 23.81 23.48 25.15 26.11 25.79 26.53 27.09 27.70 27.59 27.44
39.37 39.26 38.80 38.15 37.95 38.93 38.88 38.87 38.04 37.21 35.12 34.12 33.84 32.99 33.14 33.36 32.13 31.49 30.38 29.22 28.36 26.68 24.85 23.82 22.96 19.41 18.86 21.02 23.08 23.24 22.12 22.48 23.36 22.45 24.45 23.56 22.47 22.76 23.21 24.15 24.67 26.04 25.26
38.44 38.13 38.27 37.91 37.83 38.12 37.44 37.29 37.18 36.00 33.58 30.97 30.84 31.08 31.13 31.59 30.41 29.64 29.59 30.58 28.85 28.05 27.42 25.91 22.31 20.93 23.56 24.29 24.23 23.96 24.01 24.55 24.46 22.60 21.26 20.27 19.90 20.27 21.64 21.92 21.77 22.57 23.18

GFSMW_sfc_wetblb_027.txt.gz
Wetbulb
53.90 54.82 55.05 55.14 55.12 54.73 55.30 54.77 54.31 53.50 53.81 52.44 51.41 51.31 51.07 51.91 52.59 53.71 53.72 53.49 53.52 53.12 52.10 51.60 50.03 49.83 49.24 48.75 48.64 48.12 47.80 48.62 48.85 47.90 48.62 48.64 49.63 49.99 51.36 52.30 50.97 50.33 51.23
52.81 54.05 53.93 53.49 52.94 52.14 52.73 53.19 53.27 53.04 52.78 51.98 51.54 51.90 51.39 52.07 52.48 53.49 52.81 53.51 52.63 52.14 52.15 50.11 49.69 49.08 48.61 47.58 46.88 46.40 45.86 46.34 47.08 45.25 45.71 43.35 45.37 46.76 48.69 48.78 51.09 49.95 51.65
51.29 52.53 52.86 51.13 51.17 51.03 51.22 52.37 52.57 52.74 52.33 51.85 51.69 51.51 51.62 50.73 50.34 50.62 50.55 51.17 51.09 50.27 48.71 48.06 47.58 46.84 47.66 46.22 45.52 45.88 45.02 44.01 44.78 44.15 42.70 40.15 40.15 41.34 45.53 46.37 46.66 46.54 44.39
51.70 52.51 51.58 50.84 51.18 51.07 51.74 52.08 52.50 52.00 52.83 52.01 51.05 49.92 48.42 47.39 48.59 48.59 48.90 48.96 48.78 48.31 48.32 47.41 46.18 45.96 46.74 45.46 46.25 45.21 43.02 42.14 39.87 41.45 43.41 41.60 42.28 37.22 36.53 42.72 42.76 41.90 41.95
49.55 50.06 50.63 51.62 51.72 51.76 51.15 51.36 51.84 52.12 52.16 52.06 51.20 50.13 48.20 48.94 48.98 48.24 47.29 46.54 46.87 46.61 46.24 46.28 45.51 45.01 45.19 45.49 43.54 42.70 44.31 43.86 42.30 41.30 38.38 37.84 37.82 37.93 35.21 34.02 36.04 37.68 38.64
49.13 50.09 51.05 52.03 51.35 51.35 50.89 50.91 51.20 51.82 51.80 51.15 50.61 49.26 48.16 48.28 47.24 46.02 44.54 44.33 44.15 44.26 44.54 44.82 44.14 44.98 44.76 44.28 45.66 44.72 43.67 43.04 42.21 39.19 37.28 36.87 36.36 34.97 34.42 33.41 32.08 33.23 35.57
47.94 48.11 48.78 49.36 50.35 49.23 50.07 50.78 51.02 50.97 51.15 50.52 49.39 48.63 48.22 47.84 47.01 46.15 44.74 43.00 42.07 42.08 41.96 43.98 44.14 44.61 44.87 44.93 44.31 43.69 41.53 41.77 39.55 37.15 36.64 36.66 36.50 37.55 36.18 35.29 33.38 32.88 33.68
48.68 47.84 48.83 48.92 49.32 49.83 49.55 49.71 50.31 50.19 49.82 49.39 48.54 47.42 46.61 45.97 45.10 43.84 42.60 41.77 40.88 41.32 42.24 43.17 42.75 41.77 41.93 42.01 42.36 42.21 42.55 40.88 39.33 38.42 39.59 40.72 37.82 40.06 37.26 34.87 32.47 31.05 30.29
48.16 48.48 49.11 48.59 48.29 48.62 49.34 48.84 47.76 48.21 48.25 47.32 46.23 45.55 45.51 44.78 42.89 41.90 41.30 41.19 41.21 43.16 41.59 41.33 41.13 40.97 40.95 41.28 43.05 41.26 39.14 38.96 38.15 38.02 38.47 40.13 40.00 41.04 40.28 39.28 38.00 35.03 29.36
47.66 47.27 47.51 47.98 48.29 48.27 48.47 47.76 47.17 46.60 45.34 44.54 44.06 43.87 42.91 43.02 42.32 41.65 41.29 41.53 41.38 41.52 40.85 41.08 41.30 41.16 41.19 40.86 39.95 39.31 38.79 38.08 36.91 37.93 37.17 38.32 39.44 38.71 39.29 39.11 39.04 38.37 34.82
45.93 46.60 47.28 47.80 47.80 48.37 47.62 46.36 45.64 44.93 43.36 43.15 42.81 41.83 42.00 42.04 41.40 40.53 40.10 40.88 40.88 41.25 41.11 41.18 41.13 40.64 39.89 39.48 38.61 37.90 38.28 37.94 35.88 35.50 35.41 35.37 36.44 36.84 37.42 37.63 37.42 36.30 35.60
45.73 46.17 46.62 46.34 45.49 45.57 45.52 45.08 44.45 43.75 42.67 42.57 41.62 41.19 41.95 40.90 39.78 39.43 39.54 40.08 39.80 40.90 40.06 38.94 37.61 39.02 39.23 38.59 37.80 36.90 35.38 32.34 30.99 31.06 30.73 31.13 33.73 31.93 32.61 32.80 32.54 32.76 32.67
45.79 45.01 44.91 44.38 44.80 44.87 44.89 43.36 43.40 42.24 42.32 41.51 40.58 40.19 40.29 39.45 38.29 38.85 39.79 40.00 39.14 38.46 37.28 36.20 34.90 35.05 35.05 34.46 33.69 32.96 31.66 30.63 30.23 30.08 29.48 29.67 29.82 29.14 30.03 30.66 30.80 30.46 32.32
44.13 44.01 43.28 43.13 43.53 44.61 42.92 42.42 42.67 42.28 42.29 41.83 40.20 39.49 39.33 39.14 38.22 38.38 38.59 38.58 38.20 36.81 34.94 34.63 34.99 35.24 34.72 33.79 32.86 32.22 30.10 29.16 29.51 29.97 29.26 29.15 29.12 28.91 28.99 30.39 29.61 29.50 27.35
43.61 43.13 42.15 42.08 42.82 41.80 41.58 42.16 42.62 43.03 42.29 40.76 41.21 39.55 40.34 39.35 39.26 39.05 38.26 38.17 37.40 35.84 34.70 34.31 33.91 33.66 33.64 32.19 29.28 28.56 27.54 27.14 27.50 28.20 28.90 29.17 30.64 33.43 33.42 31.37 29.55 27.10 25.49
43.08 42.85 42.85 43.29 43.08 41.71 41.21 41.50 41.20 41.92 42.33 40.96 40.45 41.19 40.05 40.32 39.21 37.97 37.67 37.58 34.68 33.59 33.29 32.62 32.67 31.85 33.36 31.97 31.48 29.25 26.40 27.10 26.81 25.70 26.45 27.52 29.88 30.23 30.99 31.84 31.97 30.81 28.02
41.65 41.69 42.56 43.16 41.72 40.54 40.94 39.19 39.66 41.14 41.13 40.83 41.32 40.05 40.61 39.52 40.12 39.70 38.55 36.08 32.33 31.79 31.57 31.67 32.63 31.08 29.25 32.04 31.44 30.94 27.35 26.17 25.26 24.48 25.18 25.85 27.87 27.79 27.53 29.02 30.15 30.16 31.82
41.77 42.11 41.80 41.04 40.68 40.33 39.61 38.96 39.08 38.58 38.86 39.01 39.02 40.02 39.65 38.90 39.08 39.41 37.58 33.69 32.84 30.65 30.23 31.12 31.49 29.23 31.21 33.20 33.47 31.92 26.85 26.51 26.27 25.26 25.12 24.80 25.11 26.29 27.41 26.80 26.63 27.01 27.95
41.58 41.10 39.94 39.68 39.01 38.45 38.70 37.79 36.91 36.57 36.61 37.68 38.24 38.84 38.79 39.12 38.93 35.69 35.07 34.49 33.05 31.24 30.68 31.62 29.83 28.71 28.59 32.53 32.63 31.09 26.31 25.97 25.52 26.76 26.75 25.91 25.22 27.78 29.92 27.68 26.15 25.71 27.00
39.53 37.88 37.44 37.51 36.82 36.86 37.10 35.96 34.76 34.67 35.10 36.98 37.18 38.08 38.77 37.58 35.87 34.98 35.17 34.88 32.79 32.13 31.48 29.76 29.23 30.70 27.35 31.01 31.88 29.07 24.23 20.99 24.26 25.02 25.55 26.76 26.21 28.18 28.51 28.09 24.70 23.04 23.79
37.21 37.14 36.21 34.91 35.18 36.63 36.38 34.88 33.70 33.38 35.82 36.94 36.60 36.77 37.43 37.07 37.61 35.52 33.93 31.69 30.76 29.48 26.43 26.01 26.75 27.48 28.53 27.00 29.61 28.68 25.00 23.45 23.58 22.82 22.88 24.35 26.86 27.12 28.30 28.37 26.33 25.26 26.13
36.09 36.62 34.71 34.65 35.41 36.64 35.64 34.26 33.02 35.08 36.36 35.70 35.20 34.53 34.78 36.44 36.64 34.77 32.80 32.97 28.31 26.41 24.43 16.59 19.18 23.34 24.18 27.52 26.73 26.16 25.48 24.84 21.02 21.96 23.33 24.67 26.93 28.46 27.61 27.51 28.89 28.93 27.82
35.36 36.14 34.36 34.81 35.70 35.93 35.84 34.60 34.75 35.22 34.67 33.44 32.61 32.49 33.26 34.06 34.55 33.90 33.38 27.50 25.96 21.97 22.06 23.24 17.34 20.03 23.00 21.31 24.99 24.35 24.79 24.19 22.10 23.58 24.65 26.16 26.84 26.38 26.43 27.59 27.29 27.71 26.82
34.59 34.97 34.44 33.90 34.03 35.29 35.84 34.38 34.94 34.74 33.28 31.43 31.10 31.35 30.78 31.56 31.95 31.67 28.86 26.00 21.47 19.89 23.72 20.73 18.40 16.89 20.18 18.29 19.65 21.85 19.07 22.72 23.62 23.56 23.23 24.84 24.42 24.63 24.61 24.83 24.99 25.44 24.75
33.88 34.34 33.78 34.05 33.83 34.91 34.85 34.70 34.44 33.94 32.03 30.58 30.07 28.55 28.09 28.38 28.73 28.71 26.32 25.64 23.95 22.80 19.99 18.76 18.56 9.05 7.79 17.17 24.17 23.56 22.12 22.05 24.21 22.24 22.31 20.91 20.36 20.76 21.98 22.01 22.99 23.03 23.89
34.05 34.25 34.42 34.63 34.03 33.91 33.87 34.23 33.65 32.51 30.33 28.87 27.85 26.05 25.28 24.26 26.65 26.42 26.73 30.24 28.56 29.56 29.25 27.63 18.88 14.88 21.84 24.63 25.68 25.12 24.87 24.76 24.46 20.32 18.59 17.24 18.14 18.56 19.19 18.98 20.03 21.28 22.41

GFSMW_sfc_wetblb_033.txt.gz
Wetbulb
49.51 51.29 51.87 52.30 52.91 53.58 54.88 55.93 55.00 52.54 51.86 52.19 53.15 51.15 48.55 48.23 48.55 48.50 48.45 47.62 47.71 48.65 47.62 46.20 44.91 45.38 45.17 44.64 44.73 44.12 43.57 43.76 42.64 42.09 42.31 43.68 44.06 42.35 40.95 43.07 44.80 43.52 43.86
48.58 49.52 50.68 51.17 52.13 52.88 50.90 50.33 49.91 50.32 50.02 50.01 48.99 49.03 48.35 48.04 47.31 46.79 46.66 46.88 47.42 46.26 45.38 43.75 43.68 44.27 44.66 43.18 42.81 43.62 43.41 43.04 41.53 39.64 39.30 36.49 38.23 39.00 40.86 40.49 42.64 39.96 41.52
47.83 49.29 50.38 50.14 49.18 48.86 48.98 49.34 49.24 49.73 50.03 50.03 49.40 48.71 48.24 47.47 45.93 45.50 44.57 45.03 45.18 45.09 44.04 43.59 43.25 43.00 43.20 42.76 42.48 41.83 40.97 40.29 40.11 40.30 37.27 33.28 31.86 34.81 37.67 37.96 38.55 37.90 38.04
49.57 50.15 48.62 47.05 47.07 47.46 48.10 49.04 49.48 49.22 49.84 49.62 48.89 47.59 46.67 45.27 45.28 44.23 43.79 43.09 44.07 43.47 43.94 44.13 43.80 43.75 43.78 42.59 42.37 42.55 40.01 39.70 37.98 39.12 41.08 38.54 39.17 31.96 30.97 35.17 35.89 36.57 37.04
47.72 48.90 49.48 49.03 48.88 47.72 47.07 47.61 48.75 49.46 49.61 48.97 48.30 47.08 46.63 46.21 45.26 43.72 42.49 42.76 42.61 42.95 44.22 44.21 43.21 42.68 42.75 41.60 40.68 39.74 39.43 39.12 37.78 36.96 37.80 35.10 35.41 35.04 34.20 31.00 33.19 35.01 34.90
48.40 48.34 49.41 49.21 48.12 47.64 47.04 47.03 47.66 48.23 48.53 48.11 48.01 47.30 45.81 44.20 42.82 41.68 42.79 41.95 41.04 40.87 42.14 42.81 42.07 41.76 41.37 40.60 39.95 39.33 38.69 37.43 37.18 37.08 35.88 34.93 34.77 32.45 33.45 33.46 32.92 32.70 33.91
46.78 47.10 48.07 48.96 49.39 48.18 47.03 46.94 47.26 46.97 47.55 46.64 45.67 45.35 44.27 43.19 42.28 41.47 40.11 39.45 38.89 38.79 39.63 40.88 40.65 40.93 40.71 40.08 39.38 38.57 37.58 37.03 36.22 35.50 35.51 35.41 35.29 37.94 37.50 35.60 33.90 32.74 33.70
46.74 48.12 48.60 48.22 47.50 46.66 46.23 45.76 47.08 46.62 46.51 44.88 44.42 44.66 43.92 42.55 41.66 40.81 39.90 39.03 38.69 38.89 39.47 40.07 40.06 39.77 39.61 39.38 38.76 37.86 37.51 37.11 35.66 35.04 34.74 35.03 35.77 37.28 37.76 35.82 33.77 30.27 32.22
44.47 44.97 45.24 45.33 45.46 45.56 44.92 44.19 45.31 44.75 44.77 43.14 42.44 42.83 43.04 41.73 41.00 39.82 39.23 39.15 39.26 40.37 39.40 39.45 39.24 39.01 39.08 38.96 37.97 37.01 36.35 35.62 34.97 34.53 34.25 34.12 34.82 34.45 34.65 34.01 33.64 32.53 27.90
43.81 43.75 43.83 44.35 45.17 44.99 44.39 43.89 43.72 42.91 41.86 41.49 40.93 40.96 40.47 41.31 40.42 39.51 39.42 39.19 38.88 38.98 39.05 38.48 38.88 38.62 38.51 38.05 37.12 35.76 35.59 34.37 33.97 34.54 32.03 30.17 30.59 30.16 29.84 29.87 31.02 31.30 31.05
42.21 42.70 43.02 43.60 43.37 43.06 41.95 41.83 41.41 41.36 40.50 40.23 40.21 39.86 40.24 40.09 39.41 38.90 38.72 38.63 38.37 38.33 38.79 39.39 38.08 38.22 38.43 37.51 36.47 35.18 34.48 32.19 29.26 28.60 28.39 28.45 28.83 28.62 28.55 28.40 28.33 27.96 27.89
42.73 42.34 42.84 42.64 42.20 41.19 41.12 41.75 41.98 40.94 40.47 40.05 39.53 38.42 39.49 39.66 38.88 38.22 38.39 38.27 37.08 38.52 38.55 37.55 35.94 35.38 35.57 34.88 32.34 31.79 30.48 29.13 28.10 27.78 27.52 27.84 30.19 26.53 26.27 25.92 25.82 26.29 26.93
40.89 41.19 41.77 40.84 41.23 42.35 41.40 40.59 40.20 40.45 39.44 39.36 38.11 37.50 37.09 37.03 37.29 37.88 37.70 37.49 37.90 37.37 37.34 38.47 36.45 35.60 34.65 33.38 31.81 30.84 29.40 28.06 27.80 27.35 27.21 27.09 26.56 25.19 25.09 25.55 25.52 26.72 28.93
40.87 40.79 41.11 41.13 41.54 42.16 39.55 38.53 38.38 38.99 38.99 38.45 37.71 37.15 36.97 37.23 36.93 37.18 36.68 36.70 37.61 37.01 37.38 38.19 36.17 35.70 34.16 32.68 30.86 29.24 27.46 27.06 27.62 27.99 27.51 26.88 26.01 24.90 24.77 25.38 25.89 27.63 27.06
40.05 40.72 40.67 40.68 40.38 39.11 37.37 37.05 37.02 37.40 37.64 37.71 37.73 37.32 37.75 37.69 36.88 36.41 36.88 37.38 37.76 37.77 37.77 37.46 36.53 33.70 33.00 30.76 27.86 28.00 27.54 26.90 26.48 27.31 27.33 27.08 27.72 30.34 28.75 26.14 24.37 24.20 24.90
40.45 40.63 39.71 38.75 37.26 36.69 35.67 36.35 36.06 36.07 36.61 37.25 36.79 37.83 37.75 37.49 37.05 37.00 36.67 36.51 36.21 37.56 38.00 32.15 30.88 31.35 31.74 32.51 32.52 31.28 27.24 27.41 26.87 25.58 26.48 26.26 28.17 27.13 28.89 28.37 28.17 27.57 24.68
38.54 38.21 36.76 36.21 35.84 35.41 35.92 34.77 35.08 35.42 34.90 35.75 36.76 37.30 36.86 36.19 36.11 36.36 36.20 35.82 35.31 36.93 31.91 32.17 32.09 30.18 29.56 32.63 32.97 32.51 29.31 27.47 26.57 25.56 25.34 25.30 26.33 26.35 25.21 26.33 27.29 27.52 28.60
37.76 35.86 35.04 34.53 34.34 34.16 34.03 34.51 34.33 33.53 34.54 34.80 35.08 35.75 35.10 35.44 35.42 35.03 33.98 31.62 31.67 34.38 34.80 31.46 29.87 28.12 29.09 31.82 30.94 29.06 24.83 23.94 24.50 23.95 23.89 23.83 23.20 24.18 24.98 25.39 25.80 26.28 26.39
36.32 34.01 33.90 33.95 33.08 33.12 33.62 33.01 32.31 31.78 33.53 33.78 33.62 33.92 34.50 34.78 34.20 33.37 34.25 34.84 35.00 34.00 29.53 29.44 28.00 26.53 26.07 29.66 29.21 26.87 22.97 23.05 22.34 23.67 23.94 23.63 23.03 25.65 27.62 26.07 24.84 24.46 25.14
33.64 33.19 32.77 33.06 32.26 32.08 31.80 31.30 30.56 31.61 32.30 33.27 33.40 33.76 33.29 33.34 33.13 32.24 32.25 35.06 33.48 29.46 28.45 27.63 26.63 27.72 23.56 27.45 27.35 25.52 20.71 15.41 21.42 22.10 22.74 24.30 24.90 26.86 28.00 26.02 24.88 23.30 24.54
33.13 32.83 32.06 31.37 31.25 32.34 32.53 31.24 30.54 30.92 32.76 33.51 33.29 32.37 31.89 30.86 31.50 33.71 33.80 34.64 30.43 27.90 25.15 24.06 24.70 24.60 24.72 23.23 26.22 25.84 19.95 20.26 21.19 21.18 21.50 23.45 26.07 26.32 27.05 26.89 25.63 25.52 25.99
31.71 31.85 31.14 31.02 31.87 31.93 32.06 30.58 29.82 31.86 32.70 32.62 31.51 30.79 30.34 30.98 31.68 33.65 32.62 27.83 26.36 25.97 24.37 12.55 17.03 20.89 21.72 24.46 24.71 25.94 25.34 24.82 19.40 21.49 22.20 24.25 25.06 25.55 25.69 25.17 26.30 26.02 25.18
30.82 31.69 30.36 30.73 31.86 32.00 32.07 31.01 31.59 32.31 31.81 30.91 30.54 29.69 29.08 29.34 29.23 29.95 28.62 26.21 25.17 21.04 20.29 21.71 14.90 18.57 22.47 20.05 24.25 24.66 25.31 24.50 20.34 21.77 22.91 23.47 23.59 23.60 23.68 23.96 24.78 24.06 23.12
30.42 30.84 30.14 30.15 30.41 31.93 32.79 31.89 32.45 32.15 31.06 31.26 30.47 30.79 28.31 27.92 28.63 29.23 28.50 24.75 20.07 17.39 21.70 18.87 17.61 16.13 18.38 17.76 19.01 22.29 17.78 21.65 21.68 18.70 18.16 18.40 21.55 20.45 20.79 20.99 21.78 21.99 22.28
30.54 30.68 30.16 30.20 30.19 31.48 31.67 32.04 32.07 31.58 30.52 30.54 31.29 29.95 27.60 26.17 26.47 28.30 25.98 25.97 24.32 22.41 19.99 18.79 17.78 6.60 5.85 15.93 24.09 23.73 19.43 14.68 19.12 11.39 10.34 12.80 15.69 16.33 17.14 17.44 18.56 19.27 19.27
30.68 30.61 30.09 29.96 30.76 30.42 30.13 31.00 32.69 32.77 30.98 29.11 30.63 29.59 26.39 23.68 25.66 25.66 26.04 28.58 27.63 29.31 30.14 29.80 18.06 13.87 21.10 25.61 26.39 25.19 23.55 22.63 20.36 12.24 6.63 3.00 4.99 10.82 15.08 14.41 15.02 16.16 15.86

GFSMW_sfc_wetblb_039.txt.gz
Wetbulb
53.03 55.82 57.31 59.49 61.04 61.91 61.87 59.54 59.64 58.96 56.56 54.32 53.30 51.71 51.88 50.92 51.20 51.89 51.87 51.73 51.34 51.23 51.46 50.73 50.47 50.63 49.18 49.28 49.55 48.95 48.08 47.67 48.27 46.64 45.30 46.47 49.87 47.99 47.72 47.28 47.20 46.45 46.11
53.86 54.80 56.09 57.66 60.16 60.38 61.21 61.08 58.52 57.77 56.61 55.96 55.39 55.09 53.31 52.55 51.56 51.03 50.82 50.89 50.66 50.41 50.14 50.05 49.61 49.36 48.37 47.99 48.00 47.64 45.72 46.38 47.49 43.52 42.96 40.19 42.71 46.83 45.94 45.92 45.45 45.34 45.48
52.60 52.61 53.16 54.77 56.12 57.04 57.66 59.25 58.32 57.09 56.66 55.50 54.29 53.27 52.72 51.57 50.76 50.39 50.21 49.62 49.40 49.53 49.85 49.66 50.13 49.77 48.65 46.79 47.18 47.16 45.83 43.44 45.80 45.61 42.52 38.09 36.78 40.24 43.57 43.72 44.41 44.32 44.35
51.87 51.82 51.43 51.32 52.46 52.94 53.80 54.68 54.55 54.34 54.09 54.44 54.22 53.70 53.76 52.88 51.84 50.91 50.18 50.12 48.96 49.26 49.54 49.31 49.49 49.14 49.05 47.28 46.93 47.51 46.66 45.74 42.40 43.79 44.31 44.32 42.16 34.99 33.92 40.84 41.38 42.99 42.61
51.73 51.01 51.41 51.96 52.33 52.85 53.27 53.71 53.84 53.83 53.59 54.06 54.28 53.88 51.89 51.07 50.34 49.87 48.90 49.35 49.47 48.27 48.54 48.63 48.77 48.50 48.21 47.72 47.25 46.72 46.19 46.03 43.52 42.30 41.84 41.38 40.99 40.82 36.19 33.46 37.13 40.36 40.57
51.06 51.37 51.87 51.91 51.93 52.58 53.18 53.38 53.05 52.22 53.18 53.42 53.09 52.48 51.41 50.00 49.68 49.66 49.39 49.20 48.18 47.85 47.79 48.01 48.17 48.17 47.68 46.99 46.65 46.50 45.90 45.03 44.10 43.14 42.04 39.93 37.24 36.32 35.51 33.30 35.06 35.36 38.09
51.22 51.15 51.14 51.23 51.65 51.71 51.41 52.44 53.22 51.83 51.94 52.06 52.16 52.10 51.63 50.85 50.00 49.55 48.86 47.83 47.60 47.41 47.72 47.02 47.00 46.82 46.85 46.62 46.21 45.70 44.83 44.21 43.15 42.46 41.48 41.45 40.23 40.15 38.01 36.24 34.85 33.97 36.25
50.91 51.35 51.91 52.02 52.58 52.36 52.06 51.91 51.57 50.56 50.54 50.74 50.59 51.02 50.26 50.84 49.63 48.38 47.87 47.46 46.81 46.71 47.10 46.44 46.09 45.67 45.39 45.25 44.95 44.74 44.33 43.77 43.03 42.06 41.44 40.56 40.72 40.71 39.47 36.90 34.73 31.52 32.82
50.50 51.28 51.75 51.73 50.82 50.52 50.07 51.11 50.92 50.24 49.25 48.54 49.79 49.57 48.99 47.77 47.21 47.15 47.01 46.13 46.11 45.22 45.70 45.99 45.28 45.01 44.99 44.95 44.68 43.89 42.29 42.09 41.95 41.94 41.17 40.27 40.47 40.57 38.22 37.11 35.49 32.55 28.34
48.48 48.75 48.81 48.96 49.19 48.83 48.83 49.25 49.51 47.75 47.64 47.23 46.80 46.27 45.84 45.46 45.70 46.06 45.55 45.48 45.81 45.33 44.94 44.65 44.54 44.25 44.38 44.29 43.20 42.41 41.60 40.81 41.12 40.25 39.15 37.97 37.24 36.76 36.73 36.07 35.37 34.53 31.51
46.75 46.29 46.30 46.73 46.90 46.60 47.50 47.44 46.60 45.30 45.30 45.06 45.24 45.06 44.97 44.74 44.93 44.49 44.23 44.07 44.06 43.74 43.29 43.30 43.10 43.00 42.01 40.87 40.52 40.02 39.18 38.25 38.22 36.86 35.89 35.55 35.81 34.98 35.45 35.13 34.15 32.67 31.83
45.19 45.30 45.46 45.64 45.90 45.83 46.61 44.77 44.83 44.37 44.28 44.76 44.29 43.71 43.91 43.60 43.04 42.92 42.96 43.37 42.59 43.09 42.61 42.52 41.69 40.47 39.63 38.72 38.47 37.74 37.50 35.84 34.99 34.42 34.56 34.29 34.30 33.94 34.14 33.19 31.84 31.29 31.70
43.98 44.31 44.41 44.78 45.10 43.95 44.14 43.15 43.45 42.86 43.41 43.35 43.44 43.13 42.85 42.28 41.92 42.05 42.27 42.20 41.54 41.12 41.41 41.48 40.92 39.10 39.62 38.41 38.62 37.37 35.46 34.73 33.80 34.15 33.76 33.40 33.19 32.18 32.38 31.77 30.92 30.80 30.01
43.70 44.10 44.09 44.20 44.51 43.52 42.58 40.99 41.08 42.46 42.36 42.35 42.42 42.32 42.05 41.46 41.50 41.70 41.57 40.86 40.68 39.97 40.15 41.32 41.09 40.14 38.63 38.36 36.76 35.19 34.56 34.34 34.33 34.05 33.34 32.84 31.97 31.05 30.59 30.02 29.45 29.31 28.35
42.92 43.68 43.11 43.07 42.70 41.36 40.00 41.04 41.33 41.55 41.41 40.96 41.30 41.16 41.83 41.39 40.83 40.29 40.49 39.86 39.85 39.36 39.66 39.93 38.81 37.53 36.18 35.46 34.75 34.71 34.54 33.77 32.57 32.41 31.47 30.91 30.09 29.19 29.00 28.47 28.35 27.50 26.38
42.81 42.80 42.13 41.08 40.09 39.70 40.32 39.71 39.84 40.03 39.92 39.36 39.97 40.89 40.69 39.92 39.38 39.47 38.87 38.68 38.28 37.55 37.14 35.05 35.68 34.33 34.70 33.36 33.00 32.53 32.38 30.75 29.26 28.24 28.54 28.42 27.48 27.74 26.88 26.53 26.92 27.05 25.23
41.99 41.55 40.43 39.69 39.39 39.58 39.27 38.95 38.83 38.66 38.12 38.16 39.44 39.17 38.81 38.30 38.29 38.21 37.58 37.51 37.23 37.19 35.46 35.36 35.00 33.59 33.77 32.08 31.23 29.45 30.26 28.69 27.91 27.23 26.81 26.64 27.26 27.01 27.23 26.98 27.52 28.12 28.39
41.44 41.10 39.31 38.84 38.92 38.90 38.46 37.93 37.90 37.64 37.15 38.00 37.78 37.68 37.47 36.93 36.89 36.36 35.91 36.56 36.14 34.76 35.65 33.92 32.74 32.56 32.05 29.87 29.09 27.94 29.13 27.99 27.37 26.84 26.54 26.29 26.18 27.02 26.20 27.72 27.27 27.75 27.83
42.15 40.26 39.48 38.86 38.23 37.45 37.23 37.13 37.01 36.06 36.27 36.64 36.61 36.91 36.72 35.80 35.28 34.68 35.06 34.97 34.16 34.48 33.91 33.34 31.76 31.10 30.16 28.17 27.61 27.91 28.00 26.86 26.26 26.71 26.96 26.42 25.46 25.77 27.22 26.15 25.90 25.48 26.29
38.58 36.81 37.38 37.34 37.12 36.58 36.62 36.08 35.66 35.24 35.38 35.86 36.27 36.60 36.07 34.91 34.54 34.60 34.63 34.41 34.19 33.57 33.67 31.25 31.21 28.28 28.90 26.12 26.92 27.52 28.45 26.39 26.09 26.67 26.39 25.07 24.88 25.40 25.67 25.91 24.89 23.25 24.79
36.46 36.78 36.67 36.40 35.93 36.14 35.82 35.17 35.09 34.96 35.66 36.19 36.36 35.89 35.34 34.61 34.42 34.12 34.94 35.18 34.20 33.12 31.81 29.77 30.28 29.10 28.25 27.88 26.11 26.57 27.87 26.52 25.46 24.79 24.64 25.26 24.04 24.75 24.63 24.48 24.91 24.34 24.93
34.99 35.78 35.73 35.22 35.45 35.81 35.63 34.95 34.72 35.90 35.91 35.94 35.35 35.17 35.36 34.63 32.71 33.14 33.69 33.82 31.89 30.90 30.03 28.98 28.95 29.65 28.88 26.45 26.07 25.98 26.60 26.20 25.12 23.97 24.31 24.42 23.29 23.08 22.56 22.91 23.04 23.10 23.26
34.75 35.17 34.97 34.22 34.77 34.84 35.15 33.97 35.10 34.91 34.23 34.22 34.52 34.95 34.77 33.29 32.33 31.78 31.97 31.44 31.21 30.13 29.29 28.25 28.60 28.61 29.46 29.34 25.65 25.39 26.11 25.22 24.58 24.60 22.83 21.71 21.43 21.10 21.84 20.91 21.22 21.65 22.23
34.72 34.54 33.97 33.11 33.03 34.14 34.02 34.13 33.98 34.03 33.49 33.35 33.98 34.24 32.62 32.50 32.81 31.86 31.95 31.11 30.37 29.36 28.37 27.95 27.78 28.28 28.48 28.61 28.24 27.42 27.88 24.61 24.00 22.63 22.67 19.88 19.80 19.14 19.82 20.93 21.43 21.46 19.60
33.70 33.86 33.24 32.80 32.49 33.79 33.43 33.60 33.32 33.37 32.35 32.96 33.21 33.10 32.30 32.05 31.73 31.18 31.07 30.53 31.31 30.26 28.83 28.85 28.68 28.35 27.82 28.46 26.98 26.99 26.97 26.19 23.71 20.47 21.24 20.54 19.60 19.21 19.73 20.08 19.49 19.32 17.99
33.07 32.82 32.84 32.42 32.74 32.63 31.96 32.75 33.03 33.06 32.34 31.29 32.37 33.08 32.72 32.44 31.47 30.61 30.22 30.63 29.92 29.13 29.48 29.83 29.43 30.97 28.22 26.46 26.70 27.24 25.66 23.47 20.34 21.00 19.57 18.16 17.86 17.60 17.69 18.11 17.93 18.42 16.21

GFSMW_sfc_wetblb_042.txt.gz
Wetbulb
59.28 61.44 62.66 63.52 63.65 62.82 63.55 63.43 62.45 60.89 60.25 61.51 58.22 55.76 54.00 55.37 56.34 56.84 56.23 55.98 55.94 55.89 55.95 54.59 53.35 52.27 51.26 51.21 51.11 50.34 49.45 48.76 50.31 48.09 47.40 48.11 49.66 51.55 51.03 50.23 49.60 49.29 49.19
59.71 60.58 62.23 63.30 63.24 62.60 63.07 63.43 63.99 64.10 63.33 61.81 60.15 59.50 58.43 58.41 57.80 56.66 55.95 55.65 55.50 54.47 53.27 52.73 51.93 51.52 50.57 50.73 50.34 49.67 48.15 48.12 48.94 46.14 45.34 42.23 44.70 47.28 50.03 48.53 48.25 48.36 48.36
59.34 60.20 61.27 62.61 63.24 63.08 63.96 64.01 63.55 62.64 61.33 60.51 59.57 58.93 57.83 56.66 55.56 55.41 55.04 54.65 54.46 53.87 52.56 52.42 51.95 51.38 50.92 49.38 49.86 49.30 48.10 45.84 47.29 48.03 44.76 40.80 39.27 42.63 45.86 46.10 46.14 46.84 46.24
58.35 58.59 58.29 59.76 61.26 62.01 62.50 60.99 60.87 60.41 60.00 59.61 58.52 57.72 57.69 56.64 57.06 57.75 56.12 55.61 53.86 52.41 51.75 51.63 51.67 51.31 51.17 50.21 49.80 48.91 48.56 47.30 44.89 46.15 46.12 45.65 43.63 36.92 36.25 42.98 43.88 44.61 44.47
56.84 55.44 55.91 56.96 57.93 58.71 59.38 59.60 59.33 58.51 58.71 58.69 58.27 58.66 57.24 56.93 56.62 55.98 54.24 54.56 54.48 52.63 51.35 51.30 51.49 51.09 50.80 50.49 49.97 49.06 48.29 47.44 45.50 44.25 42.05 41.74 40.97 41.05 38.27 36.00 38.90 41.95 43.15
55.56 55.41 56.39 56.84 56.83 58.20 58.29 58.40 57.97 57.63 58.03 58.21 57.94 57.34 55.98 54.55 54.60 54.08 52.64 52.68 51.96 51.46 51.35 51.01 51.02 50.79 50.28 49.66 49.19 48.94 47.57 46.52 45.58 43.99 42.34 40.02 37.53 37.29 36.42 36.21 36.42 37.49 40.31
54.90 55.01 55.30 55.64 56.41 56.64 57.46 57.54 57.73 56.81 57.50 57.29 56.63 55.90 54.67 52.94 51.66 50.94 50.80 50.01 49.67 49.86 50.31 50.59 50.04 49.38 49.16 49.24 48.85 47.68 46.74 45.88 44.66 43.96 42.35 41.54 40.13 40.29 38.86 37.35 36.92 35.89 38.65
54.93 55.43 55.79 56.15 56.17 56.48 57.41 56.92 56.71 55.80 55.83 55.51 54.55 53.48 51.98 53.20 51.88 51.26 51.02 50.34 49.71 49.82 50.13 49.90 49.39 48.47 48.13 47.87 47.52 46.91 46.37 45.83 44.66 43.55 42.67 40.70 40.43 40.28 38.90 36.60 34.98 33.04 34.99
54.99 55.52 56.01 56.33 56.61 56.85 56.83 57.03 55.91 54.82 54.12 53.30 52.72 51.47 53.02 51.35 50.70 50.64 50.86 50.41 49.91 48.39 47.24 47.16 46.31 46.31 46.57 46.87 46.84 45.91 45.01 44.69 43.57 42.78 41.95 40.38 40.60 40.86 40.25 39.39 37.78 34.29 30.38
54.93 55.58 55.92 56.02 56.06 56.02 55.42 55.84 54.83 53.16 51.28 50.33 49.82 50.24 50.05 50.22 50.58 51.10 48.90 47.07 46.42 46.03 45.77 45.40 45.16 45.03 45.46 45.90 45.68 44.73 44.40 42.69 42.15 41.29 40.71 40.39 40.07 39.98 39.01 38.70 37.63 36.23 33.93
54.64 54.84 54.96 55.07 54.44 53.89 53.68 53.16 51.70 50.38 49.82 48.55 48.28 49.02 49.81 49.34 49.29 48.07 46.05 45.52 45.60 45.13 44.50 44.40 44.44 44.23 44.08 44.50 43.36 43.02 42.76 40.45 40.45 40.15 39.10 38.88 39.52 37.64 38.64 38.17 37.47 35.98 35.39
54.10 53.60 53.06 52.57 51.70 51.49 51.68 51.04 50.69 49.72 48.71 47.35 47.85 47.33 47.72 47.31 46.22 45.02 44.72 45.67 44.54 44.78 44.11 43.57 43.32 43.69 43.31 42.47 41.54 40.36 40.38 39.48 38.62 38.97 38.52 37.85 37.07 37.80 37.83 36.83 35.78 35.02 35.16
51.96 51.50 51.16 50.58 50.44 50.35 49.69 49.07 48.39 47.76 46.26 47.10 46.50 46.59 45.97 45.07 44.43 44.31 44.87 44.51 44.02 43.58 43.38 43.06 42.92 42.51 42.23 41.33 40.29 39.95 39.86 39.43 38.79 38.27 37.65 37.10 36.98 36.02 35.92 35.52 34.44 34.11 33.15
50.36 50.34 50.15 49.99 49.37 48.77 48.29 46.01 46.71 46.30 46.42 45.63 44.95 44.59 44.59 44.58 44.48 44.38 44.04 43.62 43.33 42.59 42.31 42.39 42.34 40.51 40.66 40.26 39.80 39.09 38.69 38.69 38.15 37.98 37.43 36.38 35.20 34.20 33.63 32.26 32.35 32.16 30.99
49.34 49.50 49.36 49.12 48.71 47.73 46.34 46.72 46.37 45.34 45.29 44.01 43.34 43.44 44.36 44.77 43.95 43.36 43.15 43.07 42.36 41.92 41.41 41.00 39.90 39.62 39.85 38.60 38.60 37.92 37.61 37.06 36.54 36.07 34.93 34.33 32.14 29.30 29.44 29.63 30.37 29.49 28.26
49.07 49.07 48.84 47.82 46.88 45.72 45.89 44.94 44.04 44.18 44.37 42.95 42.26 43.20 43.78 43.19 42.65 42.42 42.05 41.63 41.36 41.19 40.82 38.36 38.68 37.73 37.66 33.27 31.89 32.35 36.19 35.63 34.17 32.97 33.02 33.15 31.28 30.71 28.26 28.32 27.84 28.36 27.25
48.77 48.12 47.45 45.93 44.79 44.56 44.19 43.19 43.41 43.73 42.52 41.60 41.57 42.33 41.93 41.37 41.33 41.16 40.65 40.02 40.01 39.82 37.85 38.12 37.05 36.20 36.50 31.52 30.69 29.83 34.27 33.59 32.92 32.05 31.68 31.06 31.18 30.37 29.74 28.44 28.28 29.31 29.70
48.31 47.67 46.04 43.08 42.72 43.59 42.91 42.57 42.97 42.33 40.97 40.23 40.52 40.81 40.84 40.30 40.49 39.93 39.33 39.52 39.44 37.13 37.92 36.94 36.41 36.35 35.35 29.89 28.86 28.41 33.44 33.04 32.35 31.74 31.26 30.97 30.58 29.62 27.71 27.73 27.32 28.54 29.04
48.98 47.77 45.20 42.88 43.08 41.80 42.70 41.56 40.98 40.29 39.35 38.91 39.63 40.04 40.17 39.52 39.01 38.33 38.42 38.60 36.01 36.73 35.52 36.48 35.99 35.69 35.31 28.75 27.67 28.58 32.40 31.88 31.16 31.26 31.30 29.89 29.01 27.06 26.31 25.78 26.10 26.73 27.13
47.98 45.36 42.59 40.91 41.35 39.93 41.74 40.46 39.41 38.84 38.29 38.84 39.27 39.98 39.81 38.94 38.23 38.33 37.65 37.15 36.04 35.10 35.75 34.50 35.85 31.83 34.20 28.22 27.12 28.39 31.71 30.20 30.20 30.96 30.52 28.27 26.45 24.70 25.41 25.35 25.16 24.51 25.68
44.40 42.81 41.61 41.31 41.02 40.83 40.02 38.53 38.43 37.78 38.75 39.22 39.41 39.41 39.18 38.52 38.43 37.82 37.62 36.00 35.82 35.82 34.17 32.94 34.49 34.60 33.90 32.90 27.10 26.75 29.58 29.77 28.98 28.81 28.89 29.38 25.05 24.23 24.37 23.75 25.10 24.33 24.77
40.21 41.34 39.05 39.39 40.42 39.82 39.01 37.61 37.26 38.89 38.95 39.30 38.48 38.12 38.74 38.17 37.70 37.44 36.99 35.08 34.94 33.60 32.85 33.58 33.04 33.33 33.42 30.21 29.26 26.99 26.68 27.36 28.14 27.29 28.70 27.90 23.81 23.34 22.99 23.51 21.84 22.58 23.87
37.32 38.18 38.04 38.01 39.05 38.68 38.37 36.49 37.89 38.28 37.97 37.41 36.95 37.68 38.09 37.39 37.06 35.87 34.47 33.09 33.22 31.76 31.18 30.40 30.30 30.88 32.28 32.20 29.08 27.48 26.22 26.80 27.25 28.25 26.22 23.49 22.60 22.87 23.86 22.45 21.75 22.85 24.68
37.93 37.58 37.81 36.90 36.93 36.94 37.40 38.02 37.98 37.65 36.91 35.82 36.37 37.31 36.82 36.13 36.54 34.85 33.59 32.95 32.18 31.19 30.79 29.96 29.18 30.19 30.18 31.34 31.31 30.92 29.76 28.07 27.59 27.78 27.17 24.94 22.09 23.19 23.08 24.93 24.94 24.79 23.59
36.88 36.94 37.12 36.37 35.93 36.93 37.04 37.74 37.18 36.96 35.33 35.49 35.85 35.98 36.12 35.61 35.44 34.43 33.98 32.96 33.29 32.63 31.13 30.44 30.73 30.21 29.25 30.03 29.93 29.05 29.45 29.66 27.79 24.57 26.30 26.25 25.16 24.29 24.59 24.93 24.30 24.63 23.35
37.50 36.11 35.52 35.35 35.65 36.24 36.82 36.96 37.22 36.42 35.31 34.64 35.09 35.59 35.15 34.79 34.01 33.44 32.99 32.24 30.47 30.62 30.82 30.40 30.27 32.14 30.70 30.21 28.45 27.63 27.77 26.56 24.02 25.00 25.76 25.43 25.06 23.54 23.35 23.18 23.23 23.90 22.35

GFSMW_sfc_wetblb_045.txt.gz
Wetbulb
60.73 62.32 63.53 64.14 64.09 65.84 65.59 64.04 62.56 62.02 63.75 63.77 60.89 59.87 57.87 57.94 57.86 57.97 57.98 57.98 57.78 57.48 57.02 55.61 54.62 54.01 52.82 52.05 52.30 51.18 50.01 49.19 50.01 47.62 47.54 48.31 50.78 51.38 50.93 51.00 50.77 50.04 49.74
60.34 62.07 63.47 64.43 64.97 64.21 64.14 63.16 63.21 63.78 64.71 64.12 62.57 61.24 59.56 58.81 58.70 58.39 58.21 58.01 57.30 56.01 55.57 54.43 53.63 53.15 51.82 51.76 51.42 50.52 48.69 48.56 49.71 45.60 45.32 42.57 44.74 47.16 49.00 49.01 48.38 49.40 48.09
60.48 61.66 62.81 63.50 62.80 61.93 62.59 63.38 64.33 64.14 63.37 61.82 60.75 60.28 59.61 58.81 57.41 57.15 56.84 56.80 56.13 55.41 54.62 53.68 53.16 52.63 51.83 50.33 50.68 50.32 48.57 45.97 47.71 48.58 44.69 40.62 38.91 42.57 45.47 46.45 46.74 47.66 46.74
61.69 62.22 62.94 62.64 63.17 64.12 64.83 64.88 62.93 61.55 60.93 60.88 59.41 58.58 57.04 55.35 57.14 58.62 58.00 56.70 55.44 54.62 53.52 52.96 52.76 52.32 51.76 50.67 50.24 49.84 49.13 48.36 45.23 46.64 46.42 46.14 44.48 38.48 37.39 42.55 43.58 44.71 44.65
61.03 60.65 61.33 62.22 62.61 63.02 62.16 61.37 60.90 60.45 60.42 60.11 59.86 59.00 58.05 58.73 58.53 57.87 56.17 55.69 55.57 54.00 52.48 52.40 52.21 51.56 50.89 50.64 50.25 50.19 49.22 47.96 45.39 44.45 43.92 43.71 43.20 42.81 38.97 35.91 38.67 42.05 43.23
59.36 58.69 59.55 59.86 59.76 61.33 61.04 60.75 60.04 59.22 59.86 59.74 59.71 58.75 57.53 56.29 55.76 54.95 54.30 53.52 53.14 52.18 52.24 51.80 51.76 51.35 50.39 49.29 48.92 49.42 48.16 46.87 46.18 45.04 43.87 42.37 40.14 39.24 38.61 37.03 37.48 37.49 40.22
57.49 56.75 56.62 56.73 57.76 58.58 59.27 59.42 58.97 58.10 59.10 59.25 58.87 57.94 56.51 55.03 53.22 52.70 52.02 50.80 50.47 50.58 51.09 51.33 50.53 49.71 49.16 48.27 48.26 47.82 47.58 46.33 45.23 44.68 43.56 43.44 42.31 41.31 40.36 38.56 37.10 35.80 38.32
57.03 56.45 56.89 57.15 57.57 58.34 58.86 58.95 58.53 57.76 58.42 58.07 56.92 56.41 54.84 54.22 53.44 51.62 51.30 50.84 50.46 50.52 51.08 50.19 49.00 47.70 47.09 46.72 47.47 47.15 46.71 46.56 46.01 44.30 43.80 43.05 42.60 42.15 41.07 38.46 36.26 33.81 35.01
56.56 56.41 57.26 57.63 58.11 58.22 58.45 58.88 58.25 57.01 56.86 55.92 55.23 54.05 53.34 52.09 50.88 51.11 51.59 50.94 51.00 49.34 48.12 47.51 46.52 46.43 46.08 45.85 45.91 46.28 45.81 45.70 44.95 43.53 43.43 42.41 41.77 41.65 40.64 39.59 38.41 35.81 31.69
56.14 56.79 57.29 57.87 58.51 58.66 59.10 59.24 58.61 56.70 55.50 54.45 53.42 52.37 50.79 50.49 51.13 50.89 49.91 48.85 47.93 47.05 46.30 45.90 45.72 45.31 45.46 45.48 45.23 44.86 44.80 43.69 43.40 42.60 42.26 41.20 40.91 40.44 39.96 39.14 38.71 38.42 35.40
56.31 56.96 57.60 58.25 58.57 58.75 58.04 57.86 56.95 55.00 53.23 52.39 51.45 50.28 49.85 50.32 50.23 49.12 47.54 46.66 46.49 46.09 45.26 44.99 44.61 44.17 44.21 44.62 44.39 43.68 42.67 41.93 41.64 42.18 40.92 39.87 40.20 38.94 38.71 39.50 38.80 37.68 36.88
57.02 57.40 57.73 57.85 57.21 56.57 56.21 55.55 54.36 53.02 52.00 50.71 48.65 49.17 49.84 49.29 48.18 46.86 46.02 46.58 45.61 45.75 45.00 44.29 43.90 43.82 43.76 43.92 42.44 40.25 41.32 40.90 40.24 39.65 39.44 38.48 38.51 38.26 38.37 37.84 37.12 36.68 36.53
56.80 56.95 56.83 56.07 55.49 54.95 54.61 53.91 52.63 51.56 49.83 47.04 49.07 48.84 48.01 47.20 46.23 45.65 45.93 45.69 45.14 44.45 44.25 43.79 43.22 42.85 43.34 42.65 41.43 39.91 40.72 39.87 39.12 38.67 38.02 37.82 37.64 36.29 36.34 35.85 35.09 34.51 33.90
56.01 55.92 55.07 54.73 54.39 54.00 53.21 51.92 50.51 49.67 47.28 48.65 47.42 46.65 46.36 46.10 45.55 45.68 45.22 44.68 44.33 43.56 43.44 43.27 42.73 42.43 41.21 40.79 40.43 40.02 38.88 38.48 38.52 38.68 38.12 36.88 35.78 34.75 33.22 31.74 31.63 31.85 31.27
54.49 54.38 53.58 53.46 53.35 52.21 51.20 49.68 49.28 48.72 47.88 46.52 45.76 45.38 45.35 45.79 45.50 44.97 44.20 43.87 43.81 43.09 43.03 42.42 41.93 41.26 39.91 38.93 38.40 38.57 38.12 37.33 37.32 37.10 36.55 35.95 33.61 31.25 30.60 29.89 29.78 29.63 28.44
53.54 53.75 53.48 53.04 52.10 50.72 49.00 48.80 48.27 47.33 46.12 45.12 44.16 43.98 44.29 44.30 44.05 43.44 43.25 43.05 42.40 42.42 42.49 41.44 40.27 38.29 38.39 33.02 32.36 32.39 36.07 36.07 35.63 34.61 34.80 34.71 34.28 33.34 31.25 30.90 29.22 29.03 26.95
53.08 52.90 52.68 52.35 51.60 50.15 48.55 47.31 46.76 45.66 44.75 43.49 43.21 42.79 43.17 42.30 42.33 42.36 42.19 41.19 40.96 41.66 40.86 39.25 37.83 36.75 37.51 32.53 30.99 30.17 33.91 34.62 34.87 34.12 33.51 32.89 33.30 32.23 31.95 30.41 29.57 29.53 30.19
52.82 52.85 52.60 51.57 49.98 49.09 47.25 46.84 45.32 44.74 43.21 42.32 41.65 42.02 41.86 41.58 41.71 41.55 40.97 40.90 41.09 40.48 38.73 38.19 37.18 36.17 36.19 31.82 29.85 28.99 32.88 34.79 34.54 34.02 33.20 32.48 31.97 30.71 27.88 27.46 26.96 27.55 29.11
53.43 53.13 52.43 50.06 47.96 46.36 45.38 44.97 43.99 42.61 41.64 40.33 40.29 40.94 41.31 40.77 40.66 39.98 40.14 40.44 39.82 38.06 36.49 36.43 36.20 35.96 35.87 30.61 29.47 28.65 32.81 33.39 32.91 33.10 33.03 32.04 30.75 27.37 26.51 25.55 25.11 25.72 26.78
53.01 51.74 49.74 47.23 46.05 44.99 44.78 43.67 42.44 41.45 39.48 40.07 40.23 40.88 41.03 40.42 39.79 39.99 40.07 39.89 39.15 36.45 36.66 35.49 35.53 36.18 35.37 30.90 29.89 28.90 31.84 31.34 31.26 32.36 32.20 28.54 27.33 25.28 24.90 24.61 24.51 23.32 25.65
51.30 49.90 46.76 44.85 43.98 44.34 42.96 40.63 40.08 39.27 40.27 40.57 40.50 40.47 40.62 40.23 40.34 40.09 39.71 39.19 37.96 36.01 35.63 34.34 34.93 35.32 34.59 34.41 29.94 28.51 29.93 30.51 29.93 29.60 30.12 31.14 26.08 24.92 24.28 24.14 24.42 23.93 24.10
46.66 45.32 43.62 42.33 43.10 41.98 40.37 39.21 38.41 39.84 40.70 40.21 39.66 39.40 39.87 39.65 39.56 39.24 38.68 38.33 36.04 34.16 34.05 34.10 34.20 34.73 35.16 33.04 30.81 29.33 28.04 28.49 28.08 28.49 30.03 30.16 26.13 24.53 23.95 24.35 24.05 23.46 23.79
43.21 42.56 41.70 39.58 39.65 40.00 39.12 36.90 38.60 39.69 39.10 38.34 38.13 38.54 39.27 39.48 39.21 38.01 37.55 35.03 34.13 34.02 33.54 32.74 32.55 32.27 33.95 34.70 31.70 30.51 28.74 27.27 27.78 29.61 29.00 26.19 26.03 24.97 25.54 25.23 24.08 23.68 26.08
41.04 40.62 38.56 37.85 38.68 39.24 38.39 38.57 38.90 38.65 37.80 36.84 37.15 38.02 37.94 37.54 37.76 37.68 37.34 34.24 33.91 33.49 32.57 32.24 31.66 31.89 31.79 33.06 33.81 32.11 30.76 28.32 28.79 29.30 29.84 27.77 26.24 25.59 24.82 25.73 27.58 27.01 26.35
37.72 37.65 37.51 37.56 37.90 38.59 38.36 38.97 38.51 37.98 36.70 36.68 36.98 37.23 37.24 37.31 36.94 37.04 35.80 34.58 35.59 34.69 32.93 32.97 32.74 33.27 31.70 31.94 31.57 31.01 31.41 31.26 29.77 26.96 27.94 28.10 28.18 27.20 27.23 27.18 26.85 26.79 26.22
36.90 37.06 38.07 37.59 37.35 37.61 37.91 38.42 38.89 38.38 36.95 36.02 36.46 36.80 36.42 36.57 36.48 35.83 34.60 34.55 32.23 32.21 31.86 31.55 31.60 33.68 31.63 31.00 30.53 29.57 29.02 28.31 27.90 26.27 26.38 27.04 27.36 26.19 25.92 25.90 25.62 26.16 25.09

GFSMW_sfc_wetblb_048.txt.gz
Wetbulb
58.80 60.89 61.17 61.56 62.73 65.15 64.32 63.37 61.74 61.79 61.09 62.06 60.11 58.26 56.93 55.92 56.01 56.18 56.56 56.70 56.27 56.20 54.28 53.49 52.04 50.99 49.87 48.97 48.66 47.24 46.07 45.21 45.90 43.60 43.18 43.22 44.64 44.75 44.94 44.71 44.93 46.46 47.36
58.64 60.54 61.78 62.85 63.26 63.95 63.22 63.01 62.66 61.83 62.31 63.06 60.83 59.99 57.61 56.50 56.49 56.63 56.65 56.77 56.02 54.47 54.14 51.79 51.09 50.49 48.91 48.62 48.25 46.90 45.50 44.56 45.18 41.56 41.53 38.46 40.15 42.60 44.04 42.95 43.23 41.69 43.68
58.31 59.95 61.30 62.25 64.11 63.30 62.41 62.20 62.76 62.26 63.19 62.07 60.69 59.16 58.39 56.76 55.36 55.52 55.11 55.25 55.01 54.05 52.68 51.62 50.77 49.57 48.58 47.02 47.14 46.46 45.33 42.54 43.34 44.27 41.28 37.18 34.22 38.37 40.69 40.58 41.37 40.61 40.66
59.61 60.89 61.34 61.33 62.21 61.69 62.82 63.02 63.14 63.25 62.23 60.15 58.44 56.77 55.12 53.71 55.14 54.73 55.43 54.53 54.20 53.07 52.23 50.99 49.94 49.12 48.57 47.35 46.51 46.67 45.31 44.20 41.49 42.21 44.03 41.33 39.61 35.47 34.07 37.99 38.99 39.71 40.26
59.80 60.57 60.76 61.49 61.66 62.61 62.60 63.36 63.04 60.89 59.65 59.55 58.50 57.21 56.93 54.72 56.25 55.26 54.54 54.45 54.18 53.38 51.66 50.40 49.47 48.47 47.74 47.40 46.70 45.67 44.26 43.63 41.86 40.62 39.80 39.22 38.94 38.27 35.91 33.06 34.37 37.55 38.26
60.45 60.42 61.73 61.93 61.62 63.17 62.50 60.29 59.12 58.54 59.15 58.99 59.01 58.08 57.32 55.25 53.99 53.26 52.68 52.29 52.43 50.89 50.58 50.36 49.02 48.31 47.46 46.29 44.99 44.43 43.67 42.96 42.29 41.54 40.53 39.43 37.41 36.43 36.00 32.96 33.07 33.16 35.75
59.25 58.87 59.50 59.53 59.18 59.07 59.30 59.22 58.67 57.54 58.40 58.51 58.25 57.71 56.03 54.46 52.77 51.24 50.66 49.09 48.86 48.16 48.39 48.69 47.58 46.42 45.43 44.50 44.13 43.14 42.58 42.71 41.45 40.63 40.66 41.62 39.87 40.12 37.69 34.73 32.99 32.44 33.66
57.84 57.14 57.48 57.13 57.53 58.15 58.37 58.23 57.77 56.90 57.94 58.14 57.39 56.18 55.14 52.94 51.58 50.16 49.86 49.08 48.15 48.03 48.60 46.81 45.64 44.93 44.51 43.55 43.00 41.98 41.91 42.05 41.64 40.66 40.62 40.12 39.39 39.46 38.09 36.34 31.88 29.01 30.84
56.44 56.01 56.21 56.50 56.78 57.21 57.92 58.43 57.36 57.21 57.34 56.59 55.51 53.53 52.62 50.96 49.42 49.74 49.71 48.81 48.57 47.36 45.50 44.40 43.96 43.61 43.46 43.18 42.57 41.40 41.23 42.10 40.40 39.50 39.29 38.62 38.58 39.29 39.36 36.74 34.95 31.30 27.55
56.56 55.98 55.98 56.58 57.01 57.57 57.89 58.37 58.33 55.92 56.09 54.99 53.58 52.29 51.29 50.12 50.45 49.29 48.33 47.10 45.39 44.96 44.07 43.41 43.12 42.72 42.45 42.11 41.69 40.92 41.17 39.38 39.50 39.44 38.98 37.96 37.80 37.74 36.50 35.17 34.79 33.75 31.58
56.21 56.03 56.29 56.91 57.54 57.64 57.51 57.90 57.55 54.87 53.75 53.04 51.94 49.87 48.78 49.89 48.73 48.55 46.24 44.67 44.25 43.96 43.45 43.06 42.40 41.89 41.48 41.55 40.88 40.57 39.24 37.95 38.19 38.46 38.01 38.12 37.55 35.54 35.23 34.78 34.53 33.68 31.76
56.51 56.32 56.71 56.85 56.50 56.96 56.23 56.86 56.56 54.00 52.67 51.10 49.10 48.37 48.80 48.90 48.17 46.22 44.94 44.41 43.38 43.97 43.30 42.83 42.25 42.19 41.55 40.93 40.31 38.48 38.57 38.14 37.38 37.85 36.48 35.69 37.36 34.18 34.01 32.99 30.86 30.47 30.08
56.30 56.35 56.66 56.06 55.90 56.55 56.08 55.26 54.23 52.80 50.29 48.53 48.59 48.02 48.62 47.41 45.87 44.31 44.14 44.41 43.32 43.33 42.68 42.28 41.68 41.09 40.73 39.82 39.01 38.80 38.12 37.96 36.52 35.93 35.34 35.25 34.53 31.71 30.26 28.95 28.17 28.24 30.02
55.62 56.01 56.06 56.26 56.06 55.52 54.80 53.66 52.17 49.94 49.17 48.49 48.00 47.19 46.82 45.63 44.41 44.09 44.43 43.52 43.18 42.38 41.93 41.73 41.33 40.79 38.98 38.94 38.89 38.75 36.46 36.21 36.21 36.11 36.05 34.19 31.83 28.92 27.25 27.54 25.51 27.12 25.65
54.26 55.05 55.47 55.25 55.03 54.15 53.37 52.34 49.88 49.12 48.50 48.28 46.71 45.91 45.26 45.29 44.47 44.48 43.49 43.14 42.90 41.97 41.83 41.26 40.85 39.75 38.57 36.64 34.78 35.33 34.64 34.29 33.72 34.49 34.06 32.49 32.71 33.65 29.21 27.30 25.05 24.95 24.34
53.23 54.79 55.22 54.76 53.93 52.86 51.63 49.53 48.96 48.28 48.70 46.30 44.69 44.72 44.13 43.85 43.82 42.76 42.65 42.03 41.58 41.00 40.71 39.95 38.84 37.22 37.94 32.93 32.74 31.63 30.79 32.41 31.74 30.56 31.01 31.05 33.08 31.97 31.17 31.86 29.80 28.05 23.61
51.91 53.90 54.03 53.90 53.06 51.24 50.44 48.14 48.11 47.27 44.83 44.42 44.12 43.61 42.95 42.42 41.82 41.85 41.45 40.67 39.65 39.87 39.04 37.37 36.83 36.84 36.48 33.65 31.82 30.54 29.50 29.82 30.47 29.77 29.33 29.98 32.21 29.58 27.07 28.47 28.24 27.46 28.80
52.27 53.81 53.64 52.81 51.84 50.03 49.26 47.85 46.07 44.83 44.26 43.24 42.30 41.89 41.45 41.11 41.32 40.97 40.29 39.55 39.34 38.46 37.29 36.03 36.30 36.34 36.56 34.01 31.99 30.10 27.72 29.11 30.15 30.23 29.49 28.16 27.42 24.76 25.40 24.40 23.22 24.18 25.29
53.19 53.63 53.16 51.48 49.41 48.29 46.65 44.68 44.30 43.80 42.65 40.68 40.10 40.69 40.93 40.09 40.05 39.19 38.96 39.29 38.40 37.43 35.49 35.90 35.49 34.82 35.29 33.46 31.63 28.93 28.17 28.59 29.00 29.98 29.75 29.43 26.74 26.26 27.05 23.51 22.64 22.77 23.52
53.02 52.10 49.60 48.29 46.83 44.60 44.90 43.61 41.00 40.39 39.74 40.07 40.16 40.58 40.16 39.50 38.76 38.87 38.79 38.62 37.71 36.46 35.20 34.48 35.10 35.16 33.05 33.43 31.61 30.19 27.53 26.81 27.68 28.26 28.32 27.56 25.37 25.50 25.37 19.70 20.27 19.51 21.86
51.09 48.63 47.05 45.24 43.81 43.16 42.41 40.48 40.13 39.05 40.21 40.57 40.21 39.82 39.75 39.05 38.92 38.77 38.60 37.46 36.46 34.47 32.84 32.44 32.51 32.78 33.09 33.30 32.45 31.20 27.50 26.73 27.19 26.47 26.18 26.11 26.36 26.09 25.70 24.70 21.63 20.92 22.65
45.61 45.34 43.34 41.81 42.00 41.29 39.70 37.56 37.49 39.68 40.28 39.52 39.07 38.69 38.73 38.63 38.52 38.04 37.68 36.68 34.82 31.99 31.47 30.30 31.08 32.11 32.13 33.76 33.41 32.04 29.90 29.75 24.75 25.83 26.50 27.16 27.71 27.09 26.06 24.29 25.00 25.27 23.65
41.66 41.76 40.06 38.80 39.37 39.56 38.58 37.09 38.47 39.06 38.88 37.87 37.36 37.47 38.11 38.22 37.98 36.93 36.00 33.25 32.26 30.27 30.22 29.96 29.27 30.09 30.90 30.31 33.88 31.78 30.93 29.71 24.96 26.20 28.26 28.56 27.81 27.80 25.89 27.45 25.76 22.73 21.26
39.27 39.27 38.17 37.49 37.63 38.87 39.01 38.64 38.94 38.87 37.64 36.52 36.58 36.82 36.53 36.27 36.13 36.44 35.84 33.49 31.25 29.88 30.11 29.50 29.12 30.02 29.75 29.94 30.44 29.67 29.26 29.56 27.69 26.74 27.81 25.96 24.99 22.11 22.47 21.86 24.24 23.54 21.77
37.29 37.68 37.32 36.90 37.36 39.06 38.77 38.69 38.82 38.54 36.48 36.57 36.61 36.18 35.83 35.64 35.04 35.77 34.74 31.91 32.44 31.92 30.51 29.99 30.06 30.08 30.58 30.17 30.42 29.05 31.09 30.41 29.03 23.36 23.10 22.67 24.06 23.40 22.83 22.87 22.85 22.42 22.13
36.93 37.31 38.02 38.03 38.06 37.83 37.52 38.09 38.71 38.26 36.41 35.46 35.10 33.84 33.62 33.47 33.50 33.65 32.56 34.38 32.79 33.19 32.97 32.55 30.90 30.91 32.04 31.66 31.48 31.52 30.99 30.25 28.96 22.25 20.44 20.33 21.43 24.07 21.57 19.53 20.05 20.51 19.73

GFSMW_sfc_wetblb_051.txt.gz
Wetbulb
52.97 54.25 56.29 60.60 60.84 61.35 61.45 60.48 59.48 58.80 58.68 57.89 56.91 55.36 53.18 51.86 51.35 51.72 52.84 53.01 53.26 52.28 50.25 49.37 48.42 47.37 46.30 45.51 45.77 44.36 43.15 42.76 42.57 40.21 40.45 40.31 41.56 40.91 40.93 40.96 40.82 41.51 42.51
54.67 56.42 56.81 60.84 61.06 60.88 60.80 59.80 59.44 58.57 58.58 60.05 57.92 55.52 53.31 51.70 51.77 52.25 52.63 52.94 51.69 51.16 50.19 48.23 47.13 46.44 45.34 44.73 44.26 43.37 42.65 41.90 42.38 39.20 38.48 35.23 37.95 39.23 41.76 40.01 40.11 38.62 40.33
54.59 56.16 57.65 58.06 60.61 60.12 59.90 60.06 59.76 59.39 59.51 60.92 57.41 55.12 52.93 51.78 50.89 50.94 51.19 51.54 51.59 50.80 49.51 48.40 47.21 45.93 45.36 43.87 43.39 42.86 41.57 40.07 40.80 41.09 38.12 34.31 32.22 35.86 37.77 38.89 37.79 37.96 37.19
56.38 56.91 57.48 58.99 59.78 59.60 60.58 60.95 60.66 59.58 59.99 60.65 56.35 53.28 50.29 50.09 50.11 50.72 50.89 50.68 51.19 49.97 49.21 47.85 46.80 45.91 45.30 43.87 43.49 44.50 42.11 40.68 38.46 39.53 42.10 38.41 37.08 32.97 33.35 35.72 37.41 37.18 38.19
56.17 57.00 58.11 59.63 60.11 60.21 60.57 59.39 59.81 59.79 59.95 56.85 54.89 52.44 50.67 51.03 51.64 52.09 51.87 50.65 50.32 49.49 49.10 47.38 45.59 45.17 44.76 43.84 42.63 41.16 41.04 40.56 38.91 38.58 37.60 37.00 36.66 36.11 33.31 32.20 32.36 35.12 36.22
56.59 58.20 59.61 60.12 59.60 59.22 58.74 58.96 59.50 58.87 55.06 54.09 53.65 52.53 51.19 51.85 51.83 51.36 51.18 50.40 50.13 48.27 46.95 46.91 44.79 44.33 43.01 41.44 40.66 40.30 39.53 38.97 39.14 39.18 38.38 37.54 36.04 36.64 36.13 33.67 31.60 31.32 33.62
56.10 57.94 58.72 58.08 58.85 57.82 58.72 59.31 57.63 53.75 53.93 53.89 53.59 52.54 50.70 49.79 49.45 48.03 46.45 45.17 45.65 46.06 45.44 44.30 43.12 42.00 41.25 41.01 40.35 39.44 38.70 38.44 38.06 38.39 38.20 38.95 38.58 38.32 38.79 36.51 32.94 30.88 31.77
54.39 56.36 57.75 57.96 58.81 56.01 53.94 56.10 53.44 53.38 53.95 53.98 52.76 51.36 50.07 48.25 46.69 46.55 47.42 46.68 46.15 46.37 42.72 41.62 41.18 40.91 41.11 40.55 39.80 38.70 38.48 38.50 37.93 37.83 37.83 38.49 39.07 37.89 37.97 36.55 32.38 29.04 28.09
52.17 53.10 52.94 54.42 53.43 53.24 53.29 52.73 52.66 53.14 53.92 53.72 51.44 49.52 47.05 46.25 46.50 46.69 46.59 46.64 45.08 44.82 42.07 40.40 39.90 40.03 39.98 40.15 39.28 38.47 37.80 37.54 36.87 36.85 36.70 36.48 36.88 37.19 37.09 35.25 34.86 33.34 27.26
51.53 51.35 51.80 53.13 53.65 53.46 53.98 53.72 53.08 53.65 53.86 52.95 51.16 49.76 46.30 46.92 46.76 47.15 46.91 45.37 43.43 42.92 42.04 40.37 39.78 39.75 39.81 39.37 38.92 37.57 37.83 36.14 35.74 37.09 36.08 35.66 36.56 36.28 35.61 35.04 35.29 32.81 30.06
51.04 50.62 50.66 53.13 53.39 53.58 53.70 53.48 52.97 53.59 52.18 50.84 49.01 46.74 46.95 47.95 47.48 47.00 45.15 43.18 42.78 42.24 40.79 40.42 40.43 40.07 39.33 38.86 38.10 37.51 37.04 36.50 35.80 35.76 35.63 35.44 35.77 34.46 33.16 32.65 31.02 28.76 26.86
52.31 51.41 51.02 51.89 53.15 54.23 55.42 55.26 53.42 51.95 50.22 47.69 47.33 48.34 48.10 47.65 47.14 46.11 43.47 43.06 42.01 41.73 40.77 40.42 40.32 39.71 39.21 38.93 37.89 35.85 36.88 35.99 35.67 35.83 34.55 33.85 35.75 31.79 29.63 27.77 25.89 25.14 25.29
51.65 51.44 51.00 52.58 54.47 54.85 54.98 54.66 51.60 48.13 47.89 48.04 47.92 47.60 47.17 47.20 44.82 43.66 42.67 42.49 40.96 40.99 39.62 40.99 40.25 39.32 39.37 37.19 37.35 36.78 36.61 35.85 35.73 35.07 33.98 33.58 32.37 27.49 25.95 25.58 24.37 24.45 27.05
52.64 51.74 51.63 53.08 54.56 54.14 53.81 51.98 47.90 47.69 47.78 47.72 47.79 46.42 46.53 44.78 42.49 42.34 42.14 40.61 40.93 39.83 40.34 40.45 40.21 39.06 37.15 37.18 36.59 36.37 34.69 34.45 34.73 34.76 34.40 32.23 28.90 26.68 25.36 25.58 23.51 24.92 23.19
50.33 51.02 50.77 51.65 51.70 51.40 49.96 47.81 47.48 47.25 47.53 46.67 45.22 42.40 42.90 42.90 43.06 42.22 41.19 41.21 40.99 40.54 40.38 40.16 38.88 37.34 36.64 35.51 33.37 33.31 32.76 31.47 31.11 30.90 31.75 30.13 32.85 35.01 28.58 26.23 23.31 23.35 22.59
49.16 50.64 51.69 51.65 50.95 49.99 47.17 47.02 46.34 46.46 47.00 43.35 42.73 42.79 42.64 42.58 41.21 40.24 39.82 40.18 39.62 39.13 39.38 38.36 37.00 35.43 36.78 34.14 33.57 32.02 29.50 30.03 29.20 27.89 28.87 28.52 31.40 31.11 31.23 30.61 29.35 27.73 22.60
48.22 49.94 50.10 50.35 49.72 47.52 46.87 46.12 46.17 44.43 43.09 42.22 42.50 42.37 42.10 40.65 39.89 39.97 39.72 38.87 38.06 38.28 37.50 36.28 35.76 35.00 34.73 34.55 33.65 31.88 28.02 27.61 27.45 27.22 27.24 28.27 30.15 27.74 25.59 26.37 26.76 25.72 26.87
48.09 48.90 47.79 45.91 45.95 46.36 46.41 44.40 43.48 42.80 41.95 41.49 40.14 40.30 39.72 39.07 39.18 39.62 38.99 37.86 37.70 36.86 35.67 34.36 34.46 34.19 35.15 35.12 34.28 31.97 26.79 26.97 27.46 27.89 27.29 26.41 24.96 25.03 24.83 23.60 22.39 22.62 23.51
47.10 45.86 44.89 43.34 41.53 41.30 42.07 42.48 41.92 41.03 39.37 38.10 38.20 39.25 39.37 38.85 38.72 37.88 37.17 37.18 36.28 35.34 34.36 34.66 34.02 32.85 32.54 34.74 34.06 31.18 27.17 27.37 27.14 28.22 28.07 27.84 24.21 26.85 26.75 23.38 21.78 21.48 22.32
44.77 42.87 40.98 40.66 39.46 39.02 39.13 38.06 37.29 37.84 36.89 38.56 38.73 39.51 39.37 38.52 37.36 36.96 36.10 36.29 36.06 34.81 33.61 32.71 32.63 33.83 31.72 34.11 33.98 31.59 27.36 26.63 26.59 26.84 26.91 28.06 24.83 25.78 25.80 19.39 18.57 17.79 20.26
40.75 40.54 39.52 37.75 37.51 38.38 38.08 36.90 36.98 36.44 38.37 39.44 39.39 38.96 38.82 37.45 36.68 36.23 36.47 35.70 34.37 32.41 30.67 30.99 30.96 30.97 30.97 31.47 34.39 33.24 27.89 26.56 26.25 26.23 24.94 24.72 26.68 26.50 27.18 26.35 21.05 18.64 22.17
37.69 37.64 36.44 35.72 36.05 36.99 37.86 36.81 36.03 38.46 39.32 38.60 37.97 37.48 37.15 36.94 36.74 35.46 35.02 34.37 32.20 30.01 29.52 24.65 27.64 28.46 30.32 32.36 33.46 34.13 32.48 28.71 24.75 25.50 25.40 25.42 28.50 28.53 28.06 26.20 25.86 26.10 24.39
36.64 37.25 36.28 36.75 37.13 37.50 37.63 36.40 36.29 37.50 37.48 36.25 35.40 35.55 35.73 35.40 35.10 33.46 32.51 30.44 29.77 26.88 27.47 27.78 25.82 26.81 29.15 29.19 32.93 33.83 32.96 31.19 26.19 25.29 25.89 28.24 29.31 28.73 27.50 28.06 27.84 24.10 20.08
36.13 37.25 36.91 36.18 36.31 37.16 37.56 36.93 37.86 37.57 35.52 33.95 33.75 34.03 33.45 33.06 32.77 33.06 32.79 30.55 27.05 25.92 27.50 27.25 26.99 26.34 27.23 27.25 27.27 27.92 30.52 31.15 28.87 26.06 25.93 24.14 25.38 22.93 23.20 22.78 24.55 22.60 20.20
36.30 37.07 36.01 35.39 35.44 36.85 37.07 36.89 35.98 36.14 33.91 33.38 33.18 32.91 32.44 31.72 31.53 32.46 31.71 30.21 29.02 28.32 27.09 27.13 27.69 26.00 25.13 28.03 30.03 29.20 27.26 25.13 27.03 23.95 24.18 24.62 21.21 21.81 23.79 22.73 22.47 21.63 20.76
36.92 35.82 36.01 35.64 34.83 34.01 33.83 34.54 35.03 34.56 32.98 32.15 31.67 30.07 29.42 29.35 29.76 29.79 31.25 32.84 31.88 32.36 33.18 33.15 30.29 30.36 32.10 32.47 33.23 32.70 32.31 32.15 29.91 24.66 19.79 14.72 13.91 17.11 21.92 21.85 20.00 17.59 17.36

GFSMW_sfc_wetblb_054.txt.gz
Wetbulb
54.66 56.53 57.03 57.60 57.98 59.09 59.22 58.53 57.49 56.76 56.66 56.02 56.10 54.91 52.07 51.65 50.60 50.77 51.71 52.00 51.64 51.93 48.89 47.24 46.13 45.51 45.16 44.27 43.96 42.86 42.09 41.36 41.31 38.94 38.82 38.97 39.47 39.45 39.37 39.14 39.09 39.70 40.33
52.17 55.87 56.82 57.09 57.79 59.46 59.09 58.44 57.79 57.06 56.85 57.70 56.12 55.05 52.90 50.86 50.35 50.66 51.15 51.91 50.60 49.08 48.32 46.67 45.47 45.07 44.20 43.56 42.89 42.22 41.31 40.42 40.67 38.35 36.62 34.45 36.18 38.11 40.68 38.23 39.18 36.81 38.22
51.14 54.62 56.70 57.07 58.39 58.89 58.82 58.38 58.15 57.56 57.52 58.57 57.16 53.37 51.48 50.18 49.59 49.56 49.69 49.66 50.00 49.81 48.23 46.82 45.67 44.76 44.09 42.64 42.14 41.30 40.27 38.82 39.22 39.35 37.32 33.22 31.28 34.08 36.35 37.33 36.93 36.55 36.06
53.25 55.85 57.12 57.63 58.20 58.94 59.23 59.10 58.75 58.19 58.05 59.25 56.80 52.34 50.21 49.40 49.22 49.38 49.61 49.33 49.94 49.03 48.21 47.15 45.69 44.52 43.97 42.77 42.48 42.38 39.97 38.80 36.73 37.96 40.70 37.66 36.57 32.50 31.29 34.95 36.86 36.08 37.26
53.77 55.47 57.79 58.70 59.44 59.34 59.17 59.25 59.27 59.28 58.66 59.24 56.51 52.88 49.66 49.69 49.35 49.74 49.14 48.98 48.42 48.21 47.05 45.75 44.61 43.78 43.39 41.72 40.17 39.05 38.67 38.44 37.24 36.91 36.47 35.84 35.55 34.55 32.36 31.38 31.65 34.55 35.46
54.08 55.61 58.47 59.50 59.10 59.66 59.58 59.47 59.32 58.73 58.34 57.88 54.51 53.07 50.55 49.73 49.55 49.45 48.72 48.56 48.36 46.49 46.44 44.98 43.67 42.46 40.97 39.85 39.20 38.29 37.46 36.75 36.55 36.93 36.86 36.52 35.12 34.20 33.81 33.53 34.35 34.43 33.51
53.19 55.82 57.74 58.36 58.73 58.86 59.24 59.24 58.48 57.77 55.46 54.08 53.33 51.79 50.51 50.04 49.94 49.47 48.23 46.40 44.99 45.36 44.52 43.55 43.35 42.05 41.06 40.64 39.14 37.60 36.97 36.41 35.60 35.97 36.91 37.53 37.66 38.06 36.55 34.72 33.47 32.34 30.61
55.23 56.41 57.19 57.86 57.94 58.14 57.77 58.82 58.11 54.43 52.30 52.28 51.40 50.02 49.21 47.99 47.33 48.00 47.11 46.49 45.99 44.07 43.22 41.78 42.37 41.41 41.40 40.36 37.85 37.09 36.61 37.11 36.17 35.68 36.02 36.37 37.10 37.17 36.72 34.89 30.98 29.23 28.11
55.27 56.02 56.55 56.82 57.07 56.42 56.10 56.16 54.51 52.59 52.18 51.34 49.55 47.69 47.46 46.46 47.66 47.27 46.64 45.16 43.98 43.48 42.38 42.06 41.43 40.03 38.63 38.20 37.85 36.82 36.49 35.78 34.80 34.74 35.42 35.36 38.39 38.31 37.12 36.47 36.58 34.15 29.04
52.17 53.76 55.42 55.27 54.93 54.71 51.89 51.52 53.23 53.33 52.68 50.50 49.44 48.45 47.63 46.75 47.66 47.84 46.14 43.99 43.46 43.01 42.54 41.00 40.04 39.15 38.66 38.61 38.54 37.26 36.51 35.73 35.16 35.97 35.44 34.71 35.45 35.48 35.89 34.15 34.35 33.23 30.77
51.00 52.36 53.65 54.41 54.11 53.23 52.34 51.56 51.78 52.15 51.61 49.78 47.27 46.91 47.76 47.72 47.49 46.05 44.33 43.18 43.07 42.34 41.49 41.19 39.37 39.16 38.93 39.77 38.02 36.50 36.93 36.80 35.49 35.34 35.04 35.21 34.75 33.56 33.18 31.50 29.40 26.59 25.87
51.15 51.73 52.33 52.90 52.20 52.72 52.67 52.34 52.74 52.82 49.20 47.07 46.86 47.64 47.73 48.43 47.43 44.96 43.82 43.81 41.98 42.16 41.13 39.90 39.09 39.32 38.87 39.17 37.38 35.59 35.39 35.29 34.59 34.74 34.28 33.79 35.42 31.15 29.38 26.48 25.60 24.44 24.08
50.57 50.21 50.84 51.92 52.25 52.97 53.13 51.62 49.39 46.40 46.95 47.29 46.97 47.57 46.78 47.18 45.88 45.02 42.88 42.17 40.98 39.49 38.95 39.11 39.14 38.84 38.92 36.65 36.55 36.44 36.17 35.40 34.81 34.42 33.17 33.42 32.83 28.11 26.50 25.23 24.21 23.81 26.37
51.53 50.38 49.67 51.10 52.22 52.14 50.81 48.68 48.03 48.15 48.51 48.43 47.77 46.63 46.88 46.80 43.55 42.03 40.95 40.43 40.60 38.58 38.80 39.84 39.45 38.77 36.61 36.45 36.05 35.40 33.70 33.22 33.29 32.70 31.45 31.07 28.76 26.88 25.46 24.87 23.27 24.00 22.85
49.99 49.83 48.62 49.68 51.02 51.57 48.58 47.32 47.91 48.01 48.41 46.83 44.67 44.70 42.86 41.44 42.14 41.34 39.24 40.52 39.45 39.55 40.29 39.83 38.28 37.15 36.34 35.30 34.38 33.69 32.08 30.83 30.41 30.40 30.63 30.11 30.66 33.78 28.32 25.36 23.11 23.04 21.84
47.10 48.94 50.43 50.77 50.55 48.46 46.30 46.44 46.72 46.57 45.53 42.13 41.52 42.04 42.07 41.77 41.01 39.41 39.28 38.59 39.56 39.33 38.60 37.71 36.90 34.77 36.04 35.37 34.77 32.86 29.74 29.69 28.45 27.32 28.34 27.93 30.69 31.13 31.55 30.74 29.36 26.14 21.69
48.11 48.95 49.81 49.83 48.54 46.52 46.83 44.92 43.30 41.60 40.57 40.30 41.33 42.12 42.10 40.25 39.57 39.53 39.15 38.48 37.45 37.38 36.61 36.25 35.56 34.81 34.38 35.33 35.32 33.85 28.31 27.66 27.17 26.35 26.87 27.52 29.47 28.73 26.29 27.49 26.75 25.23 26.13
45.64 44.88 44.35 43.41 43.68 43.40 41.46 41.21 41.29 40.98 39.50 38.56 39.75 39.87 38.89 38.51 39.52 39.13 38.20 36.73 36.63 35.82 35.08 34.41 34.21 33.34 34.14 35.49 35.53 34.20 27.84 26.23 26.61 27.09 27.78 26.46 25.55 25.30 24.99 23.74 22.88 22.88 22.60
39.98 38.97 39.31 39.53 39.73 40.06 40.24 38.78 37.17 37.97 37.96 38.11 38.44 39.18 39.96 39.41 38.64 36.73 36.26 35.85 34.64 34.25 33.67 33.94 33.03 31.88 31.38 34.45 34.98 33.43 26.92 25.85 26.63 28.90 28.74 27.50 25.39 26.72 28.50 24.27 22.61 21.84 21.74
38.46 37.39 37.52 37.77 37.36 37.05 37.83 36.81 35.65 36.54 36.28 38.19 38.81 40.45 39.85 37.77 37.12 36.33 35.23 34.35 33.87 33.48 32.65 31.82 31.54 32.95 30.85 33.37 34.83 33.62 26.08 27.78 27.87 28.20 27.50 29.43 26.07 27.50 26.91 20.80 20.19 18.05 19.94
35.71 35.92 35.74 34.81 35.44 36.88 37.45 36.68 36.90 36.56 38.04 39.97 39.93 38.53 38.11 36.88 36.19 34.47 33.99 33.58 32.43 30.88 30.12 30.04 30.04 30.38 30.90 30.23 33.85 34.82 30.03 28.95 27.71 26.65 26.14 25.62 28.26 27.81 27.82 27.74 21.79 18.89 21.77
35.26 35.73 35.23 35.90 37.47 38.30 37.92 36.30 35.15 37.40 38.28 36.85 36.38 35.62 35.39 35.09 34.75 33.07 32.37 32.30 30.60 29.21 28.93 24.78 27.55 27.90 29.44 31.87 32.81 34.50 33.59 31.67 27.39 27.06 27.13 25.94 28.52 28.76 28.61 27.82 26.84 27.38 24.46
35.22 36.95 36.09 35.84 36.81 36.85 36.11 35.22 35.68 35.94 35.81 35.10 34.14 33.55 33.89 33.45 32.81 31.57 31.10 29.29 28.65 26.38 27.21 27.73 27.67 27.50 28.17 28.44 32.66 33.69 33.59 32.69 29.98 28.12 27.89 28.25 28.81 28.93 28.39 29.13 28.70 24.86 20.90
36.12 36.83 36.11 35.47 34.71 36.29 36.28 35.58 36.23 36.06 34.34 32.80 32.40 32.19 31.32 31.37 31.12 31.06 31.01 29.37 27.43 26.75 27.77 27.43 27.09 26.58 27.50 27.45 27.53 28.65 29.32 32.45 32.07 27.93 28.30 25.06 25.62 21.75 22.41 22.40 24.84 23.56 21.06
36.66 36.77 35.71 34.63 34.35 34.90 34.38 33.78 33.71 33.86 32.20 31.61 31.51 31.25 30.93 30.48 30.16 30.79 31.03 30.51 30.23 30.09 29.78 27.62 27.23 24.61 24.89 27.41 29.77 30.00 27.82 28.07 29.10 28.08 25.43 24.98 24.12 22.21 22.09 22.17 22.49 22.03 21.41
36.26 35.57 33.76 31.71 31.03 31.59 31.68 32.39 33.31 32.81 31.07 30.23 29.72 28.76 28.77 29.04 29.15 29.56 30.67 33.00 32.18 32.54 32.24 32.94 29.96 29.18 31.44 32.65 33.08 32.99 32.75 32.47 30.74 26.93 24.64 24.31 21.27 21.06 21.56 20.39 20.40 19.72 18.98

GFSMW_sfc_wetblb_057.txt.gz
Wetbulb
57.32 57.77 58.79 56.42 56.35 57.41 57.74 57.01 56.56 55.64 55.90 54.98 53.54 52.19 51.68 50.92 50.40 50.37 51.38 51.73 51.52 50.06 46.87 45.94 44.91 44.92 44.09 42.96 42.83 41.88 41.12 39.66 39.63 38.09 37.84 38.04 38.09 37.73 38.04 37.96 37.36 38.35 38.86
54.13 55.85 55.87 55.10 55.95 57.64 57.58 56.91 56.88 55.94 55.75 55.61 54.63 54.12 51.84 50.71 49.96 50.24 50.61 51.11 50.71 48.76 47.13 45.47 44.35 44.63 43.82 42.70 42.00 41.35 40.31 39.29 39.33 37.14 35.35 32.97 35.22 37.29 38.78 37.28 38.31 36.16 37.02
52.24 53.79 53.81 54.41 55.37 57.15 57.21 57.42 57.16 56.42 56.00 56.55 54.69 51.76 50.26 49.48 48.62 48.72 48.96 49.64 48.93 48.17 47.06 45.63 44.56 43.58 43.24 41.92 41.07 40.32 39.55 37.91 38.06 38.25 35.97 31.58 29.71 32.95 35.78 36.33 36.18 36.21 35.26
52.41 53.86 54.02 54.10 55.24 57.27 58.20 58.28 57.57 56.54 56.48 57.37 54.60 51.79 50.03 48.13 48.38 48.54 48.92 48.68 48.89 48.08 46.96 45.94 44.51 43.58 42.83 41.89 41.24 41.24 39.68 37.97 35.85 37.01 39.83 36.85 35.58 32.29 30.67 34.25 35.61 35.02 36.63
51.34 53.38 54.32 55.04 56.07 57.79 58.00 57.96 57.63 57.19 57.46 57.69 56.30 52.61 49.21 48.72 48.80 48.76 48.48 47.66 47.48 47.24 46.21 45.10 43.90 42.93 42.63 40.22 38.95 38.26 37.72 37.96 37.66 35.86 35.29 34.72 34.12 33.32 32.16 29.24 31.73 34.41 35.93
50.54 53.66 55.65 56.07 56.71 58.03 58.12 57.48 57.57 57.46 57.83 57.93 55.94 53.10 50.33 48.82 48.50 47.77 47.45 47.14 46.02 44.79 44.60 44.41 43.56 42.80 39.83 38.97 38.61 37.59 37.18 35.71 35.15 35.41 35.07 35.20 34.18 33.48 32.10 30.19 30.89 31.31 33.91
50.11 53.15 55.32 56.31 57.35 57.72 58.16 58.04 57.86 57.78 57.77 57.87 55.84 53.44 50.85 49.69 49.13 48.48 48.28 45.81 43.72 43.90 43.65 43.75 42.95 42.38 40.40 39.75 40.31 37.71 36.37 35.41 34.50 34.68 35.73 36.69 36.34 36.55 35.27 33.27 31.99 31.23 30.30
52.02 54.73 56.42 57.18 57.53 58.45 58.68 58.28 58.27 57.96 57.26 56.04 54.50 52.38 50.63 49.72 48.43 47.83 46.97 45.45 45.00 43.11 43.37 43.70 42.19 42.19 42.20 40.79 38.94 37.28 35.94 36.23 35.03 34.59 34.56 34.99 35.82 36.11 36.34 34.25 30.73 28.22 30.52
52.11 54.95 56.86 57.57 57.64 58.87 58.09 57.96 57.78 57.20 54.38 53.72 51.36 49.38 49.34 47.36 46.03 46.86 46.18 43.93 43.75 44.90 43.97 42.37 42.27 41.68 40.52 39.54 38.20 36.55 35.95 35.29 34.37 33.71 34.18 34.22 35.11 35.86 35.92 34.61 34.76 34.19 29.89
52.64 54.42 56.20 56.46 57.32 57.93 57.79 56.92 56.76 54.98 52.30 50.63 49.52 47.84 46.80 47.35 46.76 45.76 43.79 44.12 44.30 44.13 42.48 41.78 41.44 40.30 39.56 38.52 38.28 37.42 35.79 35.50 34.72 35.00 34.04 34.16 34.15 33.88 33.74 35.19 34.92 35.64 33.31
52.97 54.43 55.70 56.49 57.03 56.60 54.30 55.13 53.15 52.17 50.27 48.41 46.08 45.53 45.75 46.25 45.35 44.44 44.29 44.38 43.67 43.51 42.98 42.20 40.90 39.99 38.40 37.88 36.98 36.34 35.72 35.03 34.63 34.60 34.60 34.53 33.86 32.49 31.90 30.94 28.67 27.22 26.76
52.19 54.16 55.15 55.01 53.91 53.42 53.13 52.86 52.93 51.61 49.84 45.84 45.63 45.92 46.30 46.15 45.93 44.65 43.33 44.08 43.62 43.39 42.46 41.68 39.13 37.88 38.30 37.99 36.07 34.86 34.61 34.24 33.74 34.16 33.40 33.23 34.90 31.02 29.16 27.40 26.41 24.98 23.91
49.42 50.94 52.05 53.33 53.82 53.43 52.35 49.78 47.89 45.18 46.25 47.07 46.62 46.94 47.17 46.37 44.05 43.35 43.86 43.17 42.79 41.91 39.57 38.07 37.70 38.42 37.13 36.19 35.17 34.92 34.60 34.85 34.47 33.83 32.72 32.56 32.19 30.03 26.87 25.23 24.23 23.65 25.55
49.73 48.06 49.08 51.02 51.74 51.55 49.52 46.80 46.14 46.47 46.41 46.86 47.00 46.67 45.97 45.81 45.27 43.58 41.06 40.61 40.56 39.37 39.05 39.16 38.22 37.81 36.65 35.62 35.11 35.28 33.77 32.83 32.84 32.29 30.55 29.78 29.17 27.46 25.53 24.97 23.78 23.63 22.44
48.95 48.08 47.34 48.42 49.53 48.45 47.41 47.16 47.37 48.34 48.56 47.78 46.95 47.32 46.49 44.82 41.24 40.12 39.47 40.78 40.42 39.84 39.58 38.94 38.01 36.62 35.80 35.00 33.41 33.08 31.95 30.41 29.67 29.57 29.23 28.80 29.68 32.13 29.12 25.40 23.15 22.51 21.49
46.85 48.65 48.59 49.12 49.57 47.15 45.97 46.84 47.33 47.82 48.04 46.76 43.94 42.73 41.81 41.57 41.05 41.04 39.67 39.38 39.37 39.47 38.72 37.18 36.21 34.37 34.90 35.35 35.68 33.46 29.94 29.87 28.76 27.34 27.45 27.83 30.73 30.47 32.92 32.02 29.79 25.59 21.89
47.18 47.77 48.38 48.30 46.65 45.50 46.07 45.20 43.08 41.45 41.28 42.29 42.19 41.91 41.64 39.89 39.38 39.26 39.32 38.84 37.95 37.58 36.65 35.91 35.11 34.01 33.69 35.77 36.15 35.22 30.28 28.63 27.56 26.26 26.39 27.48 28.89 29.68 27.79 30.53 29.53 27.94 27.46
41.59 41.52 42.09 42.26 41.24 40.37 39.69 39.89 40.32 40.60 40.73 40.06 39.44 39.24 39.45 39.44 40.42 40.73 40.13 37.69 36.67 34.54 34.02 33.94 33.86 32.86 33.34 35.28 36.00 35.20 30.66 27.49 26.88 26.33 26.66 28.01 26.18 26.72 26.13 24.23 23.43 23.40 23.60
36.42 35.99 37.56 38.36 38.54 38.44 38.62 37.89 37.61 38.89 38.37 38.10 38.93 40.52 41.14 40.97 40.58 38.28 36.74 35.63 33.39 32.58 32.70 33.07 32.51 31.34 31.23 34.14 34.89 33.97 29.60 27.61 26.56 27.17 27.36 28.45 27.85 28.81 30.16 24.76 23.39 23.16 23.03
35.90 35.51 35.88 35.96 35.34 35.11 36.43 35.80 36.04 37.40 37.11 38.50 40.11 41.05 39.98 38.85 37.09 35.52 33.94 33.19 32.23 32.10 31.56 30.73 30.54 32.25 30.53 33.44 34.57 34.02 28.06 27.07 27.70 27.47 28.52 31.26 28.83 28.55 28.97 22.62 21.06 19.62 21.77
34.23 35.26 35.33 34.59 35.01 36.38 36.85 35.31 35.25 36.29 38.66 40.14 39.27 38.85 37.34 36.64 35.26 33.21 32.20 31.90 30.72 29.91 29.33 29.45 29.56 29.71 30.27 30.58 34.30 34.81 29.30 28.74 29.80 28.66 27.55 27.36 29.33 29.72 29.17 28.27 22.35 20.72 22.71
34.01 35.05 34.48 34.45 35.31 36.42 36.38 35.15 35.78 37.69 37.86 36.59 35.45 34.91 34.22 33.82 33.34 31.27 30.64 30.24 29.28 28.47 28.32 25.00 27.63 28.16 29.29 31.55 32.61 34.25 33.96 32.10 30.16 28.53 28.15 27.83 29.61 30.00 29.54 28.09 27.81 28.25 24.63
33.15 34.35 35.79 35.80 35.67 36.70 36.14 33.99 34.42 35.14 34.99 33.71 32.48 32.32 32.61 31.80 31.17 30.01 29.55 28.63 28.39 26.48 27.55 27.87 27.93 28.60 28.96 28.33 31.78 32.90 33.22 33.12 31.62 31.18 30.33 29.76 29.89 30.44 28.93 29.41 29.21 26.13 22.82
34.35 36.35 35.74 35.40 35.46 36.30 35.08 33.62 33.39 33.68 32.43 31.07 30.87 30.61 29.58 29.94 29.80 29.72 29.44 28.49 27.08 27.24 28.76 28.86 28.38 28.63 29.34 27.40 27.62 27.64 27.97 31.63 32.06 31.03 31.69 29.33 28.23 27.50 26.59 24.40 26.58 23.54 21.56
35.88 36.12 34.94 33.32 31.68 31.69 31.27 31.99 32.14 31.87 30.52 30.22 30.03 29.86 29.36 29.06 29.34 29.41 28.81 29.55 30.06 29.75 30.05 30.58 29.98 29.45 28.45 28.71 30.09 28.70 26.69 26.58 28.09 29.03 29.52 26.53 25.64 24.81 24.61 23.73 23.51 22.98 21.08
34.38 32.25 31.95 31.06 29.87 30.49 30.89 31.52 32.18 31.09 29.61 28.87 28.63 28.15 28.18 27.78 28.03 28.05 28.55 31.75 31.63 32.48 32.89 33.04 31.15 31.93 32.76 32.53 33.27 33.10 32.52 32.51 31.41 28.23 26.73 23.86 23.89 24.21 23.81 22.23 22.52 20.58 19.02

GFSMW_sfc_wetblb_060.txt.gz
Wetbulb
56.28 56.18 57.60 57.49 56.36 56.35 57.36 57.26 56.14 55.18 56.06 55.19 53.26 52.26 51.93 51.64 51.40 51.43 51.60 51.17 50.77 48.61 46.97 45.56 44.45 44.42 43.47 42.41 41.99 41.41 40.79 39.83 39.74 38.28 37.50 37.93 38.35 38.76 38.57 38.93 38.74 39.42 39.75
55.58 55.84 56.36 56.06 55.30 56.57 57.52 56.62 56.85 55.68 56.50 56.75 53.47 53.18 51.83 50.72 50.23 50.10 50.52 51.01 49.53 47.20 46.36 44.59 43.76 43.67 42.90 42.23 41.59 41.52 39.99 39.37 39.06 36.80 35.09 33.00 35.46 37.53 38.74 37.77 38.79 37.84 38.52
54.79 55.32 55.78 55.43 55.14 55.92 56.83 56.86 56.93 56.16 56.27 55.66 54.07 50.80 50.03 49.80 48.61 48.42 48.67 49.49 49.64 47.61 46.09 44.62 44.06 43.37 42.58 41.38 40.54 39.90 39.26 37.45 37.95 38.31 35.51 30.62 29.60 33.12 36.31 37.06 37.23 37.64 37.23
54.13 54.69 54.56 53.61 54.05 55.40 56.77 57.00 56.93 56.04 55.48 55.64 53.47 51.51 50.85 48.65 48.40 48.86 48.65 48.67 48.45 47.16 45.69 44.65 43.75 42.68 42.33 40.96 40.52 40.67 39.13 37.43 35.69 36.54 39.58 36.81 35.32 32.54 31.26 35.19 36.21 36.63 37.27
52.15 52.46 53.83 53.97 54.18 55.13 55.94 56.38 56.54 56.04 55.72 56.07 54.91 53.01 50.70 50.63 50.27 48.50 48.72 47.64 46.44 46.34 45.45 44.28 42.99 42.27 42.07 40.72 40.95 40.08 39.40 38.19 36.63 35.70 35.03 34.63 34.44 33.98 32.86 30.24 32.97 35.29 36.58
50.58 51.49 52.53 52.75 52.80 54.98 55.26 56.00 56.12 56.22 56.24 56.46 55.64 54.00 53.27 50.69 49.66 47.76 48.01 46.36 44.73 43.98 43.59 43.27 42.39 40.80 40.45 41.45 40.37 38.10 38.05 36.54 36.18 36.00 35.59 35.57 33.90 33.41 32.14 30.40 30.75 31.46 34.45
47.83 48.93 50.49 52.20 53.78 55.46 56.18 56.76 56.56 56.28 56.74 56.58 55.92 54.82 53.94 51.67 49.67 47.99 47.61 45.14 42.89 42.02 41.97 41.28 41.81 42.78 42.28 41.98 40.89 39.52 38.41 37.74 36.23 34.93 35.02 36.24 36.25 36.51 35.28 33.72 32.97 31.42 31.86
47.35 49.28 51.79 53.39 54.56 56.00 56.60 57.41 56.90 57.44 57.25 57.10 56.78 55.94 54.29 50.76 48.85 48.61 48.67 44.61 43.31 42.22 42.41 44.17 43.46 43.49 42.67 41.43 40.30 39.45 38.38 37.71 35.55 34.75 34.62 34.81 35.39 35.86 35.99 34.48 31.64 32.10 31.83
47.59 49.98 52.43 54.53 55.42 56.16 56.77 57.88 57.84 58.04 57.49 57.58 56.36 54.52 52.53 50.44 47.77 46.36 45.62 44.23 43.60 43.50 44.26 41.96 42.40 42.63 41.67 40.89 40.17 37.57 36.11 35.46 34.69 34.22 33.83 33.87 34.68 35.05 35.25 35.00 34.44 35.14 29.87
48.29 50.49 53.44 55.42 56.36 56.97 57.84 58.38 57.96 57.73 56.93 56.04 54.30 53.65 50.70 48.03 46.77 46.59 44.21 43.01 44.42 44.26 42.75 42.93 42.78 41.30 41.15 40.03 38.99 36.36 35.98 35.02 34.32 34.31 33.73 33.45 33.98 33.92 33.78 34.06 34.83 35.44 34.70
49.67 51.42 53.76 55.34 56.06 56.70 57.08 57.10 57.14 56.86 53.18 52.84 50.76 47.53 45.63 45.21 45.26 44.88 44.09 44.82 43.96 43.46 43.59 42.45 42.49 41.14 40.52 37.46 36.91 35.85 35.46 34.79 34.61 34.63 33.84 34.21 34.10 32.66 32.50 32.28 31.07 29.89 29.59
50.61 52.00 53.00 53.96 54.61 55.58 55.66 55.66 55.08 54.50 51.26 46.51 44.93 44.97 45.10 44.80 45.12 43.94 44.75 44.97 43.81 44.18 43.58 43.39 41.71 40.49 37.85 36.65 35.93 34.92 35.14 34.17 33.24 34.19 34.06 33.45 34.44 31.22 30.20 28.80 27.44 26.65 25.82
49.78 51.39 52.22 53.41 54.43 55.11 53.34 52.56 51.51 49.40 46.96 46.19 45.28 45.40 45.54 45.00 44.45 44.49 44.35 44.83 44.08 43.50 42.32 41.69 40.25 39.10 36.94 35.99 36.07 35.30 35.15 34.63 34.69 34.05 32.85 32.68 31.89 30.46 29.39 27.29 26.17 25.30 26.30
49.40 49.24 50.10 51.18 51.86 51.39 49.73 47.88 46.31 47.99 47.62 47.23 46.97 46.47 45.44 45.45 44.40 44.55 43.80 43.02 42.73 41.40 40.52 40.16 39.58 37.92 37.08 36.89 36.23 35.11 34.28 33.47 33.21 32.80 32.11 30.99 29.18 28.60 28.62 27.04 25.34 25.04 23.55
48.10 48.08 47.68 48.89 49.39 48.51 46.41 45.90 45.89 46.59 47.37 47.15 46.36 46.33 46.77 45.88 44.34 42.10 41.91 41.93 41.46 40.62 39.70 39.13 38.28 37.92 37.22 35.92 34.60 33.45 32.19 31.03 30.51 30.52 30.02 29.48 30.30 32.58 29.19 26.26 25.10 23.53 22.65
45.69 47.39 46.23 48.09 47.98 46.81 46.48 46.29 46.36 45.92 46.29 45.96 44.77 44.90 44.44 42.37 41.69 41.32 40.77 40.00 39.13 38.95 39.19 38.36 37.57 36.62 35.84 35.68 36.04 33.45 30.79 30.57 29.95 29.10 29.01 28.11 30.77 31.25 33.90 34.26 31.44 26.20 23.23
44.83 45.60 45.87 45.82 45.07 44.56 45.61 44.68 43.52 43.22 42.88 42.86 42.49 42.26 41.66 40.39 39.58 39.39 39.77 40.15 40.12 39.74 38.12 37.04 35.71 34.21 33.45 35.58 36.52 35.84 31.35 30.16 29.43 28.35 27.48 27.59 28.68 30.23 28.13 30.72 32.10 30.50 29.27
39.16 40.07 40.09 38.90 38.41 39.05 39.06 39.50 40.49 40.27 40.42 39.97 39.51 39.30 39.34 39.97 41.14 40.94 40.57 40.19 38.64 36.22 33.89 33.46 32.80 32.02 33.02 35.15 36.01 35.73 32.14 30.24 29.16 28.37 27.38 26.34 26.53 27.58 27.87 26.69 26.11 25.07 25.14
34.41 34.52 35.53 36.07 36.56 36.77 37.73 37.90 37.92 38.84 39.12 39.77 40.34 40.98 40.92 40.35 40.20 40.22 39.02 35.77 33.42 32.45 31.59 31.30 31.17 30.77 31.29 34.24 34.79 34.15 30.84 30.25 29.68 29.26 27.87 27.21 26.71 28.91 31.43 28.92 24.85 24.18 23.97
33.82 33.44 33.82 34.27 34.27 34.38 37.00 37.25 37.65 38.37 38.59 40.38 40.51 40.64 40.69 40.90 38.08 35.45 34.13 32.66 31.01 30.69 30.28 30.21 30.31 31.47 30.23 33.04 34.41 34.15 30.01 28.99 29.53 28.55 28.36 30.35 29.32 30.46 31.03 26.48 24.14 21.43 23.16
33.21 33.97 34.03 33.23 33.01 34.60 36.14 35.88 37.42 37.61 39.53 39.83 39.66 38.54 36.77 35.03 33.80 31.79 30.92 30.54 29.71 28.95 28.60 29.01 29.20 29.54 29.92 30.35 33.73 34.66 31.36 30.05 29.58 28.50 29.98 29.22 30.36 31.65 31.64 30.15 24.37 22.87 24.43
32.71 33.97 33.77 33.66 34.25 34.42 35.39 33.85 35.47 36.76 36.14 35.14 34.19 33.42 32.80 32.29 31.82 29.93 29.59 29.42 28.35 27.55 27.74 25.70 27.96 28.61 29.27 31.21 32.46 33.78 33.90 32.71 30.55 29.60 30.78 30.50 30.64 31.16 31.40 30.04 28.75 27.69 24.83
32.73 34.21 33.96 33.75 34.01 33.97 34.14 34.03 33.62 34.04 33.28 31.99 31.11 30.22 30.57 29.93 29.36 28.82 28.55 27.76 27.49 26.06 27.23 28.04 27.90 29.01 30.33 28.40 31.76 32.70 32.89 32.49 31.84 31.32 31.92 31.84 30.96 30.69 30.49 30.95 29.63 28.30 26.08
33.02 33.75 33.59 31.33 30.18 32.21 32.69 32.03 31.91 31.35 30.28 29.46 29.41 29.20 28.34 28.82 28.46 28.45 28.65 27.37 25.30 25.54 27.85 27.80 27.71 28.30 29.24 29.79 28.37 28.17 28.72 30.79 31.96 31.24 32.27 31.81 30.56 29.97 29.52 28.54 29.89 28.86 26.62
33.23 32.34 30.56 30.25 30.81 31.31 30.38 30.65 30.28 29.53 28.71 27.83 27.80 27.22 27.30 26.97 26.95 27.16 26.99 27.49 27.24 26.95 27.71 27.82 28.06 27.26 27.19 28.68 31.64 32.02 31.70 30.87 29.75 29.97 30.39 29.80 29.21 27.57 26.52 26.30 26.33 26.56 25.30
31.59 31.08 30.66 30.71 29.42 27.85 26.59 27.24 28.42 27.09 25.76 25.59 25.75 25.17 24.77 24.14 23.99 23.74 24.05 27.71 28.12 29.55 30.04 30.09 28.15 28.13 29.80 30.80 31.37 31.74 31.89 33.10 32.79 29.44 27.72 26.99 25.70 25.29 25.03 24.88 24.70 24.84 24.06

GFSMW_sfc_wetblb_063.txt.gz
Wetbulb
58.45 58.93 59.49 59.95 60.30 61.60 61.67 62.26 62.02 62.04 60.78 59.69 59.02 58.84 59.83 59.86 59.42 59.98 58.85 57.71 56.69 55.80 53.40 53.47 52.47 52.68 52.07 50.96 51.14 50.18 49.59 48.85 49.71 47.72 47.05 47.85 47.18 46.98 47.89 48.62 48.29 47.56 47.63
57.43 57.97 59.24 60.18 59.55 59.91 61.04 61.34 61.49 60.61 60.89 61.10 60.67 60.55 60.18 58.95 58.60 58.06 57.70 57.01 55.89 54.24 52.83 52.74 51.73 51.95 50.50 50.39 50.55 50.44 48.72 49.00 48.72 45.78 44.96 42.76 43.97 45.99 46.99 47.04 46.68 46.90 48.11
57.28 57.56 57.68 58.99 59.59 59.21 60.19 60.66 61.19 60.83 61.25 61.48 60.07 57.53 56.92 56.35 55.58 55.90 55.56 54.68 53.75 52.51 52.83 52.21 51.72 51.45 51.34 50.16 50.41 50.03 48.42 46.52 46.62 46.05 43.79 40.08 39.05 41.04 45.40 45.37 45.92 46.05 46.88
57.89 58.73 58.42 58.62 59.47 59.53 60.77 60.90 61.03 60.68 60.75 60.56 59.85 58.40 58.69 56.79 56.64 55.95 54.15 52.95 52.77 52.26 52.27 51.70 51.71 50.97 50.58 50.07 49.59 48.60 48.25 46.56 43.66 45.24 45.22 45.03 43.31 38.64 37.63 43.88 44.75 45.30 45.01
58.04 58.51 58.82 59.49 59.91 60.01 60.22 61.03 60.83 60.40 60.28 59.79 59.99 59.15 58.27 57.79 56.02 54.94 53.12 52.92 52.81 53.06 51.61 51.39 50.72 50.36 50.29 49.53 49.13 47.11 44.76 43.84 43.13 43.75 43.73 43.22 43.43 42.96 39.58 36.85 40.10 43.67 44.60
57.21 58.58 59.82 59.77 58.96 59.53 60.11 60.35 60.13 59.75 59.66 59.47 59.14 58.61 57.37 55.37 53.82 54.22 52.88 52.74 52.91 51.98 51.15 50.26 50.48 50.31 48.73 47.71 44.88 46.45 43.07 43.12 42.82 43.07 43.65 42.41 40.75 40.12 39.94 38.51 39.27 39.49 41.42
56.72 56.47 56.73 57.00 57.25 57.87 59.15 59.94 59.62 59.24 59.05 58.40 58.57 57.99 57.50 55.86 54.85 54.79 52.69 51.98 51.19 50.02 49.34 49.61 48.64 47.66 47.71 46.58 44.47 45.15 44.12 41.19 41.80 43.63 43.25 43.68 43.12 43.38 42.19 40.68 38.72 37.65 39.83
54.53 55.37 55.93 56.77 56.86 57.42 58.55 58.78 58.96 59.17 59.01 57.99 58.14 57.80 57.01 56.71 55.59 52.81 53.33 52.73 51.07 49.07 49.11 48.40 47.80 47.59 46.94 44.10 43.43 44.37 42.63 43.17 44.00 43.71 43.83 43.47 43.07 42.70 41.59 39.66 37.84 35.60 36.74
51.68 53.26 54.61 56.05 56.77 57.47 58.36 58.92 59.26 59.16 59.51 58.71 58.55 58.31 58.28 57.07 54.68 53.40 54.82 53.26 51.25 48.60 47.77 47.68 47.78 46.04 45.68 43.64 42.72 42.52 41.46 44.07 44.17 43.71 43.18 42.40 42.38 42.26 41.78 41.37 40.48 38.03 33.48
49.87 50.97 53.06 55.30 57.00 58.16 59.03 59.60 59.92 59.59 59.53 59.53 59.22 58.93 58.36 57.09 55.07 53.54 52.94 51.27 48.62 47.96 47.45 46.51 44.39 45.21 43.92 43.20 43.47 41.57 43.46 43.05 43.16 42.70 42.05 41.65 41.70 41.55 41.63 41.08 40.88 40.32 37.31
52.41 52.66 54.18 56.39 57.65 58.75 59.07 59.46 59.76 59.85 59.54 59.81 59.07 58.27 58.53 56.19 53.76 52.02 51.08 49.04 48.22 46.34 44.46 45.64 45.29 43.13 42.62 42.28 41.03 42.58 43.18 42.01 42.21 41.98 41.33 40.92 41.57 40.66 40.75 40.57 40.08 38.92 38.22
54.41 54.84 55.62 57.13 57.85 58.55 59.14 59.48 59.58 59.47 59.79 59.35 57.95 56.79 54.07 51.40 50.00 48.39 47.71 47.85 46.30 45.67 45.82 44.13 44.06 43.69 41.98 41.55 41.79 42.20 41.97 41.65 41.21 40.99 40.48 39.87 39.57 39.77 40.27 39.33 38.32 37.63 37.64
53.71 54.75 55.83 56.63 57.66 58.47 58.93 58.51 57.67 57.77 56.38 53.88 51.91 50.15 48.95 48.27 47.74 47.05 47.35 47.87 45.50 44.96 43.82 43.71 42.51 42.22 42.97 42.04 42.37 42.15 42.09 41.61 40.75 40.59 40.20 39.43 39.18 38.62 38.97 38.60 37.41 37.18 35.60
52.80 54.75 55.14 56.07 56.64 57.18 57.05 57.06 55.06 53.35 50.70 50.07 49.87 49.12 48.29 47.70 46.96 46.40 45.50 45.51 45.71 42.90 42.42 43.40 43.21 41.96 42.23 42.55 42.16 41.63 41.61 40.96 40.59 40.61 39.78 39.13 38.53 38.15 37.79 36.99 36.51 35.93 34.56
48.56 52.07 53.06 54.61 55.13 53.87 52.15 51.46 51.40 51.02 50.51 49.38 48.38 47.78 47.78 47.62 45.71 44.62 43.98 44.97 43.76 43.64 43.69 42.05 41.76 42.32 42.06 41.36 42.10 41.64 40.94 40.41 39.97 39.48 38.58 38.41 37.97 36.28 35.49 35.19 35.51 34.72 32.96
49.01 50.20 50.74 52.14 51.65 50.41 49.79 49.04 49.43 49.81 50.34 49.20 46.94 46.36 45.54 44.80 43.06 43.68 42.60 42.00 41.71 40.63 41.07 40.38 39.66 39.37 41.31 37.75 36.59 37.90 40.54 39.55 38.77 38.23 38.59 38.26 35.60 35.34 34.19 34.51 33.31 33.07 32.92
46.65 46.91 47.62 48.67 48.91 48.72 48.74 47.97 47.59 48.21 47.66 46.83 45.58 44.25 42.92 41.52 41.07 40.04 40.72 41.16 42.34 42.00 41.28 41.37 42.67 41.37 41.41 36.66 36.55 36.21 39.61 39.20 39.01 38.62 37.83 36.98 35.72 34.18 35.16 33.53 32.28 33.09 31.24
43.52 43.57 43.93 43.99 44.57 45.26 45.38 45.63 45.57 44.99 43.43 41.52 40.40 40.11 40.34 41.25 41.98 42.25 42.36 42.15 42.01 42.03 41.83 40.46 39.76 39.30 38.84 35.61 35.69 35.59 39.44 39.67 39.02 38.64 38.07 37.25 36.71 36.03 34.79 33.99 33.15 33.08 33.36
39.72 40.11 41.49 41.62 42.46 43.22 43.92 43.25 42.42 41.23 40.63 40.56 41.17 41.72 41.67 42.03 42.24 41.59 41.68 41.48 40.14 39.49 38.72 38.02 38.13 38.25 38.55 35.19 34.65 35.19 38.50 37.99 37.77 38.14 37.92 37.06 36.09 34.47 32.87 32.26 30.97 31.43 32.16
38.96 38.87 39.62 40.50 40.56 41.23 42.68 42.02 40.84 40.90 40.82 40.96 41.21 42.51 42.08 41.83 40.91 39.74 39.00 39.34 38.78 37.41 37.31 36.78 37.50 36.17 36.96 35.65 34.54 34.97 37.46 36.16 36.49 37.02 36.96 33.70 34.39 33.11 31.38 32.38 32.02 29.96 31.30
37.31 38.40 38.98 38.39 38.95 41.28 41.97 40.72 40.88 40.00 41.64 42.01 39.13 37.92 38.96 37.91 37.52 37.43 37.25 36.72 36.51 36.06 35.76 34.67 36.28 36.40 36.06 36.35 34.71 34.38 35.44 36.09 35.66 35.72 36.00 36.21 32.31 31.54 31.95 32.17 32.74 32.04 32.63
36.87 37.80 37.29 37.37 38.93 40.48 40.03 38.36 37.20 38.09 36.99 37.05 36.55 36.11 36.06 35.46 35.62 35.90 36.05 35.72 35.25 34.32 33.67 33.71 33.33 34.43 34.66 33.44 33.62 33.96 33.58 34.02 33.60 33.90 35.59 36.51 33.79 31.91 32.00 32.19 32.45 30.79 29.56
36.62 37.31 36.64 35.69 36.10 37.18 37.97 35.62 35.41 36.16 35.98 35.33 34.32 34.00 33.54 32.88 32.84 32.49 32.09 31.58 31.53 30.53 29.99 30.02 30.42 30.67 31.99 32.74 32.27 32.34 32.10 31.97 32.87 33.94 33.70 33.11 33.57 32.70 31.36 31.36 31.44 30.66 30.42
35.76 35.63 34.86 33.87 33.00 34.32 34.07 34.18 34.58 34.62 33.57 32.07 31.34 31.18 30.44 29.81 30.24 30.39 30.02 29.41 29.09 28.63 28.44 28.19 27.73 28.33 28.83 30.02 31.36 31.08 31.91 31.16 31.35 31.89 33.38 32.33 32.11 32.19 31.82 31.31 31.61 32.42 32.20
34.32 34.61 33.45 32.22 31.36 31.66 30.39 30.57 30.95 31.72 30.31 29.63 28.72 28.27 28.12 27.62 27.39 27.83 27.90 27.76 28.84 28.44 27.48 27.89 27.81 27.61 26.50 26.77 26.76 27.48 28.34 30.37 30.67 30.73 31.62 31.96 31.86 31.98 31.67 30.79 30.99 31.30 31.86
33.67 33.24 32.24 29.53 28.03 28.18 27.81 28.12 29.19 29.29 28.54 26.92 26.57 25.48 25.83 25.73 26.07 25.82 25.94 26.64 26.96 27.41 27.47 26.53 26.39 26.44 25.43 24.66 25.70 26.49 26.07 28.83 30.84 29.87 30.29 30.83 31.94 31.11 30.34 30.01 30.04 29.76 29.16

GFSMW_sfc_wetblb_066.txt.gz
Wetbulb
60.42 61.58 61.82 63.72 62.46 63.06 63.40 63.80 64.03 65.39 65.59 64.95 62.79 61.87 62.01 64.08 65.15 65.20 65.63 64.58 63.80 62.67 61.37 59.66 58.37 58.34 56.97 55.98 55.78 54.46 53.41 53.20 54.79 53.58 52.91 51.92 51.56 51.13 50.96 51.11 50.07 49.90 49.44
59.80 59.83 61.14 62.46 63.12 63.33 63.89 64.11 64.68 65.85 65.91 64.88 63.49 62.53 62.78 63.64 65.00 64.55 64.43 63.84 62.44 61.60 60.16 59.18 57.99 57.70 56.36 55.55 54.85 54.35 53.01 53.62 53.42 50.90 49.46 48.30 49.14 49.92 50.30 50.69 49.28 49.75 49.47
60.02 60.49 60.35 61.59 62.52 62.49 63.44 64.09 65.29 65.61 65.80 65.06 63.65 63.31 64.46 64.34 63.38 62.45 62.55 62.65 60.49 60.98 58.91 57.68 58.37 57.17 56.24 54.83 54.99 54.76 53.53 51.63 51.18 50.39 47.28 42.02 44.07 46.04 49.32 48.28 48.51 48.69 48.78
61.07 61.30 61.35 61.33 62.43 62.53 63.45 64.68 65.37 65.46 65.46 65.19 63.56 62.16 61.56 61.20 62.79 62.72 62.85 59.59 59.63 58.22 56.89 57.57 57.62 56.72 56.30 55.55 54.82 54.39 53.55 51.51 48.13 49.33 45.65 46.20 44.75 42.40 41.66 46.90 47.46 48.16 47.61
61.09 60.95 61.56 62.20 62.91 63.39 63.77 63.80 64.48 65.14 65.61 65.58 64.93 63.42 62.60 63.56 64.13 62.80 61.69 59.86 58.07 56.89 56.21 56.83 56.92 56.30 55.94 55.70 54.58 53.38 51.21 48.56 49.24 46.37 44.45 44.45 46.60 46.09 43.10 41.39 43.90 46.06 46.98
61.40 62.06 62.52 62.97 63.13 64.75 64.58 64.50 63.84 64.07 65.14 65.29 65.05 64.46 63.85 63.39 61.50 60.89 59.44 56.56 56.53 54.66 55.56 56.14 56.31 56.27 55.61 54.58 53.38 52.08 49.63 47.97 46.99 45.62 45.14 45.70 44.00 43.39 43.14 41.74 42.37 42.41 44.54
61.36 61.92 62.13 62.77 62.78 63.57 64.18 64.42 64.15 63.34 64.71 64.58 64.32 64.22 64.21 63.76 61.49 60.38 58.69 57.13 55.37 54.98 55.66 55.97 55.56 55.18 54.85 53.82 50.72 50.23 46.41 46.19 45.24 44.61 46.72 46.67 45.63 45.36 44.26 43.02 41.84 40.85 43.01
58.76 61.14 62.59 63.22 63.48 63.08 63.66 63.79 63.58 63.32 63.73 62.86 63.81 63.65 62.30 61.53 60.87 60.11 59.08 55.83 53.95 56.36 57.10 55.85 55.30 54.63 53.07 51.28 46.36 49.23 48.51 44.55 44.42 46.86 46.80 46.09 46.04 45.77 44.71 42.61 40.93 38.77 40.07
57.66 59.35 61.52 62.87 63.34 63.44 63.12 63.76 63.61 63.74 64.10 62.56 63.36 61.94 61.51 59.46 59.26 60.17 58.13 54.55 55.01 56.31 55.68 54.81 54.01 52.69 50.28 46.35 46.75 45.46 44.26 43.93 46.01 47.30 46.85 45.68 45.57 45.59 45.13 44.41 43.28 40.29 36.60
55.87 57.11 58.65 60.99 61.97 63.08 63.74 64.08 64.04 63.25 63.77 63.69 62.04 62.16 61.41 61.57 60.57 59.65 57.04 54.87 56.45 56.79 54.57 53.70 51.41 45.60 46.28 46.12 45.45 44.22 43.63 44.25 45.97 46.30 45.79 45.49 45.30 45.12 44.81 44.03 43.44 42.68 40.17
57.35 57.42 57.78 58.72 60.15 61.88 62.55 62.85 63.03 62.97 63.03 63.47 62.94 61.43 60.59 60.31 60.15 58.52 56.39 55.38 55.03 54.57 52.61 50.24 46.21 46.10 44.23 43.97 43.50 42.00 42.75 43.64 45.66 45.93 44.84 44.45 45.05 44.04 43.84 43.65 43.09 41.86 41.31
57.38 58.97 59.13 59.56 60.00 60.39 61.40 61.80 62.35 62.43 62.93 63.36 62.46 59.66 59.37 58.60 54.88 53.20 51.79 52.06 49.79 48.49 46.00 46.31 44.61 44.52 42.78 42.34 41.79 42.97 44.87 45.20 44.39 44.64 44.59 43.70 43.29 43.37 43.36 42.73 42.03 41.53 41.68
57.47 59.22 59.78 60.00 60.67 61.30 61.56 61.85 62.35 62.31 62.41 60.85 58.35 53.70 52.03 51.04 49.61 48.73 47.99 46.93 46.05 45.54 46.01 45.61 43.59 42.51 42.64 43.25 44.38 45.57 45.53 45.30 44.88 44.43 43.84 43.43 43.32 42.00 42.26 42.10 41.31 41.30 40.40
55.72 58.43 59.74 60.54 61.08 61.51 61.66 60.59 58.42 57.69 55.75 54.39 51.84 50.03 49.36 48.81 48.04 47.61 47.46 46.11 46.94 45.07 43.99 44.12 43.55 44.17 44.42 44.34 45.75 45.39 45.00 45.11 44.71 44.35 43.89 43.45 42.80 41.80 41.54 41.05 40.77 40.13 39.25
52.61 55.73 58.72 60.07 60.73 60.53 60.12 59.97 56.39 52.98 52.32 50.78 50.14 49.47 49.08 48.44 47.13 46.71 45.40 45.68 44.29 44.25 44.28 44.21 43.53 44.39 43.89 43.85 43.67 45.31 45.01 44.39 43.98 43.92 43.59 43.66 42.35 39.98 39.11 39.24 39.30 39.23 38.26
53.76 54.70 56.73 58.28 57.46 56.91 56.77 55.97 54.95 52.47 51.94 49.91 48.29 47.92 47.17 47.25 47.34 44.64 43.95 44.57 43.72 42.55 42.04 41.23 41.42 41.77 42.91 40.74 38.56 39.47 43.83 43.77 42.93 42.18 42.77 43.26 40.65 38.75 35.61 35.43 34.92 35.62 36.83
52.70 53.71 54.90 55.36 54.99 54.72 55.09 53.96 53.23 52.97 50.98 48.77 48.01 47.69 47.99 45.54 43.96 42.57 40.95 41.27 41.69 42.29 42.05 43.52 44.07 44.30 45.64 39.20 38.01 36.87 41.69 42.22 42.54 42.55 42.26 41.61 41.51 39.45 40.21 36.96 34.11 33.97 33.75
50.48 50.98 52.01 52.28 52.90 53.36 52.81 52.54 52.29 51.25 50.07 48.68 47.85 47.19 45.00 42.86 42.56 42.77 42.52 43.27 44.34 43.97 45.89 44.91 43.58 43.29 42.74 36.88 36.25 35.44 40.95 41.56 41.81 42.09 42.13 41.70 41.49 41.29 39.87 39.45 38.46 38.05 37.76
49.57 50.12 50.98 51.14 51.68 51.24 51.13 50.11 48.35 46.76 45.56 44.66 43.49 43.18 43.17 42.37 42.87 42.61 42.85 43.70 45.19 44.75 43.40 42.51 41.61 41.28 41.34 36.55 35.53 35.78 39.92 39.69 40.12 40.60 40.88 40.68 40.14 37.99 37.38 38.01 36.27 36.28 36.46
47.95 48.18 49.05 49.70 49.42 49.46 49.19 47.31 45.81 44.78 43.50 43.48 43.05 44.19 45.27 44.18 43.04 43.68 42.88 43.44 43.52 41.57 41.39 40.17 40.89 38.82 40.23 37.24 35.63 35.78 37.32 36.96 38.00 39.17 39.46 36.57 37.47 35.31 34.49 37.04 36.35 34.06 35.46
46.23 47.34 47.77 47.48 47.85 48.43 47.84 46.31 45.83 44.64 45.29 44.80 42.94 42.26 42.14 41.90 41.77 41.18 41.40 42.00 41.70 40.59 40.02 38.47 39.20 38.38 37.37 36.99 34.30 34.02 34.18 34.13 33.57 33.55 34.80 36.86 34.00 34.18 34.29 33.67 36.00 34.65 36.12
44.36 45.23 45.15 45.62 46.82 47.47 46.61 44.92 43.44 43.81 42.78 40.92 39.83 40.19 40.14 39.45 40.01 40.30 40.62 40.01 38.65 36.62 35.53 36.33 34.68 36.26 36.28 33.20 33.00 32.25 31.36 30.68 31.37 31.78 34.47 35.41 33.49 33.35 32.78 33.73 33.78 33.03 32.96
44.08 44.36 43.78 43.10 43.85 44.47 44.17 41.69 41.14 41.60 40.70 39.94 38.98 38.37 37.64 37.23 36.65 36.55 35.72 35.73 35.07 34.01 33.12 32.33 32.56 33.16 33.87 34.07 31.25 29.15 28.93 29.20 30.08 31.50 32.14 30.94 31.55 31.84 31.67 32.02 32.41 31.97 32.24
42.39 42.39 41.54 40.15 39.72 41.00 40.80 40.32 39.77 39.84 38.85 37.12 36.07 35.71 33.51 34.25 33.87 34.74 34.18 33.99 33.11 32.06 30.90 30.79 30.40 30.85 30.67 31.03 29.17 28.18 29.19 28.70 28.78 29.40 31.71 32.67 30.99 30.72 31.31 32.03 32.64 33.02 32.67
41.40 41.70 40.03 38.29 37.10 37.07 36.39 37.18 37.37 37.29 34.87 33.78 32.86 32.54 32.24 31.93 32.74 32.40 32.10 31.28 31.93 29.48 29.05 29.19 28.47 27.36 26.56 26.32 24.85 25.37 25.66 26.77 26.83 27.17 29.99 31.88 32.52 33.08 33.65 34.01 34.17 33.54 33.11
40.40 38.68 37.80 36.10 34.71 33.36 32.48 33.48 34.23 34.53 33.32 31.64 31.14 29.71 31.20 31.42 31.48 31.63 31.41 26.84 26.69 25.78 25.19 24.89 25.17 25.97 23.98 22.77 23.27 23.76 23.57 23.78 24.50 27.35 27.43 28.27 31.24 32.75 32.54 32.84 33.21 33.36 32.39

GFSMW_sfc_wetblb_069.txt.gz
Wetbulb
59.53 61.23 60.67 61.70 59.85 60.67 60.54 62.14 63.23 64.26 64.68 64.10 62.61 61.53 60.49 61.87 63.22 65.38 65.52 65.67 65.55 64.78 64.42 62.95 61.22 60.54 59.73 59.36 57.95 56.40 55.20 54.36 55.26 53.86 54.07 54.01 53.79 53.31 52.83 52.87 52.17 51.39 51.23
58.87 59.89 61.18 60.65 61.31 61.59 62.92 63.23 63.49 64.44 64.70 64.36 63.34 62.09 61.71 62.05 63.38 65.87 65.36 65.53 65.07 64.45 63.50 62.76 61.06 60.39 59.77 58.84 57.32 56.23 54.68 55.33 55.17 52.67 52.07 50.00 51.58 51.86 52.30 52.38 51.85 51.41 50.79
59.05 59.77 60.43 61.87 61.70 62.06 62.88 63.29 63.85 64.21 64.98 65.10 63.92 62.74 62.59 62.59 62.53 64.39 63.59 64.05 64.48 64.47 63.72 62.70 61.53 60.67 60.05 57.69 56.87 56.17 55.57 53.60 53.95 52.73 51.06 47.82 46.60 48.30 51.65 51.51 50.13 50.61 49.80
59.88 60.61 60.24 61.17 62.69 63.31 64.55 64.85 64.79 64.82 65.48 65.24 63.93 62.26 60.76 60.11 62.23 63.53 63.65 62.78 63.81 63.17 61.68 61.63 61.21 60.86 59.84 58.32 56.89 56.65 56.48 55.25 52.57 52.31 50.82 50.67 48.15 44.85 44.53 49.40 48.98 49.48 48.84
60.51 60.29 61.44 61.34 62.49 63.69 64.11 64.90 64.89 65.18 65.54 65.74 65.20 62.98 61.97 62.68 63.63 64.12 63.27 63.34 62.56 61.75 60.77 60.23 60.36 60.13 58.82 58.64 58.45 57.09 55.74 53.93 52.00 48.94 49.01 47.75 48.47 48.87 45.15 42.67 45.94 48.66 48.60
60.51 60.81 61.80 62.82 62.64 65.38 65.11 64.39 64.47 64.85 65.55 65.80 65.55 64.75 63.41 63.29 62.63 63.95 62.06 61.96 61.29 60.06 58.26 58.30 59.61 59.35 57.12 57.88 57.20 56.21 54.69 51.97 50.76 48.78 47.23 47.29 47.04 46.36 45.33 43.47 44.05 43.97 45.90
60.68 61.05 60.76 61.28 62.16 63.18 63.97 64.48 64.05 63.61 64.95 65.54 65.70 65.50 65.13 64.70 64.22 63.19 62.08 60.97 59.56 58.05 57.63 57.88 57.02 57.49 56.37 57.68 56.49 55.05 51.68 48.71 48.72 47.98 47.06 47.77 47.98 47.36 45.84 44.04 42.63 42.21 44.11
59.08 61.20 61.97 62.15 62.10 62.86 64.00 64.69 64.23 63.85 64.29 64.92 65.92 66.22 65.95 65.19 65.45 63.97 62.79 61.06 59.37 59.69 58.58 56.11 55.29 55.49 55.61 56.76 55.40 51.34 48.94 47.43 48.13 46.71 46.55 47.23 47.46 47.37 46.10 44.00 42.16 39.42 40.54
58.66 59.41 61.89 63.02 63.59 63.67 64.53 65.90 64.78 64.69 64.83 65.40 66.19 65.63 66.18 65.26 64.23 63.77 62.59 61.03 60.13 58.11 56.91 55.66 54.35 54.06 53.76 52.84 49.31 46.12 44.67 45.11 45.53 44.63 45.88 47.04 47.15 46.88 46.42 45.53 44.27 41.01 37.57
57.65 59.48 60.40 62.38 64.02 64.92 65.22 66.01 65.39 64.45 64.74 65.14 65.34 64.84 64.95 64.02 63.16 61.16 60.84 60.11 58.79 56.75 55.51 54.89 53.54 51.76 47.85 47.28 46.26 45.25 45.13 43.84 44.42 44.13 44.98 47.03 46.79 46.47 46.03 45.41 44.34 43.21 40.89
58.08 58.49 59.50 61.51 63.27 64.78 65.21 65.20 65.06 64.89 64.47 65.04 65.47 64.69 64.11 62.60 62.33 60.58 60.40 59.26 57.28 55.62 53.41 50.89 48.27 46.94 45.23 44.63 44.36 43.29 42.83 42.19 42.79 45.00 46.77 45.72 46.23 45.12 45.12 44.81 43.92 42.70 42.00
56.89 59.37 59.87 60.13 60.68 62.16 63.53 64.32 64.87 64.74 64.78 64.76 64.55 63.58 62.37 61.14 59.92 58.60 55.36 52.53 48.39 48.69 46.79 46.30 45.00 44.85 44.39 43.49 42.36 41.70 43.46 42.94 43.55 44.94 46.07 45.17 45.06 44.93 44.64 44.06 42.87 42.76 43.03
56.41 58.44 60.16 60.47 60.94 61.54 62.31 62.90 63.52 63.62 64.09 64.00 63.29 58.84 55.64 53.41 51.43 49.48 47.85 47.30 46.65 46.78 46.40 45.74 44.64 43.59 42.93 42.57 43.20 43.96 44.27 45.47 45.58 46.20 45.24 44.85 44.81 43.78 43.90 43.33 42.53 42.89 42.01
56.04 57.58 59.36 60.60 62.00 62.45 62.55 62.67 62.84 62.89 61.42 58.32 56.23 52.22 50.66 49.39 48.36 47.49 47.35 47.44 47.77 46.87 46.08 45.47 44.39 44.14 44.33 44.34 44.35 44.63 45.26 45.92 45.81 45.83 45.70 44.83 43.89 43.30 43.55 42.71 42.62 42.10 41.30
54.33 56.33 58.61 60.38 61.70 62.59 62.55 59.57 56.17 55.03 54.16 51.91 50.70 49.63 49.22 48.61 48.56 46.90 46.72 46.12 45.94 45.44 44.95 43.93 44.20 44.50 44.28 44.13 45.18 45.61 44.83 45.07 45.18 45.63 45.25 45.46 44.59 41.68 41.03 41.91 41.50 40.88 39.39
54.98 55.32 57.62 60.85 61.17 60.88 60.70 55.77 53.91 52.49 51.96 50.92 49.55 49.32 48.03 47.30 46.65 46.46 46.09 45.58 45.14 44.72 44.29 43.29 43.19 42.86 43.07 40.61 39.51 40.94 44.33 44.03 43.61 43.08 44.02 44.23 42.39 41.14 38.23 37.30 36.91 38.65 38.72
55.03 55.69 57.96 59.64 59.51 58.94 57.00 53.75 52.41 51.40 49.62 48.88 48.85 48.76 48.21 46.59 45.41 44.94 43.98 42.76 42.34 42.46 42.82 44.48 44.62 45.15 46.02 40.86 38.98 37.23 41.57 41.57 41.79 42.08 42.56 42.41 42.84 41.33 43.21 39.23 35.78 35.36 34.73
54.93 56.13 57.19 57.20 57.58 57.77 56.09 54.01 52.59 50.90 50.22 49.18 48.73 47.75 46.28 44.41 43.94 43.29 42.12 42.28 44.20 45.46 46.40 46.55 45.93 44.89 43.92 37.84 36.80 35.62 39.97 40.14 40.64 41.26 41.64 42.18 42.54 42.92 41.34 41.10 40.64 40.47 40.10
54.82 55.33 55.98 55.79 55.70 55.29 55.25 54.22 52.92 51.87 50.44 48.76 47.31 46.84 46.40 43.94 43.54 42.45 43.12 44.78 44.88 46.33 45.36 44.60 43.13 42.05 42.08 36.25 34.94 36.03 39.33 38.99 38.97 39.95 40.11 40.03 40.01 38.23 36.53 37.29 37.68 38.13 38.57
53.48 53.47 54.08 54.30 53.63 53.03 52.72 51.22 50.23 49.39 47.22 46.29 46.04 45.65 44.88 45.36 45.72 45.45 46.30 45.67 44.84 43.56 42.79 41.41 41.85 37.84 41.03 34.11 34.17 34.34 35.69 34.12 34.70 35.80 36.09 34.36 34.42 33.10 33.48 35.35 35.45 34.25 35.85
51.99 52.90 52.92 52.03 51.93 51.92 51.35 49.31 48.56 46.94 46.78 46.78 46.14 45.20 45.53 46.06 45.21 44.13 43.46 42.41 42.12 41.70 41.23 39.59 39.99 38.51 37.52 37.07 33.38 31.82 32.81 32.02 30.29 30.22 31.69 33.69 31.92 32.04 32.63 33.14 33.65 33.23 33.78
50.09 51.41 50.97 50.61 51.13 51.28 50.21 48.56 47.11 47.40 46.78 45.49 44.15 43.98 43.25 42.02 42.26 42.23 41.51 40.76 40.24 38.42 37.33 36.16 36.14 37.83 37.37 33.51 30.52 29.37 28.59 28.55 28.66 29.01 31.28 31.49 30.55 30.12 29.91 30.75 31.26 31.50 31.50
49.15 49.96 49.46 49.02 49.80 49.97 49.28 46.58 45.34 44.85 44.32 43.61 42.28 41.35 40.61 39.90 39.65 38.68 37.85 37.57 37.45 36.43 35.32 33.91 33.99 34.40 34.92 34.96 30.62 29.12 27.76 28.20 28.15 29.17 29.64 29.01 29.30 29.92 30.51 32.27 31.47 30.90 33.50
47.71 48.50 48.04 46.69 45.85 46.65 45.80 44.62 44.20 43.92 42.57 40.63 39.47 38.62 37.98 36.61 36.64 37.12 36.35 36.35 35.68 34.56 32.64 32.33 31.93 31.83 31.37 31.49 29.46 27.40 27.87 27.29 27.05 27.14 28.63 27.55 28.16 31.05 30.85 31.41 33.85 34.83 34.79
46.66 46.67 45.40 44.26 42.98 43.28 42.56 42.59 42.24 41.73 39.23 37.80 36.58 35.92 35.39 35.33 34.67 34.84 33.72 33.35 32.11 29.84 29.85 30.58 29.46 28.35 27.28 26.86 23.92 23.96 24.63 25.44 24.97 25.35 27.50 29.59 29.43 29.16 29.99 32.23 33.02 35.25 35.15
45.33 44.09 43.03 41.70 40.56 39.99 39.21 39.54 39.92 39.06 36.71 34.79 34.25 33.74 33.89 33.52 34.02 33.74 32.15 27.37 27.52 26.02 25.07 24.43 25.01 26.22 23.83 22.41 22.29 23.04 23.40 23.47 24.28 24.30 26.37 25.61 25.57 25.41 26.16 27.04 29.23 30.60 32.85

GFSMW_sfc_wetblb_072.txt.gz
Wetbulb
58.93 59.27 59.22 59.35 58.25 57.93 57.36 56.73 57.14 57.89 59.83 60.02 59.32 59.43 59.12 59.82 60.32 61.71 63.34 63.93 63.90 64.08 61.79 61.94 60.62 58.48 57.13 55.85 56.32 54.10 51.93 50.18 50.82 49.61 49.44 49.75 49.66 48.72 48.34 48.80 47.50 48.11 48.18
57.70 58.68 58.09 58.23 57.83 57.49 57.22 57.16 58.12 61.38 62.11 61.99 61.52 60.55 59.92 60.11 60.58 62.39 63.50 64.08 63.90 63.83 62.89 61.86 59.36 58.17 57.32 57.40 54.76 53.10 50.85 51.34 51.85 48.18 47.65 44.97 46.79 48.87 49.26 48.41 48.73 47.54 47.06
56.87 57.76 58.15 57.10 57.75 57.72 58.24 59.55 61.13 62.34 62.70 62.85 62.28 60.89 60.31 60.01 59.56 62.57 62.94 63.34 63.90 63.53 62.34 61.69 59.70 58.40 58.29 56.05 54.64 53.60 52.00 49.90 49.94 49.29 46.70 42.73 42.21 42.78 46.92 47.38 47.20 45.86 45.38
57.73 58.42 58.43 58.51 57.66 57.71 59.88 61.28 62.13 62.98 63.39 63.24 61.56 59.67 58.36 57.24 58.94 61.88 62.89 62.74 63.02 63.01 62.62 61.64 60.41 59.29 58.31 56.55 54.89 55.19 52.48 51.90 48.53 48.15 48.75 47.77 45.72 41.74 39.69 44.74 44.82 45.47 45.72
57.52 58.12 58.80 59.86 59.76 60.66 61.27 62.22 62.69 62.67 62.24 63.09 62.65 60.83 59.33 59.11 59.80 61.03 61.95 61.75 62.03 62.17 61.88 60.37 59.30 58.97 58.31 57.14 55.40 53.82 53.72 52.33 47.69 47.27 46.17 45.23 43.98 45.57 41.19 38.59 41.48 44.17 44.82
58.51 59.43 59.97 60.38 61.09 61.62 62.33 63.16 63.11 62.77 63.06 63.52 62.52 62.46 59.94 60.42 60.14 61.56 60.97 61.04 60.95 60.39 60.16 59.49 58.59 57.82 57.50 55.66 55.01 54.40 53.81 48.67 47.11 46.20 45.12 44.97 43.97 44.18 41.60 38.71 39.00 38.92 41.26
59.06 59.13 59.58 59.21 59.90 60.95 61.96 62.93 62.96 62.11 63.17 63.78 62.98 63.03 62.95 61.12 60.79 61.52 60.80 60.51 59.28 58.36 58.67 57.85 57.16 57.40 56.46 55.35 54.72 53.89 50.91 47.07 44.93 44.27 44.83 46.35 45.20 46.39 42.76 41.16 39.69 37.64 39.68
59.26 58.96 59.39 60.80 60.56 60.88 62.10 62.33 62.50 62.12 62.95 63.55 63.69 64.02 63.52 63.17 62.31 62.45 61.63 60.82 59.65 58.10 57.26 57.02 56.54 56.28 55.30 54.61 53.63 49.59 48.37 46.61 46.56 44.75 45.15 45.11 45.72 45.26 43.16 41.05 38.23 35.51 35.62
57.82 59.18 60.49 60.25 61.23 61.48 62.04 62.60 62.56 62.47 62.79 63.48 63.82 64.00 64.17 63.86 63.04 62.79 62.36 60.74 60.06 58.93 57.73 56.53 55.48 53.83 53.00 50.84 48.60 47.14 44.98 45.15 44.68 44.25 44.07 44.62 44.58 45.42 44.26 42.20 40.82 37.14 30.49
57.93 58.46 59.59 61.49 61.33 62.02 62.87 63.24 63.34 63.29 63.23 63.41 63.65 64.02 64.29 64.28 63.91 62.95 60.61 59.51 59.61 57.59 56.33 54.18 53.16 49.68 48.36 47.25 45.95 44.93 44.62 43.85 43.76 44.47 43.51 43.64 44.38 44.66 43.36 42.36 41.08 39.50 36.25
57.30 58.16 59.31 60.57 62.61 62.62 61.52 63.45 63.99 63.80 63.62 63.78 63.83 63.74 63.75 62.01 60.74 59.81 59.70 58.59 57.84 55.78 53.57 49.62 47.55 46.08 45.16 44.54 44.07 43.57 43.38 42.60 42.98 43.48 43.04 43.33 44.42 42.66 42.20 41.68 40.54 38.26 37.07
56.78 58.23 58.92 59.58 60.28 62.71 63.41 62.77 63.54 63.83 63.88 63.53 63.68 63.36 62.34 60.50 59.14 58.08 56.00 54.66 53.43 50.69 48.67 47.08 45.30 44.94 44.88 44.80 43.24 42.46 42.78 41.99 41.90 42.39 42.73 43.39 44.77 43.00 41.74 40.71 39.05 37.82 37.31
55.36 57.34 58.87 58.77 59.15 60.46 61.00 63.03 63.92 63.76 64.16 61.91 60.84 59.27 56.98 53.78 51.53 49.67 49.45 49.28 48.88 46.91 46.57 46.27 45.41 44.21 43.56 43.11 43.06 43.01 43.25 43.50 43.63 43.91 43.14 43.58 43.17 40.56 40.13 39.50 38.17 37.62 39.76
54.51 55.97 57.77 59.05 59.91 60.68 61.09 61.66 61.59 60.48 59.45 58.20 55.74 53.07 51.30 50.37 49.10 48.40 48.67 47.91 47.35 46.28 45.35 45.16 44.41 43.83 43.36 43.24 43.37 44.02 43.88 43.72 44.29 44.45 44.50 43.29 42.07 40.05 38.99 38.98 37.64 38.26 35.61
53.89 54.66 55.88 59.00 60.26 60.87 59.44 58.42 57.64 56.44 55.41 52.97 50.92 49.21 49.08 47.82 47.68 48.18 47.86 46.91 46.24 46.16 44.96 43.99 43.72 43.94 44.13 44.52 44.10 43.98 44.05 42.88 43.35 42.74 43.47 42.65 42.40 42.06 40.11 40.17 36.73 36.01 34.93
55.13 55.35 56.34 59.82 60.48 58.93 56.02 54.18 52.84 52.25 51.84 49.66 48.47 48.47 47.32 47.48 46.67 46.28 45.49 45.23 44.94 44.15 43.61 43.14 43.44 43.32 43.91 41.14 39.79 39.36 40.85 41.28 40.24 38.96 39.77 40.01 40.22 39.83 38.40 37.85 37.61 37.97 36.47
55.39 55.93 57.17 60.22 59.44 56.06 54.46 52.03 50.71 50.51 49.11 48.07 47.73 47.77 47.26 46.23 46.01 45.47 44.98 44.13 43.35 43.43 42.63 42.67 43.20 43.23 42.96 40.49 39.33 37.10 37.96 37.40 37.16 36.62 36.92 38.09 40.22 38.16 38.77 37.46 36.35 35.34 36.08
55.46 56.72 58.81 58.77 56.61 54.96 53.32 51.65 50.12 49.19 48.75 48.19 47.98 47.49 46.07 44.68 44.01 43.29 42.34 42.02 42.09 42.30 43.32 44.15 44.31 43.83 39.19 36.77 36.09 34.70 36.11 35.81 36.42 36.76 36.46 35.50 34.94 35.01 33.99 32.50 31.16 32.07 33.83
55.83 56.69 57.62 57.42 55.73 53.77 52.82 51.15 50.00 49.31 48.84 47.11 46.42 45.73 44.72 43.16 42.71 41.86 42.02 42.82 43.75 44.62 45.06 43.99 41.08 38.91 34.83 34.03 33.81 35.52 34.06 33.85 32.54 34.43 33.70 33.09 31.36 33.49 33.52 29.74 28.54 29.15 30.65
55.41 55.55 55.98 55.66 55.01 54.57 53.52 51.54 49.94 48.80 47.28 46.65 46.00 45.80 44.97 43.73 43.07 43.54 44.26 44.53 44.70 43.99 40.95 39.86 39.67 37.50 32.61 33.59 32.92 32.88 29.94 28.81 28.09 28.97 29.88 31.13 30.69 31.64 31.12 28.12 26.75 25.38 26.73
53.85 54.61 54.00 52.68 52.54 52.77 52.08 50.12 48.57 46.62 47.14 46.78 45.53 44.69 45.05 45.44 45.69 44.99 43.26 41.34 39.82 39.64 36.40 35.09 34.57 35.42 34.33 31.59 31.01 30.72 27.63 25.98 25.62 25.44 25.92 27.22 30.47 30.43 30.01 29.62 26.55 26.44 28.00
52.24 52.87 51.54 50.78 50.86 51.14 50.21 48.02 46.53 46.95 46.77 46.18 45.22 44.80 44.22 42.86 42.04 40.41 39.65 39.26 38.14 34.65 32.78 31.32 31.24 32.07 32.15 30.26 29.75 28.98 27.74 27.05 24.87 24.87 25.40 26.07 28.08 28.35 29.09 28.75 30.11 30.93 29.68
50.82 51.85 50.69 49.66 50.13 50.11 49.55 47.02 46.29 46.58 45.28 43.86 42.25 41.04 40.86 40.66 40.37 38.30 36.15 35.01 34.50 31.67 30.69 29.66 30.00 29.92 30.18 27.42 28.58 27.53 27.01 26.88 24.64 24.97 25.79 26.25 26.87 27.65 27.96 30.35 30.33 30.25 30.07
49.58 49.87 49.16 48.18 47.87 48.95 48.38 46.01 44.87 44.26 43.27 40.99 39.63 38.57 36.63 35.87 35.54 35.57 34.89 33.82 31.24 30.19 29.34 29.12 28.40 27.77 27.51 25.66 24.01 23.95 22.94 25.08 24.51 23.91 22.92 23.24 25.13 24.81 25.40 25.91 27.04 27.79 28.65
48.69 48.88 47.79 46.80 45.69 44.95 43.61 43.84 43.59 42.90 40.26 38.56 36.62 34.78 33.97 34.37 33.24 30.93 29.92 29.50 27.34 27.14 26.85 26.55 26.75 23.96 22.99 22.26 22.51 22.14 22.22 21.45 22.64 20.40 21.61 22.34 23.48 22.48 22.42 22.42 23.76 24.36 25.22
47.52 46.73 45.58 43.70 41.77 41.48 40.84 40.97 41.32 39.78 36.96 34.74 33.52 32.12 32.31 30.79 31.85 31.01 28.56 28.64 27.12 26.65 25.89 25.15 24.99 24.96 23.37 22.52 22.46 22.64 23.16 23.55 23.75 19.78 19.38 17.82 17.93 18.99 19.80 19.72 20.32 21.15 21.46

GFSMW_sfc_wetblb_075.txt.gz
Wetbulb
55.13 55.61 55.16 55.22 55.08 54.90 55.08 54.17 53.27 53.75 55.04 54.49 54.41 55.39 56.31 57.34 57.91 58.79 60.15 61.21 62.58 62.25 60.34 59.03 57.32 57.13 55.82 54.45 53.14 52.82 50.12 48.59 48.48 47.28 46.21 46.47 45.94 46.60 45.87 45.98 44.85 45.83 45.39
54.57 54.89 54.53 54.35 54.27 54.47 54.84 54.54 54.27 54.60 55.50 55.65 56.24 56.76 57.15 57.94 58.07 58.61 60.93 61.69 61.72 61.83 60.42 59.71 58.50 57.02 55.63 54.00 53.32 51.07 48.77 48.26 48.34 45.88 45.31 42.76 44.01 45.75 46.65 46.20 46.34 44.43 45.56
53.89 54.52 54.55 53.83 54.43 54.30 54.03 54.24 54.64 55.58 56.27 57.62 58.47 58.29 56.27 56.34 55.61 56.22 59.06 60.94 62.03 61.89 61.40 60.04 58.31 56.74 55.86 54.77 52.62 50.50 48.89 47.00 48.03 47.51 45.54 41.05 40.11 41.49 44.18 45.49 45.49 45.17 43.97
54.93 54.95 55.05 54.30 54.16 54.47 55.12 54.83 55.49 56.14 57.39 59.68 59.36 58.11 56.28 55.05 56.61 57.82 59.98 60.87 61.69 62.03 62.01 60.76 59.29 56.65 56.33 54.69 53.41 52.99 50.99 49.22 48.09 46.43 46.88 44.49 42.50 39.91 39.59 42.48 43.40 43.68 43.71
54.84 53.87 54.48 54.89 54.04 54.81 54.71 55.29 55.93 56.99 60.51 60.65 60.27 58.91 56.14 56.30 55.83 59.22 60.39 60.88 61.25 61.44 61.48 61.65 59.46 56.97 56.31 55.67 54.23 52.35 51.39 52.12 49.60 46.88 45.15 43.71 42.52 41.42 39.80 38.65 40.78 41.54 42.41
55.58 55.93 55.65 55.86 54.46 55.44 56.14 56.84 57.31 58.95 60.90 60.73 60.55 59.18 55.96 55.91 55.32 56.96 59.47 60.04 60.39 61.13 60.75 60.24 58.89 57.54 57.01 56.40 55.48 54.14 53.05 50.46 48.83 47.18 44.99 44.14 42.08 41.77 42.49 40.45 38.33 37.84 40.37
55.15 55.69 55.81 55.70 55.41 55.36 55.77 56.60 58.08 58.94 60.53 60.97 61.13 59.07 57.62 56.69 56.18 57.53 59.57 59.22 58.21 57.83 58.55 57.57 56.47 55.62 55.62 55.80 55.12 53.78 51.78 47.13 46.79 45.54 45.33 45.71 45.03 44.64 44.34 41.19 38.67 36.18 37.60
55.31 55.91 56.54 56.90 56.90 56.90 57.39 58.24 59.04 59.16 60.09 60.38 60.39 59.81 58.94 58.48 58.40 58.52 59.67 59.63 59.18 58.98 57.23 56.11 55.24 55.06 55.26 54.57 53.53 50.46 48.15 47.49 46.30 45.96 45.56 45.36 45.97 46.50 44.90 42.21 39.56 35.12 34.39
55.61 55.68 57.18 57.63 57.82 58.51 57.94 58.56 60.21 60.18 60.46 59.53 60.62 59.57 60.24 59.32 58.57 57.93 59.50 59.31 58.27 57.50 56.79 56.01 54.80 53.63 53.33 51.11 49.23 47.65 46.95 46.25 45.41 44.56 44.36 44.54 45.56 45.69 45.56 44.34 41.50 36.17 28.95
53.10 56.20 57.35 57.77 58.00 58.88 59.68 59.84 60.51 60.77 60.86 60.63 60.79 61.23 60.61 60.70 60.31 59.87 58.81 58.13 58.52 57.25 55.82 55.18 53.30 51.10 49.30 48.53 47.11 45.79 45.28 44.60 44.25 44.31 44.09 44.36 44.76 44.96 44.96 43.79 41.00 38.93 36.14
51.48 52.20 53.35 57.67 58.97 58.89 58.89 59.87 60.10 60.45 60.52 60.86 60.29 60.87 61.39 61.37 60.94 59.22 58.09 57.21 56.25 55.46 54.14 51.70 50.80 48.15 46.48 46.03 45.16 44.66 44.63 43.85 43.34 44.18 43.55 43.29 43.99 43.74 42.27 40.52 39.96 37.77 35.57
51.96 52.57 53.16 54.07 57.56 57.87 59.21 59.77 60.35 61.11 61.01 61.13 60.07 60.73 60.64 59.53 58.65 58.70 58.09 56.45 54.15 53.03 50.92 50.44 47.78 45.84 45.43 45.52 44.86 43.95 43.93 43.24 42.41 42.73 42.81 42.87 43.76 41.54 40.92 39.62 37.96 36.91 36.39
51.24 52.27 53.30 53.72 54.11 56.50 58.71 60.01 60.94 60.03 58.19 60.98 60.37 58.51 56.29 55.07 55.05 53.74 52.92 52.12 50.70 50.22 49.31 46.82 45.84 45.40 44.31 43.53 43.79 43.88 43.34 42.99 43.04 43.28 43.11 42.91 42.19 40.45 38.84 37.94 37.38 37.60 39.08
50.78 52.37 52.62 53.36 54.44 57.06 57.81 57.32 56.53 56.89 55.89 54.61 53.86 53.16 52.62 51.39 49.98 49.22 50.27 49.49 48.58 46.90 46.05 45.84 45.00 44.27 44.21 44.17 44.03 43.70 43.60 43.70 44.14 44.12 43.48 42.25 41.31 40.85 38.15 37.40 36.17 36.41 34.19
49.72 49.68 52.45 53.01 56.47 55.61 54.45 53.32 52.48 51.81 51.80 50.84 49.67 48.43 49.15 48.70 48.14 47.69 47.09 46.66 46.14 45.82 45.09 44.52 43.97 43.88 43.41 43.58 43.58 43.92 43.78 43.06 42.71 42.66 43.08 42.31 41.67 41.20 39.79 39.14 35.96 34.93 32.70
51.79 51.76 53.67 57.11 56.25 54.49 52.36 51.22 50.15 50.25 50.05 49.09 48.36 48.14 47.92 46.73 46.17 45.97 45.94 46.25 44.92 44.29 43.96 43.28 42.95 43.00 44.08 41.17 41.01 41.32 39.03 38.99 37.37 35.63 36.07 36.21 37.86 37.09 36.01 34.47 34.43 33.53 30.62
51.57 52.65 56.99 56.81 54.64 52.40 51.05 49.52 49.65 49.21 48.40 47.70 47.67 47.51 46.64 46.25 45.94 45.55 44.75 43.73 42.94 43.11 42.72 42.81 42.88 42.64 42.43 39.44 39.58 37.48 36.77 35.06 34.11 33.18 33.30 34.62 35.36 33.51 31.92 31.90 31.82 31.35 33.03
51.84 54.95 54.98 53.39 51.76 50.21 49.13 48.97 48.85 48.68 47.78 47.22 46.91 46.81 45.68 44.88 44.60 44.09 43.27 42.74 42.90 42.25 41.43 40.89 41.18 39.95 37.10 36.31 35.75 34.78 33.75 32.55 31.90 31.66 31.23 29.87 28.46 29.82 30.85 28.52 26.91 27.08 27.82
51.94 53.51 53.38 51.91 50.55 49.52 49.16 48.53 47.99 48.04 47.70 46.50 45.51 45.20 44.39 43.34 42.65 41.86 41.72 40.56 40.35 40.90 41.54 43.30 36.69 33.36 32.36 34.17 34.54 32.88 30.00 29.94 28.79 29.94 28.81 28.64 27.05 31.14 31.59 27.51 25.44 24.69 25.18
52.35 52.75 52.52 51.37 50.14 49.44 49.15 48.03 48.11 47.19 45.80 45.26 44.83 44.44 43.70 42.95 41.66 41.21 40.41 41.52 42.93 43.17 39.11 36.46 34.50 33.09 31.21 33.25 33.39 30.84 27.04 25.37 24.56 25.61 26.82 28.82 28.54 29.56 29.12 25.52 24.65 23.77 25.12
51.30 51.37 51.92 50.83 50.19 49.75 49.05 47.46 46.98 45.90 46.32 45.94 44.81 43.60 43.02 42.15 41.77 42.17 42.42 41.21 37.28 35.26 31.73 30.68 31.81 30.90 30.29 30.32 31.34 29.60 24.81 24.48 24.99 24.56 24.24 24.49 27.32 27.44 28.09 28.80 26.47 26.37 28.42
49.80 49.66 48.10 47.03 48.09 49.17 48.06 45.50 44.31 46.37 45.90 44.33 42.67 42.63 43.18 44.23 41.96 37.99 36.11 36.76 34.77 31.06 29.44 29.14 28.64 28.21 26.99 29.60 29.18 28.54 27.17 26.50 24.53 24.09 24.24 24.39 26.31 27.11 27.99 27.61 28.72 28.67 27.13
47.78 48.09 46.77 46.17 46.42 46.26 46.09 43.82 43.54 44.62 44.84 43.80 41.92 38.45 39.74 39.00 37.91 34.31 32.85 32.06 31.01 28.98 27.83 28.24 28.02 26.49 25.83 25.13 26.75 26.08 25.52 25.35 23.78 24.45 23.91 24.70 25.58 26.28 25.74 26.64 25.79 24.27 23.90
46.10 46.48 45.96 44.97 44.55 45.21 44.80 43.80 43.91 43.29 41.28 38.55 36.08 34.84 32.71 31.94 31.59 32.27 32.15 30.00 27.67 26.84 27.77 27.91 26.91 26.72 23.90 22.53 22.01 22.31 22.31 23.30 23.11 23.19 22.13 22.07 23.64 23.23 22.89 22.89 23.12 22.02 21.34
45.14 45.61 44.14 41.24 40.38 42.05 41.82 42.32 41.64 39.68 36.46 34.20 32.87 32.09 32.32 30.10 27.91 28.94 29.76 27.10 26.60 28.10 26.43 24.75 25.55 22.42 20.18 22.08 22.77 22.43 22.06 19.47 22.92 18.63 18.28 20.28 21.35 20.94 20.81 20.40 20.30 19.96 19.75
44.27 40.89 39.02 38.07 36.88 33.16 32.28 35.31 37.95 35.69 32.82 31.45 31.06 30.29 29.36 29.18 29.37 27.60 26.49 27.95 27.40 27.42 27.01 26.81 24.54 24.64 24.14 23.16 22.79 23.45 23.45 23.66 23.93 18.80 15.84 14.86 10.22 11.79 17.20 16.67 16.95 16.94 16.19

GFSMW_sfc_wetblb_078.txt.gz
Wetbulb
52.78 54.09 54.66 55.09 54.76 55.36 54.46 53.34 53.47 54.07 54.50 54.14 53.03 53.23 53.14 53.74 54.30 54.43 56.75 58.13 58.72 59.42 58.36 57.20 55.52 55.46 54.35 53.87 52.58 51.09 50.08 48.24 47.35 45.84 45.09 45.13 44.82 44.24 44.11 43.55 43.09 44.45 45.55
53.07 53.63 53.60 53.51 53.28 53.96 53.44 52.48 52.26 52.75 53.33 53.45 53.23 52.84 53.18 55.14 54.92 55.21 56.44 58.20 59.39 59.80 58.73 57.50 56.19 55.75 54.31 53.12 52.29 51.45 48.56 48.15 47.59 45.31 44.15 42.45 44.83 45.28 45.65 44.37 44.35 42.86 44.24
52.03 52.95 53.25 52.69 53.06 53.12 53.46 52.92 52.37 52.50 53.68 53.64 53.37 54.59 54.69 54.94 54.55 54.99 55.54 58.21 59.70 60.75 60.05 58.82 57.99 56.29 55.37 53.63 51.96 50.70 49.11 47.86 47.95 47.12 46.36 41.95 41.04 41.50 43.52 44.44 44.55 44.77 43.49
53.76 53.47 52.85 52.41 52.71 53.15 53.93 53.92 53.80 52.89 53.82 54.86 54.25 54.23 54.33 53.11 55.15 55.65 56.64 59.08 59.91 60.35 60.59 59.88 58.97 56.67 56.32 54.18 52.97 51.49 49.71 49.75 48.65 47.92 47.83 45.05 43.56 40.29 39.08 42.13 42.72 43.55 44.16
53.51 53.18 53.26 53.26 53.61 54.00 53.74 53.45 53.74 53.87 54.34 55.28 55.32 55.31 54.90 56.01 55.58 55.00 55.90 58.80 59.76 60.30 60.76 60.43 59.35 57.13 55.56 55.08 53.99 52.93 51.93 51.86 50.34 47.92 46.21 45.02 43.88 42.66 41.15 39.05 41.13 43.42 43.50
54.11 54.24 54.51 54.18 53.66 54.32 54.10 53.20 53.18 53.94 54.74 55.09 56.28 57.10 56.34 56.21 54.80 54.42 55.90 57.61 59.18 60.06 60.52 60.54 59.14 58.64 56.53 55.44 54.33 52.95 52.79 51.98 49.56 47.98 46.02 45.67 44.95 43.83 42.96 40.83 41.32 41.00 42.49
53.52 53.73 53.83 53.44 53.36 53.20 53.43 53.65 53.43 53.63 55.07 56.57 57.64 58.36 58.23 57.17 55.67 54.91 56.33 57.18 58.32 59.09 59.73 60.14 59.41 58.35 57.02 55.54 55.30 53.84 53.56 51.10 49.36 47.42 46.36 47.14 46.54 46.58 45.24 42.71 41.08 38.99 39.63
53.89 52.97 54.05 54.04 52.59 53.04 53.17 53.27 53.58 53.89 55.67 56.05 58.96 59.59 59.35 58.39 57.12 56.12 57.36 58.20 58.89 59.44 59.87 60.04 59.78 56.47 55.22 54.66 54.30 51.08 48.59 48.23 48.43 47.55 47.10 46.47 46.52 46.67 45.95 43.60 40.84 38.41 37.30
53.93 54.26 54.01 54.21 54.39 52.46 53.14 53.78 54.64 55.49 56.48 57.35 59.00 59.63 59.52 58.47 57.66 56.85 56.80 59.26 59.29 59.16 58.94 58.73 56.97 55.05 53.60 51.98 49.94 48.76 47.82 48.72 47.26 45.06 46.18 45.99 46.15 46.58 46.15 45.66 44.21 40.28 35.00
53.61 54.78 55.52 55.26 55.02 55.16 54.84 55.11 55.36 55.95 57.16 58.39 59.11 59.60 59.54 59.20 58.49 57.16 57.18 58.10 58.72 57.76 56.99 56.37 55.33 53.85 52.42 50.43 49.31 48.11 47.32 46.23 45.89 45.46 44.85 45.03 45.37 45.37 45.39 45.21 44.73 42.38 39.39
53.60 54.32 55.28 56.68 56.89 56.97 56.59 56.23 56.44 56.95 58.22 59.18 59.18 59.63 59.12 59.09 58.63 57.15 57.39 56.61 56.85 56.89 56.49 55.45 54.07 52.04 51.08 49.19 47.44 46.83 45.88 44.84 44.58 44.73 44.69 44.65 44.56 44.07 44.31 44.20 42.62 39.71 35.87
51.94 54.32 55.70 56.13 56.90 57.18 57.59 57.82 57.64 58.16 59.43 60.03 59.81 59.39 59.75 58.60 58.42 57.82 57.52 57.59 56.13 56.59 56.03 53.27 52.79 50.90 48.70 46.83 45.93 44.78 45.03 44.33 43.90 44.11 43.71 43.24 43.90 42.90 42.78 41.70 38.95 36.54 36.09
49.51 49.53 50.44 52.72 55.91 56.84 56.96 57.72 58.46 58.81 59.70 59.24 58.34 57.10 56.83 58.01 58.95 58.69 57.07 57.85 56.73 53.69 52.15 51.31 49.54 47.24 45.88 45.45 44.88 45.06 44.72 44.49 44.10 43.56 42.78 42.97 43.12 41.50 40.42 38.72 37.43 36.91 38.45
49.89 49.96 49.85 51.73 53.75 55.92 56.96 56.90 57.66 58.91 57.88 55.75 55.20 53.82 54.16 54.14 54.12 54.40 53.50 53.28 52.64 50.13 48.54 48.34 46.71 45.84 44.99 45.09 44.89 44.73 43.82 43.44 43.48 43.97 43.77 43.48 42.34 40.08 38.11 37.21 35.67 36.61 35.51
48.20 49.64 50.31 51.83 54.59 53.78 53.80 53.83 53.40 52.78 53.11 52.20 51.51 49.92 50.12 50.06 50.21 49.81 49.32 49.09 48.04 47.39 47.08 46.34 45.05 44.87 44.76 44.58 44.01 43.91 43.53 43.34 43.02 43.37 42.74 40.83 39.16 36.82 35.97 33.10 29.89 29.23 28.52
48.92 49.78 50.24 55.37 54.53 53.00 51.29 51.79 51.62 51.28 51.01 49.88 48.33 48.49 48.29 48.15 47.66 47.12 47.06 46.00 45.91 44.92 44.57 43.94 43.70 43.05 43.56 40.72 40.86 42.59 42.24 40.60 37.81 35.38 33.57 34.80 34.90 34.08 33.78 33.26 33.16 31.35 27.08
49.14 51.94 53.41 55.20 53.64 51.76 51.21 50.45 49.95 50.24 49.64 49.10 49.12 48.96 48.04 46.58 45.96 46.23 45.77 44.90 44.48 44.05 43.35 43.40 43.78 43.21 43.28 40.08 39.68 37.64 37.12 33.38 32.25 30.53 30.35 31.75 31.04 30.74 29.45 29.76 29.23 28.98 29.67
50.93 54.26 53.95 51.05 49.88 50.26 50.29 49.66 49.48 48.89 48.30 48.34 48.13 47.44 47.01 45.48 45.25 44.71 43.81 43.36 43.59 43.21 42.90 42.70 42.59 41.11 38.43 37.86 36.52 34.80 32.19 30.44 30.03 28.80 28.04 26.71 26.09 29.48 28.48 26.94 24.93 24.81 25.12
52.64 52.52 51.17 49.51 48.29 48.27 48.88 48.79 48.33 48.33 48.19 47.44 46.38 45.85 45.42 44.30 43.95 43.01 42.70 42.90 42.71 42.24 41.82 41.23 35.80 33.30 33.03 35.08 33.93 31.99 29.36 28.44 26.94 27.34 27.30 26.91 26.36 28.93 28.97 25.80 24.16 24.22 25.30
53.02 51.45 50.44 49.31 48.41 47.82 48.03 47.33 47.21 47.38 46.06 45.57 45.29 45.22 44.76 43.95 43.25 42.77 42.12 42.48 42.36 41.84 38.26 34.66 33.06 32.78 31.44 33.76 33.02 30.14 27.07 24.95 24.48 25.51 26.40 27.72 26.45 27.50 27.61 25.34 24.49 23.91 24.70
51.84 50.94 50.16 48.72 47.82 48.01 47.61 46.04 46.35 45.42 45.91 45.60 44.68 43.99 43.91 43.33 42.71 42.27 42.17 40.95 35.97 33.69 33.23 29.98 29.80 29.49 30.22 31.00 31.07 29.38 25.07 24.75 25.29 24.70 24.34 24.56 26.23 26.59 27.67 28.24 25.72 25.11 24.65
50.32 50.23 48.93 47.78 47.37 47.43 46.56 44.65 45.02 45.61 45.16 44.17 43.27 43.01 42.86 42.63 42.32 40.28 38.17 35.66 32.77 30.84 29.00 28.30 26.91 26.30 27.08 29.56 29.29 28.57 27.49 26.15 25.12 24.02 24.40 24.43 25.53 26.77 27.22 26.55 25.95 25.24 24.29
46.60 47.47 47.37 45.67 45.61 45.58 45.46 42.62 42.57 43.45 43.59 43.05 42.36 40.97 39.79 38.79 37.62 36.03 34.42 33.18 32.07 28.64 28.57 28.14 25.57 24.74 25.10 25.08 26.68 26.01 25.79 25.02 23.92 24.52 24.01 24.32 24.93 25.56 25.23 25.07 24.39 22.69 20.98
45.09 46.09 45.47 43.68 42.90 45.27 44.63 42.87 42.83 42.85 39.81 36.38 34.77 33.76 32.29 32.43 32.61 32.46 31.85 30.52 29.66 29.52 29.70 29.01 26.07 24.73 23.97 23.01 22.86 22.86 23.17 23.33 23.22 23.29 23.20 22.45 23.50 22.78 22.62 22.67 22.82 21.96 20.21
44.76 42.96 40.23 38.23 37.54 40.63 41.60 41.63 40.18 37.54 33.71 32.79 31.97 30.91 30.61 30.40 29.24 27.98 28.12 26.57 27.81 29.29 27.54 26.87 27.55 24.35 22.18 22.88 23.07 23.33 22.81 22.61 23.44 20.50 19.71 20.60 20.65 19.89 19.60 19.80 19.89 18.97 18.05
38.89 33.07 32.26 31.46 31.60 32.39 33.08 34.51 35.31 34.08 31.88 29.99 29.51 29.07 28.99 28.61 28.11 27.01 26.19 28.33 27.85 27.97 28.09 27.44 26.09 25.65 25.43 24.36 23.39 23.97 24.13 23.82 24.01 20.56 16.43 12.95 9.64 12.39 16.29 15.43 15.28 14.95 13.58

GFSMW_sfc_wetblb_081.txt.gz
Wetbulb
52.64 54.85 55.56 55.47 55.29 55.13 54.78 55.16 54.60 54.51 54.84 54.24 53.65 54.38 55.64 54.04 54.63 55.61 57.83 58.97 58.68 58.45 57.60 56.53 55.29 54.98 54.29 53.43 52.04 50.00 49.17 47.14 45.81 44.67 43.93 43.74 43.50 43.07 42.27 43.14 44.89 46.51 47.11
50.93 53.92 53.45 54.54 54.56 54.60 54.00 53.99 54.18 54.19 54.37 54.46 54.23 55.49 55.34 55.21 54.99 54.77 56.25 56.32 57.25 58.12 57.76 56.71 55.45 54.86 53.41 52.15 51.13 50.55 48.58 48.49 46.59 44.40 42.84 41.17 42.86 44.05 44.09 42.86 42.34 42.27 43.18
50.86 51.69 52.46 52.48 53.27 53.10 52.97 52.73 53.84 53.88 54.41 54.71 53.33 54.22 54.07 54.68 54.08 53.62 52.96 55.37 57.13 58.09 58.31 57.02 55.71 54.90 53.90 52.65 51.70 50.62 49.25 47.54 46.36 46.70 45.79 41.41 40.88 42.96 44.43 43.43 42.85 42.26 41.25
52.05 51.89 51.63 51.24 51.94 52.77 53.89 52.21 52.27 53.50 54.24 54.14 51.68 51.27 52.03 51.35 50.25 50.83 52.71 54.09 57.14 58.06 58.72 58.07 56.56 55.43 54.86 53.00 52.23 52.54 50.06 50.66 47.21 47.54 47.85 46.23 44.36 42.55 41.98 43.90 43.90 45.11 44.92
51.89 51.89 52.19 52.24 52.73 53.37 53.04 52.65 52.42 52.08 53.03 53.10 52.59 51.92 51.08 50.76 51.14 52.81 53.18 53.53 55.25 57.36 58.40 58.56 57.58 56.41 55.65 55.10 53.34 51.72 51.00 50.77 50.25 49.13 46.09 45.03 43.90 43.69 42.63 41.10 42.04 43.75 43.95
52.44 52.73 52.87 52.68 52.05 52.63 52.83 52.63 52.19 52.21 52.37 52.92 52.92 52.42 52.27 52.50 53.08 52.77 53.53 54.20 54.80 56.82 57.80 58.79 58.74 58.33 57.16 55.71 54.36 54.52 51.89 50.55 50.82 49.49 47.26 46.22 45.65 44.90 44.28 42.57 42.69 42.86 44.87
52.60 52.46 52.19 51.78 52.16 51.74 52.34 52.56 52.20 52.02 52.60 52.67 53.26 53.17 53.19 53.70 53.99 54.32 53.99 54.44 55.24 56.82 58.19 58.24 58.37 58.63 58.45 56.67 54.83 54.61 53.21 51.36 50.61 47.88 46.91 47.97 47.99 47.85 46.01 44.30 42.74 41.48 41.27
52.87 52.96 53.06 52.58 52.41 52.68 52.36 52.67 52.29 51.94 52.63 52.80 53.10 53.70 54.74 55.53 55.65 55.43 55.47 55.34 55.88 56.71 57.42 58.96 59.56 59.00 58.14 56.61 55.87 53.77 50.93 49.54 49.45 47.79 48.08 48.78 48.19 47.31 46.63 44.76 42.19 39.11 39.15
52.24 53.26 53.99 53.89 52.85 52.70 52.66 52.59 52.53 52.38 52.75 53.22 53.51 54.01 54.81 55.74 56.68 57.06 56.34 55.69 56.23 56.96 57.22 58.81 59.07 56.97 55.87 55.12 53.68 52.22 50.70 49.54 49.25 48.87 48.85 47.90 47.07 47.34 46.63 45.98 44.33 42.24 38.12
52.47 53.13 53.43 54.45 54.25 53.46 53.71 53.22 53.14 52.60 52.97 53.40 54.11 54.51 56.57 58.08 58.39 58.17 56.75 55.21 56.84 57.71 56.67 55.69 54.78 54.58 54.30 53.09 52.45 50.69 49.62 48.73 47.92 48.03 47.85 46.46 45.43 45.07 46.26 45.83 45.22 43.95 41.29
52.17 53.35 53.71 53.97 54.97 54.67 52.89 53.12 53.25 53.12 53.58 54.34 55.17 55.99 56.82 58.42 58.97 58.49 57.32 55.85 57.19 57.05 56.55 55.80 54.58 54.04 52.95 51.68 50.76 49.51 48.52 47.31 45.86 45.43 45.78 45.12 45.82 45.15 44.85 44.73 44.23 43.10 41.44
52.87 53.43 54.41 54.68 54.02 54.24 54.09 52.60 53.28 54.09 55.01 56.30 56.57 56.66 57.76 58.18 58.03 58.13 56.10 57.31 57.18 56.75 57.17 55.99 55.00 53.09 51.75 50.13 48.84 47.45 46.80 46.12 45.01 44.84 45.14 44.65 45.28 43.95 43.66 42.92 41.83 40.50 38.74
50.83 52.57 53.27 53.75 54.84 54.92 54.59 54.82 54.59 54.53 55.53 56.32 56.47 57.46 57.53 58.10 57.37 57.58 56.92 57.02 57.10 57.05 57.15 56.31 53.59 51.19 49.40 48.32 47.78 47.20 46.39 45.73 45.36 44.92 44.29 44.02 43.47 42.39 41.78 40.96 39.78 38.80 38.59
47.89 49.70 51.98 53.32 54.18 55.45 55.88 55.62 55.63 56.01 56.28 56.49 56.72 57.15 56.91 57.19 57.54 56.89 57.46 57.17 57.36 57.12 55.75 54.40 52.44 50.14 48.01 48.08 46.73 45.86 45.09 44.59 44.58 44.31 43.79 43.48 42.96 41.52 40.21 39.31 36.86 35.70 31.98
47.20 48.17 48.85 49.66 50.55 51.78 53.08 55.38 56.06 56.43 56.68 56.23 54.82 54.97 53.34 52.81 53.05 52.83 52.30 51.74 52.19 51.67 51.93 49.26 47.31 46.44 46.61 46.18 46.13 45.08 44.60 43.83 43.10 43.47 43.48 39.67 37.48 36.33 36.04 33.37 28.60 27.92 26.86
46.77 48.31 49.62 50.05 53.00 52.77 52.26 51.43 51.11 51.54 51.29 53.06 50.36 49.84 49.86 50.04 49.91 49.33 48.97 49.10 47.85 48.01 47.43 46.02 45.05 44.20 45.15 42.35 41.34 42.99 43.27 43.01 40.92 35.69 35.23 34.48 33.80 33.43 33.00 32.94 32.41 29.31 25.20
46.39 47.20 49.54 51.53 53.00 50.75 51.75 51.98 51.19 51.39 50.51 49.17 49.35 49.02 49.04 48.34 47.83 47.45 46.37 45.34 44.79 44.94 44.05 43.77 43.81 43.70 43.26 39.98 39.84 38.29 37.70 35.68 34.22 32.87 32.36 30.85 30.87 30.17 28.65 29.40 28.79 27.74 28.14
46.66 48.27 50.57 50.27 50.63 51.20 50.09 49.97 50.07 49.85 49.71 48.99 48.97 48.63 48.14 46.87 46.35 45.61 44.56 43.89 44.06 43.78 43.72 43.82 44.03 43.47 41.76 38.16 36.34 34.79 33.51 31.64 30.35 29.79 27.97 26.57 27.20 28.47 27.21 25.49 24.38 24.60 25.39
48.17 51.10 49.64 50.18 51.14 50.10 50.18 49.53 49.13 48.86 48.33 47.54 47.60 47.40 47.00 45.23 44.44 43.31 43.30 43.38 43.29 43.09 42.55 41.31 39.50 38.02 37.01 35.42 34.23 32.92 31.27 29.00 27.33 27.17 27.05 26.58 25.64 28.03 28.03 25.58 24.97 24.80 25.86
51.62 49.75 48.36 48.74 48.71 49.20 49.70 48.86 47.97 47.75 46.66 46.27 45.59 45.47 45.22 44.28 43.46 43.50 43.18 43.41 43.07 41.47 37.93 34.47 34.77 34.73 33.14 34.07 33.31 31.06 28.62 25.18 25.17 26.04 26.05 27.31 26.20 26.57 27.10 25.91 24.91 23.20 23.48
50.08 49.50 48.87 47.92 47.58 48.09 48.37 47.48 47.05 46.11 46.49 45.87 44.81 44.34 44.64 44.03 43.51 42.83 42.43 40.00 37.77 35.00 32.18 30.65 30.80 31.40 31.29 31.30 31.65 30.40 27.00 26.36 25.61 24.56 23.96 24.11 25.51 26.34 27.36 27.47 25.25 23.63 22.75
49.53 49.14 47.70 46.87 47.11 46.72 46.23 46.01 44.74 45.14 44.88 43.89 43.25 42.84 42.93 42.76 41.98 39.25 37.10 35.77 34.42 31.84 30.06 28.73 27.66 28.02 28.66 29.68 29.68 28.88 27.41 26.78 25.96 24.31 24.45 24.43 25.14 26.21 26.73 25.48 24.85 24.12 22.85
48.53 48.56 47.24 46.15 46.07 46.10 45.68 42.74 42.71 43.87 43.46 42.60 39.49 37.76 37.31 37.39 37.87 36.46 34.48 32.93 32.42 30.95 29.38 28.32 26.59 25.65 25.79 26.02 26.89 26.52 25.70 24.70 23.86 24.43 23.96 24.24 24.65 25.31 25.52 24.32 23.53 22.47 20.63
46.27 46.31 45.51 43.93 42.92 43.56 43.14 42.32 42.00 39.69 37.08 34.39 33.71 33.68 32.37 31.41 31.58 31.23 31.70 31.03 30.31 30.22 29.61 28.10 26.10 24.86 23.78 23.41 23.77 23.39 23.46 23.76 23.74 23.41 23.63 23.29 23.78 23.64 23.49 22.42 22.05 20.59 19.51
41.28 40.53 39.16 39.38 40.01 40.83 39.72 38.75 36.77 35.60 32.88 32.09 31.57 30.94 29.85 28.37 26.89 26.93 26.80 26.99 28.41 29.79 28.72 27.77 26.88 23.21 23.22 23.48 23.52 23.64 23.49 23.52 23.87 22.40 21.52 21.62 20.65 19.33 19.23 19.16 18.75 18.12 17.30
34.48 33.18 32.77 31.98 31.79 32.60 32.79 33.54 34.28 33.60 31.44 29.54 29.05 28.74 28.29 27.60 27.12 26.50 26.64 28.83 27.99 28.26 28.37 27.89 26.46 26.24 26.53 25.29 24.19 24.33 24.37 24.03 23.77 21.46 18.58 16.13 14.13 15.16 16.08 15.68 15.04 15.35 14.78

GFSMW_sfc_wetblb_084.txt.gz
Wetbulb
52.61 55.46 55.45 55.93 55.44 55.74 56.15 55.36 54.88 55.17 55.64 55.18 55.26 55.88 56.08 55.69 56.86 57.48 57.84 57.72 57.65 57.00 55.61 54.98 54.92 54.45 52.76 52.51 51.21 50.11 49.03 47.51 45.99 45.08 44.51 44.66 44.24 43.97 43.25 45.19 46.83 48.17 49.32
51.01 52.99 54.33 54.28 54.59 54.35 55.22 55.04 54.74 54.86 55.93 55.81 55.81 56.78 56.16 54.68 55.23 56.05 57.61 58.24 57.93 57.52 56.93 56.18 54.71 54.27 53.34 52.20 51.41 50.52 49.09 48.77 46.22 44.31 43.16 42.11 43.75 44.62 44.60 43.35 44.66 46.17 47.18
49.45 51.24 52.23 53.32 54.29 53.79 53.84 54.39 54.21 54.56 55.39 56.03 54.13 53.44 53.96 54.56 54.33 54.33 54.71 56.42 57.71 58.27 58.19 56.85 55.87 54.58 54.14 52.98 51.97 50.38 49.43 48.05 46.36 46.19 45.08 41.52 40.61 42.91 44.57 44.33 44.33 43.72 43.37
50.15 50.83 52.35 52.22 52.87 53.43 53.77 54.27 54.24 54.02 54.73 55.22 54.02 52.34 54.10 53.59 54.49 53.01 54.26 54.93 56.84 57.22 57.50 57.20 56.09 54.72 54.63 52.71 52.79 52.04 49.87 49.27 47.01 46.17 46.74 46.40 46.65 44.09 42.67 43.72 45.09 45.08 44.71
50.21 50.00 51.34 51.61 53.13 53.53 53.57 52.99 53.53 53.18 53.55 54.10 53.81 51.30 53.49 54.35 49.65 50.88 51.17 52.07 54.35 56.05 57.28 57.01 55.89 54.94 54.52 54.23 52.57 51.30 49.62 49.72 48.98 47.48 45.99 45.84 44.11 44.50 43.91 43.10 42.35 44.31 45.31
50.52 51.10 51.73 52.66 52.82 53.23 53.34 53.07 51.72 52.08 53.14 53.16 52.12 50.90 50.19 50.00 50.06 50.16 50.91 51.68 52.53 54.26 55.56 56.93 56.99 56.79 55.84 54.80 53.83 52.97 51.86 51.92 51.37 49.48 48.04 47.02 45.36 45.59 44.08 43.88 44.26 44.38 45.84
50.57 50.99 51.07 51.79 52.18 51.79 51.85 52.43 52.01 51.39 52.15 52.37 52.37 51.81 51.49 51.04 51.34 51.80 51.62 51.18 51.44 52.47 54.72 56.25 56.65 56.93 57.05 56.89 56.11 54.24 53.15 51.70 51.00 49.74 49.40 49.93 48.73 49.13 47.73 46.50 44.85 43.81 44.10
51.39 51.44 51.68 51.74 51.64 51.57 51.58 51.66 51.92 51.82 52.08 51.79 52.06 52.54 52.28 52.33 52.58 52.62 53.23 52.55 52.95 53.34 54.65 56.39 58.09 58.15 58.43 58.09 56.15 55.60 54.95 54.23 52.67 52.00 49.84 49.56 49.68 48.51 46.63 46.66 45.94 40.45 40.90
51.03 51.97 52.60 52.31 52.02 51.94 51.85 51.88 52.09 52.06 52.10 51.73 51.95 51.83 52.27 52.35 52.40 53.22 53.07 53.45 53.44 54.39 54.23 55.24 56.87 56.77 55.93 55.67 55.75 55.69 53.88 52.72 52.97 51.47 49.94 49.75 49.76 49.12 48.94 47.45 45.67 45.28 40.40
50.51 52.03 52.77 52.87 52.62 52.68 52.70 52.56 52.52 51.95 51.97 51.95 51.97 52.17 52.39 52.93 53.55 54.06 54.75 54.94 54.17 54.11 55.28 56.05 56.67 55.85 55.27 55.49 54.68 53.64 52.72 51.47 50.62 51.33 49.92 49.21 48.07 47.92 46.88 46.41 45.61 44.76 43.22
50.03 51.56 53.09 53.95 53.79 53.15 52.74 52.73 52.45 52.08 51.62 51.96 52.25 52.32 52.40 53.33 53.72 54.23 55.15 55.95 55.54 55.53 56.53 56.73 56.39 55.65 55.17 54.30 53.74 53.22 51.72 50.87 50.11 48.38 48.75 48.10 47.09 46.52 46.21 46.09 45.45 44.28 42.99
49.85 51.33 51.84 52.29 53.50 53.19 52.51 52.36 52.50 52.39 52.45 52.59 52.63 52.99 53.57 53.55 54.45 55.83 56.97 57.10 56.17 56.07 57.06 57.01 56.67 56.19 55.65 53.81 52.26 50.83 50.29 49.75 47.40 47.18 47.54 46.50 46.41 45.94 45.22 44.68 43.75 43.12 42.14
49.07 50.02 50.80 51.55 52.15 53.39 53.36 52.55 52.50 52.51 53.11 53.80 53.30 53.42 53.81 54.37 54.87 55.78 56.95 57.39 56.09 56.50 56.71 57.03 56.63 56.81 54.15 51.19 50.65 50.03 48.46 48.55 48.80 47.78 46.73 45.67 45.17 44.01 43.00 42.33 41.77 40.65 40.27
48.01 49.09 49.58 51.12 52.55 52.92 53.19 53.42 52.47 52.56 52.79 53.17 53.19 53.00 53.96 54.42 55.47 56.32 55.76 55.36 56.01 56.13 56.23 56.99 57.23 55.57 52.44 51.19 49.24 48.39 47.42 46.95 46.27 46.14 45.54 44.79 44.27 43.35 42.07 40.81 39.57 38.25 36.21
45.98 47.91 50.20 50.26 51.18 51.37 52.83 53.31 53.57 53.22 52.78 52.61 52.79 52.87 53.07 53.50 53.85 53.25 53.07 54.45 55.81 56.05 56.49 54.08 51.54 50.94 49.78 49.03 48.48 47.04 46.07 45.87 44.68 43.93 42.62 40.37 39.76 38.93 39.47 37.35 33.19 32.15 30.50
44.83 47.41 48.74 49.86 49.49 50.57 51.40 51.56 51.39 51.12 52.83 52.99 52.53 51.41 51.89 52.07 51.91 51.00 50.82 50.30 50.30 49.35 49.17 48.10 46.91 46.04 46.96 43.16 41.90 44.38 44.83 44.19 41.75 36.55 35.27 34.97 34.55 33.68 33.72 33.14 31.77 30.63 28.57
45.26 46.16 48.32 49.20 49.27 49.81 49.98 49.85 51.01 51.63 51.29 50.55 50.58 50.02 50.02 49.14 48.79 48.77 48.61 47.38 46.48 45.90 44.99 44.79 45.45 44.18 43.39 40.14 40.58 40.30 41.83 38.21 35.81 33.50 31.89 31.47 31.66 31.22 30.26 29.77 29.08 28.13 28.57
45.42 45.64 46.71 48.88 49.47 49.12 49.73 50.79 51.43 50.49 49.73 49.17 48.83 48.90 48.74 47.69 46.98 46.60 46.08 44.27 44.41 44.38 43.77 43.84 44.03 43.17 40.17 37.36 36.83 34.98 34.09 32.09 31.74 31.39 30.16 29.92 29.01 29.01 28.00 26.12 25.73 26.18 26.82
47.38 45.94 47.88 48.94 49.78 49.19 50.52 50.23 49.76 49.78 48.86 48.14 48.00 47.83 47.07 45.99 45.09 43.69 43.33 43.66 43.68 43.32 41.69 41.36 40.79 38.55 35.60 35.05 34.42 32.97 31.14 29.38 28.51 28.51 28.57 28.25 27.40 28.49 28.34 26.09 25.75 25.56 26.04
48.51 48.54 49.79 50.07 50.21 49.96 50.30 49.17 48.57 48.01 46.75 46.37 46.59 46.14 46.37 45.09 43.88 43.38 43.22 43.37 41.08 38.37 36.44 35.03 35.08 34.78 33.52 34.19 33.34 31.42 29.08 26.90 26.23 26.70 26.95 27.56 26.66 26.91 27.40 26.80 25.59 23.50 23.68
47.87 48.78 49.07 48.18 48.68 49.56 49.12 47.70 47.33 45.47 45.43 45.28 44.99 44.50 44.67 43.70 43.14 42.15 41.24 38.88 35.98 33.34 31.73 30.51 30.53 30.49 31.11 31.11 31.77 31.25 28.47 27.27 26.37 25.14 24.44 24.92 25.70 26.43 27.27 27.51 25.79 23.83 23.21
47.67 47.63 46.84 46.75 48.02 48.46 47.81 45.49 43.59 44.39 44.15 43.47 42.75 41.97 41.72 41.36 39.68 38.08 37.35 36.03 33.87 30.86 29.43 28.43 27.67 28.05 28.82 29.61 29.49 28.84 28.06 28.06 26.56 24.96 24.59 24.69 25.30 26.11 26.67 25.79 24.66 23.72 21.95
47.63 47.52 46.61 45.92 45.92 45.98 45.68 42.65 42.83 42.80 39.80 38.36 37.09 36.66 36.39 36.48 36.88 35.40 34.30 33.37 32.40 30.15 28.99 27.96 26.59 25.76 25.79 26.47 28.09 27.50 25.81 24.92 24.51 24.84 24.18 24.26 24.49 25.10 25.60 24.26 23.44 21.78 20.28
45.61 46.20 45.07 42.68 41.62 42.34 42.32 42.18 40.75 39.44 37.94 35.37 33.91 33.21 31.67 30.88 30.93 31.21 31.77 31.53 31.07 30.19 29.33 28.07 26.29 25.51 25.06 24.75 24.73 23.97 24.26 24.47 24.48 23.75 23.96 23.21 24.15 23.78 23.70 22.55 22.21 20.54 19.23
40.14 40.95 40.55 39.13 37.93 37.22 35.77 36.01 35.92 34.94 31.98 30.71 29.73 28.75 27.94 27.25 26.84 27.08 27.59 28.77 29.47 30.41 28.77 28.07 27.35 25.02 24.27 24.68 24.66 24.54 23.74 24.07 23.98 22.98 22.33 22.43 21.61 20.34 19.69 19.47 19.03 18.24 17.40
34.08 32.22 31.73 30.60 30.29 30.35 30.74 31.91 32.97 32.09 30.09 28.51 28.29 28.19 27.79 28.32 28.34 27.41 26.98 29.36 28.70 28.83 28.74 28.29 27.15 27.30 27.89 26.13 25.01 25.79 25.71 25.07 23.74 21.85 19.41 17.62 15.78 16.05 16.66 16.42 16.05 15.79 14.95